<?xml version="1.0"?>
<gpx xmlns="http://www.topografix.com/GPX/1/1" xmlns:xsi="http://www.w3.org/2001/XMLSchema-instance" xmlns:wptx1="http://www.garmin.com/xmlschemas/WaypointExtension/v1" xmlns:gpxtrx="http://www.garmin.com/xmlschemas/GpxExtensions/v3" xmlns:gpxtpx="http://www.garmin.com/xmlschemas/TrackPointExtension/v1" xmlns:gpxx="http://www.garmin.com/xmlschemas/GpxExtensions/v3" xmlns:trp="http://www.garmin.com/xmlschemas/TripExtensions/v1" xmlns:adv="http://www.garmin.com/xmlschemas/AdventuresExtensions/v1" xmlns:prs="http://www.garmin.com/xmlschemas/PressureExtension/v1" xmlns:tmd="http://www.garmin.com/xmlschemas/TripMetaDataExtensions/v1" xmlns:vptm="http://www.garmin.com/xmlschemas/ViaPointTransportationModeExtensions/v1" xmlns:ctx="http://www.garmin.com/xmlschemas/CreationTimeExtension/v1" xmlns:gpxacc="http://www.garmin.com/xmlschemas/AccelerationExtension/v1" xmlns:gpxpx="http://www.garmin.com/xmlschemas/PowerExtension/v1" xmlns:vidx1="http://www.garmin.com/xmlschemas/VideoExtension/v1" creator="Garmin Desktop App" version="1.1" xsi:schemaLocation="http://www.topografix.com/GPX/1/1 http://www.topografix.com/GPX/1/1/gpx.xsd http://www.garmin.com/xmlschemas/WaypointExtension/v1 http://www8.garmin.com/xmlschemas/WaypointExtensionv1.xsd http://www.garmin.com/xmlschemas/TrackPointExtension/v1 http://www.garmin.com/xmlschemas/TrackPointExtensionv1.xsd http://www.garmin.com/xmlschemas/GpxExtensions/v3 http://www8.garmin.com/xmlschemas/GpxExtensionsv3.xsd http://www.garmin.com/xmlschemas/ActivityExtension/v1 http://www8.garmin.com/xmlschemas/ActivityExtensionv1.xsd http://www.garmin.com/xmlschemas/AdventuresExtensions/v1 http://www8.garmin.com/xmlschemas/AdventuresExtensionv1.xsd http://www.garmin.com/xmlschemas/PressureExtension/v1 http://www.garmin.com/xmlschemas/PressureExtensionv1.xsd http://www.garmin.com/xmlschemas/TripExtensions/v1 http://www.garmin.com/xmlschemas/TripExtensionsv1.xsd http://www.garmin.com/xmlschemas/TripMetaDataExtensions/v1 http://www.garmin.com/xmlschemas/TripMetaDataExtensionsv1.xsd http://www.garmin.com/xmlschemas/ViaPointTransportationModeExtensions/v1 http://www.garmin.com/xmlschemas/ViaPointTransportationModeExtensionsv1.xsd http://www.garmin.com/xmlschemas/CreationTimeExtension/v1 http://www.garmin.com/xmlschemas/CreationTimeExtensionsv1.xsd http://www.garmin.com/xmlschemas/AccelerationExtension/v1 http://www.garmin.com/xmlschemas/AccelerationExtensionv1.xsd http://www.garmin.com/xmlschemas/PowerExtension/v1 http://www.garmin.com/xmlschemas/PowerExtensionv1.xsd http://www.garmin.com/xmlschemas/VideoExtension/v1 http://www.garmin.com/xmlschemas/VideoExtensionv1.xsd">

  <metadata>
    <link href="http://www.garmin.com">
      <text>Garmin International</text>
    </link>
    <time>2015-07-21T10:28:20Z</time>
    <bounds maxlat="47.747181337326765" maxlon="11.506276857107878" minlat="47.723507238551974" minlon="11.462448555976152"/>
  </metadata>

  <trk>
    <name>Zwieselberg 2015.07.20</name>
    <extensions>
      <gpxx:TrackExtension>
        <gpxx:DisplayColor>Cyan</gpxx:DisplayColor>
      </gpxx:TrackExtension>
    </extensions>
    <trkseg>
      <trkpt lat="47.747172620147467" lon="11.462449561804533">
        <ele>727</ele>
        <time>2015-07-20T11:08:21Z</time>
      </trkpt>
      <trkpt lat="47.747173206880689" lon="11.462448555976152">
        <ele>727</ele>
        <time>2015-07-20T11:08:22Z</time>
      </trkpt>
      <trkpt lat="47.74717278778553" lon="11.462452244013548">
        <ele>696.07000000000005</ele>
        <time>2015-07-20T11:08:25Z</time>
      </trkpt>
      <trkpt lat="47.747175469994545" lon="11.462452914565802">
        <ele>696.07000000000005</ele>
        <time>2015-07-20T11:08:26Z</time>
      </trkpt>
      <trkpt lat="47.747116042301059" lon="11.462693642824888">
        <ele>695.830000000000041</ele>
        <time>2015-07-20T11:09:10Z</time>
      </trkpt>
      <trkpt lat="47.747121574357152" lon="11.462700013071299">
        <ele>694.25</ele>
        <time>2015-07-20T11:09:18Z</time>
      </trkpt>
      <trkpt lat="47.747120903804898" lon="11.462703449651599">
        <ele>695.350000000000023</ele>
        <time>2015-07-20T11:09:51Z</time>
      </trkpt>
      <trkpt lat="47.747123837471008" lon="11.462701857089996">
        <ele>694.07000000000005</ele>
        <time>2015-07-20T11:10:24Z</time>
      </trkpt>
      <trkpt lat="47.747123837471008" lon="11.462689703330398">
        <ele>694.909999999999968</ele>
        <time>2015-07-20T11:10:50Z</time>
      </trkpt>
      <trkpt lat="47.747120568528771" lon="11.462674951180816">
        <ele>694.809999999999945</ele>
        <time>2015-07-20T11:11:06Z</time>
      </trkpt>
      <trkpt lat="47.7471156232059" lon="11.462712250649929">
        <ele>694.600000000000023</ele>
        <time>2015-07-20T11:11:09Z</time>
      </trkpt>
      <trkpt lat="47.747130710631609" lon="11.462800931185484">
        <ele>694.92999999999995</ele>
        <time>2015-07-20T11:11:12Z</time>
      </trkpt>
      <trkpt lat="47.747133392840624" lon="11.462844014167786">
        <ele>694.629999999999995</ele>
        <time>2015-07-20T11:11:13Z</time>
      </trkpt>
      <trkpt lat="47.74713565595448" lon="11.462894389405847">
        <ele>694.899999999999977</ele>
        <time>2015-07-20T11:11:14Z</time>
      </trkpt>
      <trkpt lat="47.747117802500725" lon="11.463755378499627">
        <ele>696.149999999999977</ele>
        <time>2015-07-20T11:11:29Z</time>
      </trkpt>
      <trkpt lat="47.747052339836955" lon="11.464595329016447">
        <ele>698.490000000000009</ele>
        <time>2015-07-20T11:11:45Z</time>
      </trkpt>
      <trkpt lat="47.746949996799231" lon="11.465099584311247">
        <ele>699.360000000000014</ele>
        <time>2015-07-20T11:11:56Z</time>
      </trkpt>
      <trkpt lat="47.746925773099065" lon="11.465110061690211">
        <ele>699.539999999999964</ele>
        <time>2015-07-20T11:11:57Z</time>
      </trkpt>
      <trkpt lat="47.746903644874692" lon="11.465118862688541">
        <ele>699.549999999999955</ele>
        <time>2015-07-20T11:11:58Z</time>
      </trkpt>
      <trkpt lat="47.746882857754827" lon="11.465118443593383">
        <ele>699.669999999999959</ele>
        <time>2015-07-20T11:11:59Z</time>
      </trkpt>
      <trkpt lat="47.746868273243308" lon="11.465114755555987">
        <ele>699.419999999999959</ele>
        <time>2015-07-20T11:12:00Z</time>
      </trkpt>
      <trkpt lat="47.746854526922107" lon="11.465108720585704">
        <ele>699.92999999999995</ele>
        <time>2015-07-20T11:12:01Z</time>
      </trkpt>
      <trkpt lat="47.74655026383698" lon="11.465058512985706">
        <ele>701.889999999999986</ele>
        <time>2015-07-20T11:12:16Z</time>
      </trkpt>
      <trkpt lat="47.746537858620286" lon="11.465049963444471">
        <ele>702.409999999999968</ele>
        <time>2015-07-20T11:12:17Z</time>
      </trkpt>
      <trkpt lat="47.746517742052674" lon="11.465047616511583">
        <ele>702.210000000000036</ele>
        <time>2015-07-20T11:12:19Z</time>
      </trkpt>
      <trkpt lat="47.746457057073712" lon="11.465101176872849">
        <ele>701.960000000000036</ele>
        <time>2015-07-20T11:12:28Z</time>
      </trkpt>
      <trkpt lat="47.746460409834981" lon="11.465140404179692">
        <ele>702.039999999999964</ele>
        <time>2015-07-20T11:12:30Z</time>
      </trkpt>
      <trkpt lat="47.746460577473044" lon="11.465177619829774">
        <ele>702.159999999999968</ele>
        <time>2015-07-20T11:12:31Z</time>
      </trkpt>
      <trkpt lat="47.746457476168871" lon="11.465222043916583">
        <ele>702.159999999999968</ele>
        <time>2015-07-20T11:12:32Z</time>
      </trkpt>
      <trkpt lat="47.746450519189239" lon="11.465266719460487">
        <ele>702.269999999999982</ele>
        <time>2015-07-20T11:12:33Z</time>
      </trkpt>
      <trkpt lat="47.746443394571543" lon="11.465311897918582">
        <ele>702.600000000000023</ele>
        <time>2015-07-20T11:12:34Z</time>
      </trkpt>
      <trkpt lat="47.746378099545836" lon="11.465877592563629">
        <ele>702.879999999999995</ele>
        <time>2015-07-20T11:12:48Z</time>
      </trkpt>
      <trkpt lat="47.746382458135486" lon="11.466581085696816">
        <ele>702.720000000000027</ele>
        <time>2015-07-20T11:13:01Z</time>
      </trkpt>
      <trkpt lat="47.746359743177891" lon="11.467080814763904">
        <ele>702.75</ele>
        <time>2015-07-20T11:13:14Z</time>
      </trkpt>
      <trkpt lat="47.746372567489743" lon="11.467127334326506">
        <ele>702.259999999999991</ele>
        <time>2015-07-20T11:13:37Z</time>
      </trkpt>
      <trkpt lat="47.746354965493083" lon="11.467129597440362">
        <ele>702.100000000000023</ele>
        <time>2015-07-20T11:13:46Z</time>
      </trkpt>
      <trkpt lat="47.746338369324803" lon="11.467123059555888">
        <ele>702.169999999999959</ele>
        <time>2015-07-20T11:13:47Z</time>
      </trkpt>
      <trkpt lat="47.746263770386577" lon="11.467083161696792">
        <ele>702.490000000000009</ele>
        <time>2015-07-20T11:13:50Z</time>
      </trkpt>
      <trkpt lat="47.746242312714458" lon="11.467043934389949">
        <ele>702.289999999999964</ele>
        <time>2015-07-20T11:13:51Z</time>
      </trkpt>
      <trkpt lat="47.746227392926812" lon="11.467001354321837">
        <ele>702.460000000000036</ele>
        <time>2015-07-20T11:13:52Z</time>
      </trkpt>
      <trkpt lat="47.74621750228107" lon="11.466961288824677">
        <ele>702.309999999999945</ele>
        <time>2015-07-20T11:13:53Z</time>
      </trkpt>
      <trkpt lat="47.746210545301437" lon="11.466923737898469">
        <ele>702.519999999999982</ele>
        <time>2015-07-20T11:13:54Z</time>
      </trkpt>
      <trkpt lat="47.746065957471728" lon="11.466278247535229">
        <ele>703.289999999999964</ele>
        <time>2015-07-20T11:14:09Z</time>
      </trkpt>
      <trkpt lat="47.745947604998946" lon="11.465620435774326">
        <ele>703.529999999999973</ele>
        <time>2015-07-20T11:14:23Z</time>
      </trkpt>
      <trkpt lat="47.745931595563889" lon="11.46556880325079">
        <ele>703.059999999999945</ele>
        <time>2015-07-20T11:14:33Z</time>
      </trkpt>
      <trkpt lat="47.745913993567228" lon="11.465510549023747">
        <ele>702.669999999999959</ele>
        <time>2015-07-20T11:14:35Z</time>
      </trkpt>
      <trkpt lat="47.745906868949533" lon="11.465470818802714">
        <ele>703.120000000000005</ele>
        <time>2015-07-20T11:14:36Z</time>
      </trkpt>
      <trkpt lat="47.745859678834677" lon="11.465232186019421">
        <ele>702.490000000000009</ele>
        <time>2015-07-20T11:14:44Z</time>
      </trkpt>
      <trkpt lat="47.74581148289144" lon="11.465224893763661">
        <ele>702.460000000000036</ele>
        <time>2015-07-20T11:15:11Z</time>
      </trkpt>
      <trkpt lat="47.74575624614954" lon="11.465224977582693">
        <ele>702.299999999999955</ele>
        <time>2015-07-20T11:15:29Z</time>
      </trkpt>
      <trkpt lat="47.745737805962563" lon="11.465223049744964">
        <ele>702.389999999999986</ele>
        <time>2015-07-20T11:15:30Z</time>
      </trkpt>
      <trkpt lat="47.745718192309141" lon="11.465221960097551">
        <ele>702.659999999999968</ele>
        <time>2015-07-20T11:15:31Z</time>
      </trkpt>
      <trkpt lat="47.745605371892452" lon="11.46521894261241">
        <ele>703.940000000000055</ele>
        <time>2015-07-20T11:15:37Z</time>
      </trkpt>
      <trkpt lat="47.745591625571251" lon="11.46521994844079">
        <ele>704.379999999999995</ele>
        <time>2015-07-20T11:15:38Z</time>
      </trkpt>
      <trkpt lat="47.745579052716494" lon="11.465216679498553">
        <ele>704.490000000000009</ele>
        <time>2015-07-20T11:15:39Z</time>
      </trkpt>
      <trkpt lat="47.745566898956895" lon="11.465213326737285">
        <ele>704.690000000000055</ele>
        <time>2015-07-20T11:15:40Z</time>
      </trkpt>
      <trkpt lat="47.745553823187947" lon="11.465210895985365">
        <ele>704.809999999999945</ele>
        <time>2015-07-20T11:15:41Z</time>
      </trkpt>
      <trkpt lat="47.745540579780936" lon="11.46520234644413">
        <ele>704.730000000000018</ele>
        <time>2015-07-20T11:15:42Z</time>
      </trkpt>
      <trkpt lat="47.745528677478433" lon="11.465193880721927">
        <ele>704.940000000000055</ele>
        <time>2015-07-20T11:15:43Z</time>
      </trkpt>
      <trkpt lat="47.745516104623675" lon="11.465189605951309">
        <ele>705.009999999999991</ele>
        <time>2015-07-20T11:15:44Z</time>
      </trkpt>
      <trkpt lat="47.745414599776268" lon="11.465226737782359">
        <ele>706.889999999999986</ele>
        <time>2015-07-20T11:15:53Z</time>
      </trkpt>
      <trkpt lat="47.745376043021679" lon="11.465241322293878">
        <ele>707.059999999999945</ele>
        <time>2015-07-20T11:15:56Z</time>
      </trkpt>
      <trkpt lat="47.745308484882116" lon="11.465272670611739">
        <ele>707.990000000000009</ele>
        <time>2015-07-20T11:16:01Z</time>
      </trkpt>
      <trkpt lat="47.74529448710382" lon="11.465277951210737">
        <ele>708.289999999999964</ele>
        <time>2015-07-20T11:16:02Z</time>
      </trkpt>
      <trkpt lat="47.74524662643671" lon="11.465295972302556">
        <ele>708.120000000000005</ele>
        <time>2015-07-20T11:16:04Z</time>
      </trkpt>
      <trkpt lat="47.745228102430701" lon="11.465296978130937">
        <ele>707.990000000000009</ele>
        <time>2015-07-20T11:16:05Z</time>
      </trkpt>
      <trkpt lat="47.745212763547897" lon="11.465299157425761">
        <ele>708.080000000000041</ele>
        <time>2015-07-20T11:16:06Z</time>
      </trkpt>
      <trkpt lat="47.745079742744565" lon="11.465346934273839">
        <ele>708.990000000000009</ele>
        <time>2015-07-20T11:16:15Z</time>
      </trkpt>
      <trkpt lat="47.745015034452081" lon="11.465361518785357">
        <ele>708.889999999999986</ele>
        <time>2015-07-20T11:16:18Z</time>
      </trkpt>
      <trkpt lat="47.744775312021375" lon="11.465418515726924">
        <ele>712</ele>
        <time>2015-07-20T11:16:31Z</time>
      </trkpt>
      <trkpt lat="47.744568279013038" lon="11.465458329766989">
        <ele>714.080000000000041</ele>
        <time>2015-07-20T11:16:44Z</time>
      </trkpt>
      <trkpt lat="47.744438359513879" lon="11.465551033616066">
        <ele>715.100000000000023</ele>
        <time>2015-07-20T11:16:53Z</time>
      </trkpt>
      <trkpt lat="47.744416566565633" lon="11.465573916211724">
        <ele>715.120000000000005</ele>
        <time>2015-07-20T11:16:54Z</time>
      </trkpt>
      <trkpt lat="47.744331741705537" lon="11.46567047573626">
        <ele>715.07000000000005</ele>
        <time>2015-07-20T11:16:57Z</time>
      </trkpt>
      <trkpt lat="47.744302237406373" lon="11.465700566768646">
        <ele>714.909999999999968</ele>
        <time>2015-07-20T11:16:58Z</time>
      </trkpt>
      <trkpt lat="47.744277510792017" lon="11.465731579810381">
        <ele>715.299999999999955</ele>
        <time>2015-07-20T11:16:59Z</time>
      </trkpt>
      <trkpt lat="47.744244737550616" lon="11.465761000290513">
        <ele>715.639999999999986</ele>
        <time>2015-07-20T11:17:01Z</time>
      </trkpt>
      <trkpt lat="47.744229733943939" lon="11.465782625600696">
        <ele>715.919999999999959</ele>
        <time>2015-07-20T11:17:04Z</time>
      </trkpt>
      <trkpt lat="47.744193524122238" lon="11.46586099639535">
        <ele>715.779999999999973</ele>
        <time>2015-07-20T11:17:10Z</time>
      </trkpt>
      <trkpt lat="47.744055641815066" lon="11.465903744101524">
        <ele>716.580000000000041</ele>
        <time>2015-07-20T11:17:33Z</time>
      </trkpt>
      <trkpt lat="47.743844585493207" lon="11.466094683855772">
        <ele>718.92999999999995</ele>
        <time>2015-07-20T11:17:49Z</time>
      </trkpt>
      <trkpt lat="47.743701757863164" lon="11.466267518699169">
        <ele>720.980000000000018</ele>
        <time>2015-07-20T11:18:02Z</time>
      </trkpt>
      <trkpt lat="47.743692705407739" lon="11.466304482892156">
        <ele>721.42999999999995</ele>
        <time>2015-07-20T11:18:05Z</time>
      </trkpt>
      <trkpt lat="47.743627661839128" lon="11.466293083503842">
        <ele>722.42999999999995</ele>
        <time>2015-07-20T11:18:13Z</time>
      </trkpt>
      <trkpt lat="47.74337662383914" lon="11.466376148164272">
        <ele>723.710000000000036</ele>
        <time>2015-07-20T11:18:30Z</time>
      </trkpt>
      <trkpt lat="47.743211248889565" lon="11.466429457068443">
        <ele>725.330000000000041</ele>
        <time>2015-07-20T11:18:44Z</time>
      </trkpt>
      <trkpt lat="47.743075042963028" lon="11.466492237523198">
        <ele>724.139999999999986</ele>
        <time>2015-07-20T11:18:59Z</time>
      </trkpt>
      <trkpt lat="47.743055513128638" lon="11.466603800654411">
        <ele>723.450000000000045</ele>
        <time>2015-07-20T11:19:36Z</time>
      </trkpt>
      <trkpt lat="47.742967838421464" lon="11.466545211151242">
        <ele>725.649999999999977</ele>
        <time>2015-07-20T11:19:57Z</time>
      </trkpt>
      <trkpt lat="47.742816461250186" lon="11.466527190059423">
        <ele>728.720000000000027</ele>
        <time>2015-07-20T11:20:17Z</time>
      </trkpt>
      <trkpt lat="47.742595430463552" lon="11.466570608317852">
        <ele>730.779999999999973</ele>
        <time>2015-07-20T11:20:36Z</time>
      </trkpt>
      <trkpt lat="47.742398539558053" lon="11.466628611087799">
        <ele>731</ele>
        <time>2015-07-20T11:20:58Z</time>
      </trkpt>
      <trkpt lat="47.742194356396794" lon="11.466664485633373">
        <ele>734.220000000000027</ele>
        <time>2015-07-20T11:21:17Z</time>
      </trkpt>
      <trkpt lat="47.742170887067914" lon="11.466668676584959">
        <ele>734.309999999999945</ele>
        <time>2015-07-20T11:21:23Z</time>
      </trkpt>
      <trkpt lat="47.74206418544054" lon="11.466738497838378">
        <ele>733.990000000000009</ele>
        <time>2015-07-20T11:21:51Z</time>
      </trkpt>
      <trkpt lat="47.741920351982117" lon="11.466785939410329">
        <ele>734.870000000000005</ele>
        <time>2015-07-20T11:22:14Z</time>
      </trkpt>
      <trkpt lat="47.741815242916346" lon="11.466763978824019">
        <ele>736.779999999999973</ele>
        <time>2015-07-20T11:22:30Z</time>
      </trkpt>
      <trkpt lat="47.741789929568768" lon="11.466640681028366">
        <ele>736.980000000000018</ele>
        <time>2015-07-20T11:22:56Z</time>
      </trkpt>
      <trkpt lat="47.741693621501327" lon="11.466555101796985">
        <ele>740.279999999999973</ele>
        <time>2015-07-20T11:23:11Z</time>
      </trkpt>
      <trkpt lat="47.741472674533725" lon="11.466475808992982">
        <ele>742.049999999999955</ele>
        <time>2015-07-20T11:23:30Z</time>
      </trkpt>
      <trkpt lat="47.741383155807853" lon="11.466429037973285">
        <ele>743.210000000000036</ele>
        <time>2015-07-20T11:23:48Z</time>
      </trkpt>
      <trkpt lat="47.741140751168132" lon="11.466419650241733">
        <ele>746.220000000000027</ele>
        <time>2015-07-20T11:24:06Z</time>
      </trkpt>
      <trkpt lat="47.740982668474317" lon="11.466307919472456">
        <ele>748.620000000000005</ele>
        <time>2015-07-20T11:24:26Z</time>
      </trkpt>
      <trkpt lat="47.741025080904365" lon="11.466200463473797">
        <ele>748.07000000000005</ele>
        <time>2015-07-20T11:24:42Z</time>
      </trkpt>
      <trkpt lat="47.741017201915383" lon="11.466263746842742">
        <ele>748.700000000000045</ele>
        <time>2015-07-20T11:24:48Z</time>
      </trkpt>
      <trkpt lat="47.74097353219986" lon="11.466367095708847">
        <ele>749.25</ele>
        <time>2015-07-20T11:24:55Z</time>
      </trkpt>
      <trkpt lat="47.740961210802197" lon="11.466393498703837">
        <ele>749.629999999999995</ele>
        <time>2015-07-20T11:24:57Z</time>
      </trkpt>
      <trkpt lat="47.740817880257964" lon="11.466505480930209">
        <ele>751.57000000000005</ele>
        <time>2015-07-20T11:25:10Z</time>
      </trkpt>
      <trkpt lat="47.740606991574168" lon="11.46668141707778">
        <ele>753.710000000000036</ele>
        <time>2015-07-20T11:25:29Z</time>
      </trkpt>
      <trkpt lat="47.740410352125764" lon="11.466847714036703">
        <ele>757.039999999999964</ele>
        <time>2015-07-20T11:25:48Z</time>
      </trkpt>
      <trkpt lat="47.740330472588539" lon="11.466970257461071">
        <ele>757.639999999999986</ele>
        <time>2015-07-20T11:25:58Z</time>
      </trkpt>
      <trkpt lat="47.740291748195887" lon="11.467023231089115">
        <ele>758.100000000000023</ele>
        <time>2015-07-20T11:26:01Z</time>
      </trkpt>
      <trkpt lat="47.740255622193217" lon="11.467081820592284">
        <ele>759.210000000000036</ele>
        <time>2015-07-20T11:26:05Z</time>
      </trkpt>
      <trkpt lat="47.740251515060663" lon="11.467210566624999">
        <ele>760.600000000000023</ele>
        <time>2015-07-20T11:26:14Z</time>
      </trkpt>
      <trkpt lat="47.740266770124435" lon="11.467273430898786">
        <ele>761.129999999999995</ele>
        <time>2015-07-20T11:26:20Z</time>
      </trkpt>
      <trkpt lat="47.74029141291976" lon="11.467374432832003">
        <ele>762.529999999999973</ele>
        <time>2015-07-20T11:26:27Z</time>
      </trkpt>
      <trkpt lat="47.740366430953145" lon="11.467621782794595">
        <ele>765.279999999999973</ele>
        <time>2015-07-20T11:26:43Z</time>
      </trkpt>
      <trkpt lat="47.740466007962823" lon="11.467948844656348">
        <ele>767.850000000000023</ele>
        <time>2015-07-20T11:27:01Z</time>
      </trkpt>
      <trkpt lat="47.740498697385192" lon="11.468016905710101">
        <ele>768.149999999999977</ele>
        <time>2015-07-20T11:27:06Z</time>
      </trkpt>
      <trkpt lat="47.740514371544123" lon="11.468137186020613">
        <ele>768.25</ele>
        <time>2015-07-20T11:27:17Z</time>
      </trkpt>
      <trkpt lat="47.740556951612234" lon="11.468244809657335">
        <ele>767.950000000000045</ele>
        <time>2015-07-20T11:27:22Z</time>
      </trkpt>
      <trkpt lat="47.740570362657309" lon="11.468269117176533">
        <ele>767.850000000000023</ele>
        <time>2015-07-20T11:27:23Z</time>
      </trkpt>
      <trkpt lat="47.740768510848284" lon="11.468542702496052">
        <ele>767.639999999999986</ele>
        <time>2015-07-20T11:27:34Z</time>
      </trkpt>
      <trkpt lat="47.741038240492344" lon="11.468836991116405">
        <ele>768.490000000000009</ele>
        <time>2015-07-20T11:27:45Z</time>
      </trkpt>
      <trkpt lat="47.741105379536748" lon="11.469041425734758">
        <ele>769.460000000000036</ele>
        <time>2015-07-20T11:27:55Z</time>
      </trkpt>
      <trkpt lat="47.741109067574143" lon="11.469283327460289">
        <ele>771.289999999999964</ele>
        <time>2015-07-20T11:28:05Z</time>
      </trkpt>
      <trkpt lat="47.741093393415213" lon="11.469354322180152">
        <ele>771.840000000000032</ele>
        <time>2015-07-20T11:28:08Z</time>
      </trkpt>
      <trkpt lat="47.741099009290338" lon="11.469371756538749">
        <ele>772.019999999999982</ele>
        <time>2015-07-20T11:28:09Z</time>
      </trkpt>
      <trkpt lat="47.741098506376147" lon="11.469397069886327">
        <ele>772.57000000000005</ele>
        <time>2015-07-20T11:28:10Z</time>
      </trkpt>
      <trkpt lat="47.741102194413543" lon="11.469419114291668">
        <ele>772.57000000000005</ele>
        <time>2015-07-20T11:28:11Z</time>
      </trkpt>
      <trkpt lat="47.741103619337082" lon="11.46944266743958">
        <ele>772.909999999999968</ele>
        <time>2015-07-20T11:28:12Z</time>
      </trkpt>
      <trkpt lat="47.741106720641255" lon="11.469465214759111">
        <ele>773.07000000000005</ele>
        <time>2015-07-20T11:28:13Z</time>
      </trkpt>
      <trkpt lat="47.741142008453608" lon="11.469565043225884">
        <ele>774.649999999999977</ele>
        <time>2015-07-20T11:28:19Z</time>
      </trkpt>
      <trkpt lat="47.74114703759551" lon="11.469581471756101">
        <ele>774.519999999999982</ele>
        <time>2015-07-20T11:28:20Z</time>
      </trkpt>
      <trkpt lat="47.741182576864958" lon="11.469791522249579">
        <ele>776.809999999999945</ele>
        <time>2015-07-20T11:28:29Z</time>
      </trkpt>
      <trkpt lat="47.741187857463956" lon="11.469817087054253">
        <ele>776.67999999999995</ele>
        <time>2015-07-20T11:28:30Z</time>
      </trkpt>
      <trkpt lat="47.741194646805525" lon="11.469840221107006">
        <ele>776.879999999999995</ele>
        <time>2015-07-20T11:28:31Z</time>
      </trkpt>
      <trkpt lat="47.741201352328062" lon="11.469863103702664">
        <ele>776.879999999999995</ele>
        <time>2015-07-20T11:28:32Z</time>
      </trkpt>
      <trkpt lat="47.741207219660282" lon="11.469882717356086">
        <ele>777.190000000000055</ele>
        <time>2015-07-20T11:28:33Z</time>
      </trkpt>
      <trkpt lat="47.741211159154773" lon="11.469903504475951">
        <ele>777.399999999999977</ele>
        <time>2015-07-20T11:28:34Z</time>
      </trkpt>
      <trkpt lat="47.741241753101349" lon="11.470030741766095">
        <ele>778.580000000000041</ele>
        <time>2015-07-20T11:28:40Z</time>
      </trkpt>
      <trkpt lat="47.741249799728394" lon="11.470048176124692">
        <ele>778.879999999999995</ele>
        <time>2015-07-20T11:28:41Z</time>
      </trkpt>
      <trkpt lat="47.741303527727723" lon="11.47044874727726">
        <ele>779.399999999999977</ele>
        <time>2015-07-20T11:28:59Z</time>
      </trkpt>
      <trkpt lat="47.741276957094669" lon="11.470904722809792">
        <ele>778.970000000000027</ele>
        <time>2015-07-20T11:29:14Z</time>
      </trkpt>
      <trkpt lat="47.741277124732733" lon="11.470929197967052">
        <ele>778.889999999999986</ele>
        <time>2015-07-20T11:29:15Z</time>
      </trkpt>
      <trkpt lat="47.741294475272298" lon="11.471141846850514">
        <ele>780.019999999999982</ele>
        <time>2015-07-20T11:29:25Z</time>
      </trkpt>
      <trkpt lat="47.741299672052264" lon="11.471453066915274">
        <ele>782.269999999999982</ele>
        <time>2015-07-20T11:29:38Z</time>
      </trkpt>
      <trkpt lat="47.741305287927389" lon="11.471474273130298">
        <ele>782.190000000000055</ele>
        <time>2015-07-20T11:29:39Z</time>
      </trkpt>
      <trkpt lat="47.741312077268958" lon="11.471496485173702">
        <ele>782.889999999999986</ele>
        <time>2015-07-20T11:29:40Z</time>
      </trkpt>
      <trkpt lat="47.741315346211195" lon="11.471518697217107">
        <ele>782.879999999999995</ele>
        <time>2015-07-20T11:29:41Z</time>
      </trkpt>
      <trkpt lat="47.741316519677639" lon="11.471539651975036">
        <ele>783.169999999999959</ele>
        <time>2015-07-20T11:29:42Z</time>
      </trkpt>
      <trkpt lat="47.741310400888324" lon="11.471595475450158">
        <ele>783.730000000000018</ele>
        <time>2015-07-20T11:29:45Z</time>
      </trkpt>
      <trkpt lat="47.741305204108357" lon="11.471614083275199">
        <ele>783.75</ele>
        <time>2015-07-20T11:29:46Z</time>
      </trkpt>
      <trkpt lat="47.741299420595169" lon="11.47163369692862">
        <ele>783.759999999999991</ele>
        <time>2015-07-20T11:29:47Z</time>
      </trkpt>
      <trkpt lat="47.741291373968124" lon="11.471650376915932">
        <ele>784.110000000000014</ele>
        <time>2015-07-20T11:29:48Z</time>
      </trkpt>
      <trkpt lat="47.741285087540746" lon="11.47166789509356">
        <ele>784.299999999999955</ele>
        <time>2015-07-20T11:29:49Z</time>
      </trkpt>
      <trkpt lat="47.741278801113367" lon="11.47169035859406">
        <ele>784.960000000000036</ele>
        <time>2015-07-20T11:29:50Z</time>
      </trkpt>
      <trkpt lat="47.7412701677531" lon="11.471731681376696">
        <ele>785.580000000000041</ele>
        <time>2015-07-20T11:29:52Z</time>
      </trkpt>
      <trkpt lat="47.741261618211865" lon="11.471837544813752">
        <ele>786</ele>
        <time>2015-07-20T11:30:05Z</time>
      </trkpt>
      <trkpt lat="47.741247704252601" lon="11.471892949193716">
        <ele>786.259999999999991</ele>
        <time>2015-07-20T11:30:09Z</time>
      </trkpt>
      <trkpt lat="47.741222642362118" lon="11.472009206190705">
        <ele>787.629999999999995</ele>
        <time>2015-07-20T11:30:25Z</time>
      </trkpt>
      <trkpt lat="47.741192970424891" lon="11.472042482346296">
        <ele>787.360000000000014</ele>
        <time>2015-07-20T11:30:34Z</time>
      </trkpt>
      <trkpt lat="47.741187689825892" lon="11.472060335800052">
        <ele>787.639999999999986</ele>
        <time>2015-07-20T11:30:35Z</time>
      </trkpt>
      <trkpt lat="47.741186181083322" lon="11.472078440710902">
        <ele>787.610000000000014</ele>
        <time>2015-07-20T11:30:36Z</time>
      </trkpt>
      <trkpt lat="47.741184588521719" lon="11.472096629440784">
        <ele>787.850000000000023</ele>
        <time>2015-07-20T11:30:37Z</time>
      </trkpt>
      <trkpt lat="47.741180565208197" lon="11.47211255505681">
        <ele>788.330000000000041</ele>
        <time>2015-07-20T11:30:38Z</time>
      </trkpt>
      <trkpt lat="47.741175619885325" lon="11.472129402682185">
        <ele>787.970000000000027</ele>
        <time>2015-07-20T11:30:39Z</time>
      </trkpt>
      <trkpt lat="47.741172267124057" lon="11.472147088497877">
        <ele>788.42999999999995</ele>
        <time>2015-07-20T11:30:40Z</time>
      </trkpt>
      <trkpt lat="47.741171596571803" lon="11.472165696322918">
        <ele>788.419999999999959</ele>
        <time>2015-07-20T11:30:41Z</time>
      </trkpt>
      <trkpt lat="47.741171009838581" lon="11.472185142338276">
        <ele>788.75</ele>
        <time>2015-07-20T11:30:42Z</time>
      </trkpt>
      <trkpt lat="47.741167657077312" lon="11.47220148704946">
        <ele>788.490000000000009</ele>
        <time>2015-07-20T11:30:43Z</time>
      </trkpt>
      <trkpt lat="47.74116556160152" lon="11.472219256684184">
        <ele>788.669999999999959</ele>
        <time>2015-07-20T11:30:44Z</time>
      </trkpt>
      <trkpt lat="47.74116413667798" lon="11.472237193956971">
        <ele>788.409999999999968</ele>
        <time>2015-07-20T11:30:45Z</time>
      </trkpt>
      <trkpt lat="47.741162208840251" lon="11.472256472334266">
        <ele>788.279999999999973</ele>
        <time>2015-07-20T11:30:46Z</time>
      </trkpt>
      <trkpt lat="47.741148797795177" lon="11.472310116514564">
        <ele>789.120000000000005</ele>
        <time>2015-07-20T11:30:49Z</time>
      </trkpt>
      <trkpt lat="47.741139912977815" lon="11.472327131778002">
        <ele>788.990000000000009</ele>
        <time>2015-07-20T11:30:50Z</time>
      </trkpt>
      <trkpt lat="47.741136392578483" lon="11.472345571964979">
        <ele>789.610000000000014</ele>
        <time>2015-07-20T11:30:51Z</time>
      </trkpt>
      <trkpt lat="47.741137482225895" lon="11.472365269437432">
        <ele>789.92999999999995</ele>
        <time>2015-07-20T11:30:52Z</time>
      </trkpt>
      <trkpt lat="47.741138320416212" lon="11.472384547814727">
        <ele>789.970000000000027</ele>
        <time>2015-07-20T11:30:53Z</time>
      </trkpt>
      <trkpt lat="47.741127759218216" lon="11.472578924149275">
        <ele>791.470000000000027</ele>
        <time>2015-07-20T11:31:09Z</time>
      </trkpt>
      <trkpt lat="47.741132285445929" lon="11.472627706825733">
        <ele>791.57000000000005</ele>
        <time>2015-07-20T11:31:19Z</time>
      </trkpt>
      <trkpt lat="47.741142930462956" lon="11.472693337127566">
        <ele>791.740000000000009</ele>
        <time>2015-07-20T11:31:23Z</time>
      </trkpt>
      <trkpt lat="47.741144942119718" lon="11.472714794799685">
        <ele>791.909999999999968</ele>
        <time>2015-07-20T11:31:24Z</time>
      </trkpt>
      <trkpt lat="47.741142679005861" lon="11.472740527242422">
        <ele>792.860000000000014</ele>
        <time>2015-07-20T11:31:25Z</time>
      </trkpt>
      <trkpt lat="47.741140080615878" lon="11.47276776842773">
        <ele>792.620000000000005</ele>
        <time>2015-07-20T11:31:26Z</time>
      </trkpt>
      <trkpt lat="47.741136727854609" lon="11.472792830318213">
        <ele>792.789999999999964</ele>
        <time>2015-07-20T11:31:27Z</time>
      </trkpt>
      <trkpt lat="47.741134213283658" lon="11.472818311303854">
        <ele>792.970000000000027</ele>
        <time>2015-07-20T11:31:28Z</time>
      </trkpt>
      <trkpt lat="47.741132201626897" lon="11.472844043746591">
        <ele>793.440000000000055</ele>
        <time>2015-07-20T11:31:29Z</time>
      </trkpt>
      <trkpt lat="47.741130441427231" lon="11.47286650724709">
        <ele>793.409999999999968</ele>
        <time>2015-07-20T11:31:30Z</time>
      </trkpt>
      <trkpt lat="47.741130106151104" lon="11.472891820594668">
        <ele>793.57000000000005</ele>
        <time>2015-07-20T11:31:31Z</time>
      </trkpt>
      <trkpt lat="47.741128178313375" lon="11.472914451733232">
        <ele>793.559999999999945</ele>
        <time>2015-07-20T11:31:32Z</time>
      </trkpt>
      <trkpt lat="47.741129016503692" lon="11.47293733432889">
        <ele>793.899999999999977</ele>
        <time>2015-07-20T11:31:33Z</time>
      </trkpt>
      <trkpt lat="47.741135219112039" lon="11.472963150590658">
        <ele>794.470000000000027</ele>
        <time>2015-07-20T11:31:34Z</time>
      </trkpt>
      <trkpt lat="47.741141673177481" lon="11.472987039014697">
        <ele>794.519999999999982</ele>
        <time>2015-07-20T11:31:35Z</time>
      </trkpt>
      <trkpt lat="47.741146702319384" lon="11.4730145316571">
        <ele>795.110000000000014</ele>
        <time>2015-07-20T11:31:36Z</time>
      </trkpt>
      <trkpt lat="47.741150641813874" lon="11.473042108118534">
        <ele>795.019999999999982</ele>
        <time>2015-07-20T11:31:37Z</time>
      </trkpt>
      <trkpt lat="47.741160616278648" lon="11.47306046448648">
        <ele>795.090000000000032</ele>
        <time>2015-07-20T11:31:38Z</time>
      </trkpt>
      <trkpt lat="47.741166735067964" lon="11.473083011806011">
        <ele>795.340000000000032</ele>
        <time>2015-07-20T11:31:39Z</time>
      </trkpt>
      <trkpt lat="47.74116950109601" lon="11.473109163343906">
        <ele>795.42999999999995</ele>
        <time>2015-07-20T11:31:40Z</time>
      </trkpt>
      <trkpt lat="47.741256840527058" lon="11.473512165248394">
        <ele>798.139999999999986</ele>
        <time>2015-07-20T11:31:58Z</time>
      </trkpt>
      <trkpt lat="47.741256672888994" lon="11.473827660083771">
        <ele>801.149999999999977</ele>
        <time>2015-07-20T11:32:11Z</time>
      </trkpt>
      <trkpt lat="47.741258181631565" lon="11.474075429141521">
        <ele>801.700000000000045</ele>
        <time>2015-07-20T11:32:26Z</time>
      </trkpt>
      <trkpt lat="47.741258852183819" lon="11.474093617871404">
        <ele>801.889999999999986</ele>
        <time>2015-07-20T11:32:27Z</time>
      </trkpt>
      <trkpt lat="47.741266144439578" lon="11.474121361970901">
        <ele>801.92999999999995</ele>
        <time>2015-07-20T11:32:29Z</time>
      </trkpt>
      <trkpt lat="47.741304785013199" lon="11.474184477701783">
        <ele>802.269999999999982</ele>
        <time>2015-07-20T11:32:49Z</time>
      </trkpt>
      <trkpt lat="47.741323141381145" lon="11.474231164902449">
        <ele>802.889999999999986</ele>
        <time>2015-07-20T11:32:53Z</time>
      </trkpt>
      <trkpt lat="47.74132682941854" lon="11.474250527098775">
        <ele>802.789999999999964</ele>
        <time>2015-07-20T11:32:54Z</time>
      </trkpt>
      <trkpt lat="47.741329343989491" lon="11.474268967285752">
        <ele>803.450000000000045</ele>
        <time>2015-07-20T11:32:55Z</time>
      </trkpt>
      <trkpt lat="47.741331942379475" lon="11.474289167672396">
        <ele>802.67999999999995</ele>
        <time>2015-07-20T11:32:56Z</time>
      </trkpt>
      <trkpt lat="47.741336636245251" lon="11.474309368059039">
        <ele>803.350000000000023</ele>
        <time>2015-07-20T11:32:57Z</time>
      </trkpt>
      <trkpt lat="47.741436380892992" lon="11.474690157920122">
        <ele>806.990000000000009</ele>
        <time>2015-07-20T11:33:20Z</time>
      </trkpt>
      <trkpt lat="47.74145289324224" lon="11.474755369126797">
        <ele>807.470000000000027</ele>
        <time>2015-07-20T11:33:24Z</time>
      </trkpt>
      <trkpt lat="47.741586333140731" lon="11.475049490109086">
        <ele>809.470000000000027</ele>
        <time>2015-07-20T11:33:44Z</time>
      </trkpt>
      <trkpt lat="47.741616759449244" lon="11.475241268053651">
        <ele>811.539999999999964</ele>
        <time>2015-07-20T11:33:56Z</time>
      </trkpt>
      <trkpt lat="47.741615166887641" lon="11.475258367136121">
        <ele>811.700000000000045</ele>
        <time>2015-07-20T11:33:57Z</time>
      </trkpt>
      <trkpt lat="47.741617765277624" lon="11.475274208933115">
        <ele>811.850000000000023</ele>
        <time>2015-07-20T11:33:58Z</time>
      </trkpt>
      <trkpt lat="47.741622040048242" lon="11.47530572488904">
        <ele>812.419999999999959</ele>
        <time>2015-07-20T11:34:00Z</time>
      </trkpt>
      <trkpt lat="47.741617765277624" lon="11.475322237238288">
        <ele>812.799999999999955</ele>
        <time>2015-07-20T11:34:01Z</time>
      </trkpt>
      <trkpt lat="47.741611562669277" lon="11.475338162854314">
        <ele>812.450000000000045</ele>
        <time>2015-07-20T11:34:02Z</time>
      </trkpt>
      <trkpt lat="47.741608545184135" lon="11.475354004651308">
        <ele>812.669999999999959</ele>
        <time>2015-07-20T11:34:03Z</time>
      </trkpt>
      <trkpt lat="47.741607120260596" lon="11.475369678810239">
        <ele>812.840000000000032</ele>
        <time>2015-07-20T11:34:04Z</time>
      </trkpt>
      <trkpt lat="47.741607036441565" lon="11.475385688245296">
        <ele>813.580000000000041</ele>
        <time>2015-07-20T11:34:05Z</time>
      </trkpt>
      <trkpt lat="47.741603599861264" lon="11.475642342120409">
        <ele>816.200000000000045</ele>
        <time>2015-07-20T11:34:21Z</time>
      </trkpt>
      <trkpt lat="47.741602007299662" lon="11.47573521360755">
        <ele>817.350000000000023</ele>
        <time>2015-07-20T11:34:27Z</time>
      </trkpt>
      <trkpt lat="47.74160536006093" lon="11.475755497813225">
        <ele>817.259999999999991</ele>
        <time>2015-07-20T11:34:28Z</time>
      </trkpt>
      <trkpt lat="47.741604102775455" lon="11.475787684321404">
        <ele>817.919999999999959</ele>
        <time>2015-07-20T11:34:30Z</time>
      </trkpt>
      <trkpt lat="47.741595888510346" lon="11.475805537775159">
        <ele>817.92999999999995</ele>
        <time>2015-07-20T11:34:31Z</time>
      </trkpt>
      <trkpt lat="47.741593373939395" lon="11.475821128115058">
        <ele>818.07000000000005</ele>
        <time>2015-07-20T11:34:32Z</time>
      </trkpt>
      <trkpt lat="47.741558840498328" lon="11.476036626845598">
        <ele>820.509999999999991</ele>
        <time>2015-07-20T11:34:47Z</time>
      </trkpt>
      <trkpt lat="47.741549871861935" lon="11.476107286289334">
        <ele>820.970000000000027</ele>
        <time>2015-07-20T11:34:51Z</time>
      </trkpt>
      <trkpt lat="47.741540735587478" lon="11.476139472797513">
        <ele>821.240000000000009</ele>
        <time>2015-07-20T11:34:53Z</time>
      </trkpt>
      <trkpt lat="47.741538137197495" lon="11.476156571879983">
        <ele>821.220000000000027</ele>
        <time>2015-07-20T11:34:54Z</time>
      </trkpt>
      <trkpt lat="47.741535622626543" lon="11.476176772266626">
        <ele>822.019999999999982</ele>
        <time>2015-07-20T11:34:55Z</time>
      </trkpt>
      <trkpt lat="47.741541573777795" lon="11.476266207173467">
        <ele>821.909999999999968</ele>
        <time>2015-07-20T11:35:00Z</time>
      </trkpt>
      <trkpt lat="47.741543753072619" lon="11.476285820826888">
        <ele>822.110000000000014</ele>
        <time>2015-07-20T11:35:01Z</time>
      </trkpt>
      <trkpt lat="47.741544004529715" lon="11.476304428651929">
        <ele>822.289999999999964</ele>
        <time>2015-07-20T11:35:02Z</time>
      </trkpt>
      <trkpt lat="47.741545764729381" lon="11.476323623210192">
        <ele>822.639999999999986</ele>
        <time>2015-07-20T11:35:03Z</time>
      </trkpt>
      <trkpt lat="47.741528246551752" lon="11.476548342034221">
        <ele>825.019999999999982</ele>
        <time>2015-07-20T11:35:17Z</time>
      </trkpt>
      <trkpt lat="47.741529503837228" lon="11.476567033678293">
        <ele>824.980000000000018</ele>
        <time>2015-07-20T11:35:18Z</time>
      </trkpt>
      <trkpt lat="47.741532856598496" lon="11.476610032841563">
        <ele>825.399999999999977</ele>
        <time>2015-07-20T11:35:21Z</time>
      </trkpt>
      <trkpt lat="47.741532437503338" lon="11.476625958457589">
        <ele>825.460000000000036</ele>
        <time>2015-07-20T11:35:22Z</time>
      </trkpt>
      <trkpt lat="47.741529168561101" lon="11.476644733920693">
        <ele>825.460000000000036</ele>
        <time>2015-07-20T11:35:23Z</time>
      </trkpt>
      <trkpt lat="47.741526234894991" lon="11.476777335628867">
        <ele>826.379999999999995</ele>
        <time>2015-07-20T11:35:30Z</time>
      </trkpt>
      <trkpt lat="47.741522630676627" lon="11.476798877120018">
        <ele>826.42999999999995</ele>
        <time>2015-07-20T11:35:31Z</time>
      </trkpt>
      <trkpt lat="47.741537634283304" lon="11.476953523233533">
        <ele>826.889999999999986</ele>
        <time>2015-07-20T11:35:43Z</time>
      </trkpt>
      <trkpt lat="47.741536628454924" lon="11.476986212655902">
        <ele>827.059999999999945</ele>
        <time>2015-07-20T11:35:45Z</time>
      </trkpt>
      <trkpt lat="47.741510141640902" lon="11.477087633684278">
        <ele>828.139999999999986</ele>
        <time>2015-07-20T11:36:00Z</time>
      </trkpt>
      <trkpt lat="47.741517182439566" lon="11.477145720273256">
        <ele>827.879999999999995</ele>
        <time>2015-07-20T11:36:30Z</time>
      </trkpt>
      <trkpt lat="47.741515589877963" lon="11.477177320048213">
        <ele>827.789999999999964</ele>
        <time>2015-07-20T11:36:32Z</time>
      </trkpt>
      <trkpt lat="47.741513075307012" lon="11.477194922044873">
        <ele>827.899999999999977</ele>
        <time>2015-07-20T11:36:33Z</time>
      </trkpt>
      <trkpt lat="47.741510728374124" lon="11.477213278412819">
        <ele>828.169999999999959</ele>
        <time>2015-07-20T11:36:34Z</time>
      </trkpt>
      <trkpt lat="47.741508716717362" lon="11.477232472971082">
        <ele>828.399999999999977</ele>
        <time>2015-07-20T11:36:35Z</time>
      </trkpt>
      <trkpt lat="47.741509890183806" lon="11.477252002805471">
        <ele>828.220000000000027</ele>
        <time>2015-07-20T11:36:36Z</time>
      </trkpt>
      <trkpt lat="47.741514751687646" lon="11.477348813787103">
        <ele>828.980000000000018</ele>
        <time>2015-07-20T11:36:47Z</time>
      </trkpt>
      <trkpt lat="47.741509303450584" lon="11.477377060800791">
        <ele>829.32000000000005</ele>
        <time>2015-07-20T11:36:49Z</time>
      </trkpt>
      <trkpt lat="47.741504525765777" lon="11.477450234815478">
        <ele>829.580000000000041</ele>
        <time>2015-07-20T11:36:52Z</time>
      </trkpt>
      <trkpt lat="47.741504441946745" lon="11.477475296705961">
        <ele>829.830000000000041</ele>
        <time>2015-07-20T11:36:53Z</time>
      </trkpt>
      <trkpt lat="47.741479212418199" lon="11.477885004132986">
        <ele>831.830000000000041</ele>
        <time>2015-07-20T11:37:09Z</time>
      </trkpt>
      <trkpt lat="47.741331942379475" lon="11.47819010540843">
        <ele>833.389999999999986</ele>
        <time>2015-07-20T11:37:24Z</time>
      </trkpt>
      <trkpt lat="47.741203615441918" lon="11.478508366271853">
        <ele>834.769999999999982</ele>
        <time>2015-07-20T11:37:39Z</time>
      </trkpt>
      <trkpt lat="47.741192802786827" lon="11.47890055552125">
        <ele>836.190000000000055</ele>
        <time>2015-07-20T11:37:55Z</time>
      </trkpt>
      <trkpt lat="47.741321800276637" lon="11.47923868149519">
        <ele>834.299999999999955</ele>
        <time>2015-07-20T11:38:03Z</time>
      </trkpt>
      <trkpt lat="47.741326242685318" lon="11.4793158788234">
        <ele>834.080000000000041</ele>
        <time>2015-07-20T11:38:04Z</time>
      </trkpt>
      <trkpt lat="47.741319118067622" lon="11.479400787502527">
        <ele>833.649999999999977</ele>
        <time>2015-07-20T11:38:05Z</time>
      </trkpt>
      <trkpt lat="47.74127310141921" lon="11.479808147996664">
        <ele>831.080000000000041</ele>
        <time>2015-07-20T11:38:09Z</time>
      </trkpt>
      <trkpt lat="47.741276537999511" lon="11.479914849624038">
        <ele>830.980000000000018</ele>
        <time>2015-07-20T11:38:10Z</time>
      </trkpt>
      <trkpt lat="47.741287769749761" lon="11.48001903668046">
        <ele>830.909999999999968</ele>
        <time>2015-07-20T11:38:11Z</time>
      </trkpt>
      <trkpt lat="47.741359435021877" lon="11.480468390509486">
        <ele>828.419999999999959</ele>
        <time>2015-07-20T11:38:15Z</time>
      </trkpt>
      <trkpt lat="47.741393717005849" lon="11.480578361079097">
        <ele>828.289999999999964</ele>
        <time>2015-07-20T11:38:16Z</time>
      </trkpt>
      <trkpt lat="47.741493377834558" lon="11.480884552001953">
        <ele>828.480000000000018</ele>
        <time>2015-07-20T11:38:19Z</time>
      </trkpt>
      <trkpt lat="47.741511566564441" lon="11.48098211735487">
        <ele>828.809999999999945</ele>
        <time>2015-07-20T11:38:20Z</time>
      </trkpt>
      <trkpt lat="47.741517266258597" lon="11.481070965528488">
        <ele>828.639999999999986</ele>
        <time>2015-07-20T11:38:21Z</time>
      </trkpt>
      <trkpt lat="47.741513242945075" lon="11.48114874958992">
        <ele>829.009999999999991</ele>
        <time>2015-07-20T11:38:22Z</time>
      </trkpt>
      <trkpt lat="47.741503603756428" lon="11.481218989938498">
        <ele>828.990000000000009</ele>
        <time>2015-07-20T11:38:23Z</time>
      </trkpt>
      <trkpt lat="47.741394219920039" lon="11.481553595513105">
        <ele>831.269999999999982</ele>
        <time>2015-07-20T11:38:33Z</time>
      </trkpt>
      <trkpt lat="47.741298750042915" lon="11.481954585760832">
        <ele>832.25</ele>
        <time>2015-07-20T11:38:49Z</time>
      </trkpt>
      <trkpt lat="47.741423221305013" lon="11.482342919334769">
        <ele>835.279999999999973</ele>
        <time>2015-07-20T11:39:05Z</time>
      </trkpt>
      <trkpt lat="47.741530006751418" lon="11.482761176303029">
        <ele>836.159999999999968</ele>
        <time>2015-07-20T11:39:22Z</time>
      </trkpt>
      <trkpt lat="47.741291709244251" lon="11.482957815751433">
        <ele>836.809999999999945</ele>
        <time>2015-07-20T11:39:34Z</time>
      </trkpt>
      <trkpt lat="47.741093393415213" lon="11.483196783810854">
        <ele>839.289999999999964</ele>
        <time>2015-07-20T11:39:49Z</time>
      </trkpt>
      <trkpt lat="47.740963557735085" lon="11.483568856492639">
        <ele>838.669999999999959</ele>
        <time>2015-07-20T11:40:04Z</time>
      </trkpt>
      <trkpt lat="47.740961629897356" lon="11.483604311943054">
        <ele>838.950000000000045</ele>
        <time>2015-07-20T11:40:08Z</time>
      </trkpt>
      <trkpt lat="47.740976801142097" lon="11.483725514262915">
        <ele>838.090000000000032</ele>
        <time>2015-07-20T11:40:14Z</time>
      </trkpt>
      <trkpt lat="47.740984428673983" lon="11.48376390337944">
        <ele>838.029999999999973</ele>
        <time>2015-07-20T11:40:15Z</time>
      </trkpt>
      <trkpt lat="47.741199675947428" lon="11.484440909698606">
        <ele>835.100000000000023</ele>
        <time>2015-07-20T11:40:28Z</time>
      </trkpt>
      <trkpt lat="47.741291793063283" lon="11.484679374843836">
        <ele>833.639999999999986</ele>
        <time>2015-07-20T11:40:37Z</time>
      </trkpt>
      <trkpt lat="47.741326075047255" lon="11.484799487516284">
        <ele>832.759999999999991</ele>
        <time>2015-07-20T11:40:40Z</time>
      </trkpt>
      <trkpt lat="47.741338144987822" lon="11.484862519428134">
        <ele>832.350000000000023</ele>
        <time>2015-07-20T11:40:41Z</time>
      </trkpt>
      <trkpt lat="47.741342084482312" lon="11.484932843595743">
        <ele>831.460000000000036</ele>
        <time>2015-07-20T11:40:42Z</time>
      </trkpt>
      <trkpt lat="47.741336971521378" lon="11.485005766153336">
        <ele>831.200000000000045</ele>
        <time>2015-07-20T11:40:43Z</time>
      </trkpt>
      <trkpt lat="47.741318615153432" lon="11.485076677054167">
        <ele>831.009999999999991</ele>
        <time>2015-07-20T11:40:44Z</time>
      </trkpt>
      <trkpt lat="47.741289110854268" lon="11.485142223536968">
        <ele>830.950000000000045</ele>
        <time>2015-07-20T11:40:45Z</time>
      </trkpt>
      <trkpt lat="47.741250386461616" lon="11.485200980678201">
        <ele>830.580000000000041</ele>
        <time>2015-07-20T11:40:46Z</time>
      </trkpt>
      <trkpt lat="47.741207722574472" lon="11.485257223248482">
        <ele>830.07000000000005</ele>
        <time>2015-07-20T11:40:47Z</time>
      </trkpt>
      <trkpt lat="47.741160281002522" lon="11.485307179391384">
        <ele>830.139999999999986</ele>
        <time>2015-07-20T11:40:48Z</time>
      </trkpt>
      <trkpt lat="47.741108061745763" lon="11.485351854935288">
        <ele>830.17999999999995</ele>
        <time>2015-07-20T11:40:49Z</time>
      </trkpt>
      <trkpt lat="47.741051148623228" lon="11.485387980937958">
        <ele>829.529999999999973</ele>
        <time>2015-07-20T11:40:50Z</time>
      </trkpt>
      <trkpt lat="47.7409921400249" lon="11.485414216294885">
        <ele>829.67999999999995</ele>
        <time>2015-07-20T11:40:51Z</time>
      </trkpt>
      <trkpt lat="47.740937154740095" lon="11.485437182709575">
        <ele>829.590000000000032</ele>
        <time>2015-07-20T11:40:52Z</time>
      </trkpt>
      <trkpt lat="47.740637753158808" lon="11.485607838258147">
        <ele>831.330000000000041</ele>
        <time>2015-07-20T11:41:02Z</time>
      </trkpt>
      <trkpt lat="47.740328293293715" lon="11.485737338662148">
        <ele>832.039999999999964</ele>
        <time>2015-07-20T11:41:17Z</time>
      </trkpt>
      <trkpt lat="47.740215724334121" lon="11.48576726205647">
        <ele>835.259999999999991</ele>
        <time>2015-07-20T11:41:26Z</time>
      </trkpt>
      <trkpt lat="47.740199547261" lon="11.485768267884851">
        <ele>835.370000000000005</ele>
        <time>2015-07-20T11:41:27Z</time>
      </trkpt>
      <trkpt lat="47.740033166483045" lon="11.485695848241448">
        <ele>838.149999999999977</ele>
        <time>2015-07-20T11:41:39Z</time>
      </trkpt>
      <trkpt lat="47.739954544231296" lon="11.485717473551631">
        <ele>838.480000000000018</ele>
        <time>2015-07-20T11:41:50Z</time>
      </trkpt>
      <trkpt lat="47.739918166771531" lon="11.485758209601045">
        <ele>838.340000000000032</ele>
        <time>2015-07-20T11:42:10Z</time>
      </trkpt>
      <trkpt lat="47.739870306104422" lon="11.485766842961311">
        <ele>838.860000000000014</ele>
        <time>2015-07-20T11:42:27Z</time>
      </trkpt>
      <trkpt lat="47.739813141524792" lon="11.485674222931266">
        <ele>840.340000000000032</ele>
        <time>2015-07-20T11:42:43Z</time>
      </trkpt>
      <trkpt lat="47.739750444889069" lon="11.485647400841117">
        <ele>840.899999999999977</ele>
        <time>2015-07-20T11:42:55Z</time>
      </trkpt>
      <trkpt lat="47.739666039124131" lon="11.485616639256477">
        <ele>842.490000000000009</ele>
        <time>2015-07-20T11:43:03Z</time>
      </trkpt>
      <trkpt lat="47.739658830687404" lon="11.485619992017746">
        <ele>842.690000000000055</ele>
        <time>2015-07-20T11:43:04Z</time>
      </trkpt>
      <trkpt lat="47.739649526774883" lon="11.485618986189365">
        <ele>842.190000000000055</ele>
        <time>2015-07-20T11:43:05Z</time>
      </trkpt>
      <trkpt lat="47.739638881757855" lon="11.485616136342287">
        <ele>842.559999999999945</ele>
        <time>2015-07-20T11:43:06Z</time>
      </trkpt>
      <trkpt lat="47.73963519372046" lon="11.485615968704224">
        <ele>842.639999999999986</ele>
        <time>2015-07-20T11:43:07Z</time>
      </trkpt>
      <trkpt lat="47.739625219255686" lon="11.485611191019416">
        <ele>842.830000000000041</ele>
        <time>2015-07-20T11:43:08Z</time>
      </trkpt>
      <trkpt lat="47.739457413554192" lon="11.485592164099216">
        <ele>846.350000000000023</ele>
        <time>2015-07-20T11:43:24Z</time>
      </trkpt>
      <trkpt lat="47.739312574267387" lon="11.485603395849466">
        <ele>849.529999999999973</ele>
        <time>2015-07-20T11:43:39Z</time>
      </trkpt>
      <trkpt lat="47.739203777164221" lon="11.485595349222422">
        <ele>851.990000000000009</ele>
        <time>2015-07-20T11:43:54Z</time>
      </trkpt>
      <trkpt lat="47.739171339198947" lon="11.485583866015077">
        <ele>852.210000000000036</ele>
        <time>2015-07-20T11:43:57Z</time>
      </trkpt>
      <trkpt lat="47.739127753302455" lon="11.485555032268167">
        <ele>852.720000000000027</ele>
        <time>2015-07-20T11:44:01Z</time>
      </trkpt>
      <trkpt lat="47.739027170464396" lon="11.485481355339289">
        <ele>854.299999999999955</ele>
        <time>2015-07-20T11:44:22Z</time>
      </trkpt>
      <trkpt lat="47.738993810489774" lon="11.485461741685867">
        <ele>855.149999999999977</ele>
        <time>2015-07-20T11:44:26Z</time>
      </trkpt>
      <trkpt lat="47.738914852961898" lon="11.48539979942143">
        <ele>857.220000000000027</ele>
        <time>2015-07-20T11:44:36Z</time>
      </trkpt>
      <trkpt lat="47.738852826878428" lon="11.48533676750958">
        <ele>858.240000000000009</ele>
        <time>2015-07-20T11:44:45Z</time>
      </trkpt>
      <trkpt lat="47.738843187689781" lon="11.485327379778028">
        <ele>858.769999999999982</ele>
        <time>2015-07-20T11:44:46Z</time>
      </trkpt>
      <trkpt lat="47.738764062523842" lon="11.48528303951025">
        <ele>859.879999999999995</ele>
        <time>2015-07-20T11:44:57Z</time>
      </trkpt>
      <trkpt lat="47.738753668963909" lon="11.485275914892554">
        <ele>860.25</ele>
        <time>2015-07-20T11:44:58Z</time>
      </trkpt>
      <trkpt lat="47.738744700327516" lon="11.485266610980034">
        <ele>860.299999999999955</ele>
        <time>2015-07-20T11:44:59Z</time>
      </trkpt>
      <trkpt lat="47.738733720034361" lon="11.485257055610418">
        <ele>860.720000000000027</ele>
        <time>2015-07-20T11:45:00Z</time>
      </trkpt>
      <trkpt lat="47.738723158836365" lon="11.485248757526278">
        <ele>860.720000000000027</ele>
        <time>2015-07-20T11:45:01Z</time>
      </trkpt>
      <trkpt lat="47.738527106121182" lon="11.485183462500572">
        <ele>863.460000000000036</ele>
        <time>2015-07-20T11:45:17Z</time>
      </trkpt>
      <trkpt lat="47.738478071987629" lon="11.485242052003741">
        <ele>863.799999999999955</ele>
        <time>2015-07-20T11:45:32Z</time>
      </trkpt>
      <trkpt lat="47.738442197442055" lon="11.485276585444808">
        <ele>864.289999999999964</ele>
        <time>2015-07-20T11:45:36Z</time>
      </trkpt>
      <trkpt lat="47.738432977348566" lon="11.485295193269849">
        <ele>864.259999999999991</ele>
        <time>2015-07-20T11:45:38Z</time>
      </trkpt>
      <trkpt lat="47.738399114459753" lon="11.485376749187708">
        <ele>863.940000000000055</ele>
        <time>2015-07-20T11:45:42Z</time>
      </trkpt>
      <trkpt lat="47.738377153873444" lon="11.485545728355646">
        <ele>863.42999999999995</ele>
        <time>2015-07-20T11:45:50Z</time>
      </trkpt>
      <trkpt lat="47.738383188843727" lon="11.485771033912897">
        <ele>866.659999999999968</ele>
        <time>2015-07-20T11:46:07Z</time>
      </trkpt>
      <trkpt lat="47.738426942378283" lon="11.485853428021073">
        <ele>867.519999999999982</ele>
        <time>2015-07-20T11:46:14Z</time>
      </trkpt>
      <trkpt lat="47.738466337323189" lon="11.485926350578666">
        <ele>868.690000000000055</ele>
        <time>2015-07-20T11:46:19Z</time>
      </trkpt>
      <trkpt lat="47.738474970683455" lon="11.485941940918565">
        <ele>868.809999999999945</ele>
        <time>2015-07-20T11:46:20Z</time>
      </trkpt>
      <trkpt lat="47.738505396991968" lon="11.486012851819396">
        <ele>869.139999999999986</ele>
        <time>2015-07-20T11:46:30Z</time>
      </trkpt>
      <trkpt lat="47.738547222688794" lon="11.486045541241765">
        <ele>869.440000000000055</ele>
        <time>2015-07-20T11:46:33Z</time>
      </trkpt>
      <trkpt lat="47.738559963181615" lon="11.486060880124569">
        <ele>869.700000000000045</ele>
        <time>2015-07-20T11:46:34Z</time>
      </trkpt>
      <trkpt lat="47.738743359223008" lon="11.486368998885155">
        <ele>870.480000000000018</ele>
        <time>2015-07-20T11:46:49Z</time>
      </trkpt>
      <trkpt lat="47.738901861011982" lon="11.486658677458763">
        <ele>871.82000000000005</ele>
        <time>2015-07-20T11:47:03Z</time>
      </trkpt>
      <trkpt lat="47.738949721679091" lon="11.486704526469111">
        <ele>872.509999999999991</ele>
        <time>2015-07-20T11:47:07Z</time>
      </trkpt>
      <trkpt lat="47.738960618153214" lon="11.486717350780964">
        <ele>872.580000000000041</ele>
        <time>2015-07-20T11:47:08Z</time>
      </trkpt>
      <trkpt lat="47.738967323675752" lon="11.486730678007007">
        <ele>872.379999999999995</ele>
        <time>2015-07-20T11:47:09Z</time>
      </trkpt>
      <trkpt lat="47.73897260427475" lon="11.486748615279794">
        <ele>872.82000000000005</ele>
        <time>2015-07-20T11:47:10Z</time>
      </trkpt>
      <trkpt lat="47.738978639245033" lon="11.486766133457422">
        <ele>872.889999999999986</ele>
        <time>2015-07-20T11:47:11Z</time>
      </trkpt>
      <trkpt lat="47.738985093310475" lon="11.486789686605334">
        <ele>873.049999999999955</ele>
        <time>2015-07-20T11:47:12Z</time>
      </trkpt>
      <trkpt lat="47.738991295918822" lon="11.486820783466101">
        <ele>873.120000000000005</ele>
        <time>2015-07-20T11:47:13Z</time>
      </trkpt>
      <trkpt lat="47.738996241241693" lon="11.486842073500156">
        <ele>873.57000000000005</ele>
        <time>2015-07-20T11:47:14Z</time>
      </trkpt>
      <trkpt lat="47.739007137715816" lon="11.486865039914846">
        <ele>873.529999999999973</ele>
        <time>2015-07-20T11:47:15Z</time>
      </trkpt>
      <trkpt lat="47.739018118008971" lon="11.486883144825697">
        <ele>874.059999999999945</ele>
        <time>2015-07-20T11:47:16Z</time>
      </trkpt>
      <trkpt lat="47.739029349759221" lon="11.486896807327867">
        <ele>873.740000000000009</ele>
        <time>2015-07-20T11:47:17Z</time>
      </trkpt>
      <trkpt lat="47.739042341709137" lon="11.486908793449402">
        <ele>873.659999999999968</ele>
        <time>2015-07-20T11:47:18Z</time>
      </trkpt>
      <trkpt lat="47.73915583267808" lon="11.487174080684781">
        <ele>875.399999999999977</ele>
        <time>2015-07-20T11:47:31Z</time>
      </trkpt>
      <trkpt lat="47.739160694181919" lon="11.48719796910882">
        <ele>875.240000000000009</ele>
        <time>2015-07-20T11:47:32Z</time>
      </trkpt>
      <trkpt lat="47.739217020571232" lon="11.487618153914809">
        <ele>876.639999999999986</ele>
        <time>2015-07-20T11:47:47Z</time>
      </trkpt>
      <trkpt lat="47.739439392462373" lon="11.487863073125482">
        <ele>878</ele>
        <time>2015-07-20T11:48:02Z</time>
      </trkpt>
      <trkpt lat="47.739538718014956" lon="11.487942282110453">
        <ele>879.830000000000041</ele>
        <time>2015-07-20T11:48:15Z</time>
      </trkpt>
      <trkpt lat="47.739644329994917" lon="11.488100029528141">
        <ele>882.899999999999977</ele>
        <time>2015-07-20T11:48:31Z</time>
      </trkpt>
      <trkpt lat="47.739640139043331" lon="11.488273786380887">
        <ele>885.960000000000036</ele>
        <time>2015-07-20T11:48:46Z</time>
      </trkpt>
      <trkpt lat="47.739575766026974" lon="11.488494481891394">
        <ele>888.419999999999959</ele>
        <time>2015-07-20T11:49:06Z</time>
      </trkpt>
      <trkpt lat="47.739564618095756" lon="11.48854561150074">
        <ele>888.07000000000005</ele>
        <time>2015-07-20T11:49:29Z</time>
      </trkpt>
      <trkpt lat="47.739655142650008" lon="11.488711489364505">
        <ele>891.07000000000005</ele>
        <time>2015-07-20T11:49:50Z</time>
      </trkpt>
      <trkpt lat="47.739692442119122" lon="11.488757925108075">
        <ele>891.639999999999986</ele>
        <time>2015-07-20T11:49:54Z</time>
      </trkpt>
      <trkpt lat="47.739730663597584" lon="11.488782651722431">
        <ele>891.980000000000018</ele>
        <time>2015-07-20T11:50:08Z</time>
      </trkpt>
      <trkpt lat="47.73975639604032" lon="11.488822214305401">
        <ele>892.009999999999991</ele>
        <time>2015-07-20T11:50:32Z</time>
      </trkpt>
      <trkpt lat="47.739805765450001" lon="11.488981135189533">
        <ele>894.279999999999973</ele>
        <time>2015-07-20T11:50:51Z</time>
      </trkpt>
      <trkpt lat="47.739826552569866" lon="11.489036120474339">
        <ele>895.470000000000027</ele>
        <time>2015-07-20T11:50:55Z</time>
      </trkpt>
      <trkpt lat="47.739847674965858" lon="11.48910216987133">
        <ele>895.850000000000023</ele>
        <time>2015-07-20T11:51:00Z</time>
      </trkpt>
      <trkpt lat="47.739852285012603" lon="11.489184899255633">
        <ele>895.799999999999955</ele>
        <time>2015-07-20T11:51:08Z</time>
      </trkpt>
      <trkpt lat="47.739868042990565" lon="11.489339545369148">
        <ele>896.629999999999995</ele>
        <time>2015-07-20T11:51:17Z</time>
      </trkpt>
      <trkpt lat="47.739850860089064" lon="11.489557307213545">
        <ele>898.379999999999995</ele>
        <time>2015-07-20T11:51:27Z</time>
      </trkpt>
      <trkpt lat="47.739782463759184" lon="11.489805914461613">
        <ele>900.139999999999986</ele>
        <time>2015-07-20T11:51:40Z</time>
      </trkpt>
      <trkpt lat="47.739769974723458" lon="11.489834412932396">
        <ele>900.789999999999964</ele>
        <time>2015-07-20T11:51:42Z</time>
      </trkpt>
      <trkpt lat="47.739739967510104" lon="11.489895768463612">
        <ele>901.980000000000018</ele>
        <time>2015-07-20T11:51:47Z</time>
      </trkpt>
      <trkpt lat="47.739730915054679" lon="11.489991489797831">
        <ele>901.590000000000032</ele>
        <time>2015-07-20T11:52:01Z</time>
      </trkpt>
      <trkpt lat="47.739632176235318" lon="11.49017765186727">
        <ele>904.730000000000018</ele>
        <time>2015-07-20T11:52:15Z</time>
      </trkpt>
      <trkpt lat="47.73958439938724" lon="11.490557687357068">
        <ele>906.059999999999945</ele>
        <time>2015-07-20T11:52:30Z</time>
      </trkpt>
      <trkpt lat="47.739619100466371" lon="11.490872427821159">
        <ele>906.549999999999955</ele>
        <time>2015-07-20T11:52:42Z</time>
      </trkpt>
      <trkpt lat="47.739705434069037" lon="11.49117736145854">
        <ele>908.110000000000014</ele>
        <time>2015-07-20T11:52:54Z</time>
      </trkpt>
      <trkpt lat="47.739864103496075" lon="11.491565443575382">
        <ele>907.299999999999955</ele>
        <time>2015-07-20T11:53:05Z</time>
      </trkpt>
      <trkpt lat="47.739781038835645" lon="11.491909017786384">
        <ele>904.360000000000014</ele>
        <time>2015-07-20T11:53:11Z</time>
      </trkpt>
      <trkpt lat="47.739756228402257" lon="11.492114793509245">
        <ele>902.029999999999973</ele>
        <time>2015-07-20T11:53:14Z</time>
      </trkpt>
      <trkpt lat="47.739758910611272" lon="11.49218738079071">
        <ele>901.019999999999982</ele>
        <time>2015-07-20T11:53:15Z</time>
      </trkpt>
      <trkpt lat="47.739781038835645" lon="11.492414027452469">
        <ele>898.92999999999995</ele>
        <time>2015-07-20T11:53:18Z</time>
      </trkpt>
      <trkpt lat="47.739767879247665" lon="11.492531038820744">
        <ele>898.990000000000009</ele>
        <time>2015-07-20T11:53:20Z</time>
      </trkpt>
      <trkpt lat="47.739755054935813" lon="11.49256213568151">
        <ele>898.720000000000027</ele>
        <time>2015-07-20T11:53:21Z</time>
      </trkpt>
      <trkpt lat="47.739742062985897" lon="11.492587113752961">
        <ele>898.67999999999995</ele>
        <time>2015-07-20T11:53:22Z</time>
      </trkpt>
      <trkpt lat="47.739733848720789" lon="11.492621228098869">
        <ele>899.559999999999945</ele>
        <time>2015-07-20T11:53:23Z</time>
      </trkpt>
      <trkpt lat="47.739726807922125" lon="11.492653330788016">
        <ele>898.769999999999982</ele>
        <time>2015-07-20T11:53:24Z</time>
      </trkpt>
      <trkpt lat="47.739718928933144" lon="11.492678225040436">
        <ele>899.200000000000045</ele>
        <time>2015-07-20T11:53:25Z</time>
      </trkpt>
      <trkpt lat="47.739713648334146" lon="11.492705382406712">
        <ele>899.740000000000009</ele>
        <time>2015-07-20T11:53:26Z</time>
      </trkpt>
      <trkpt lat="47.73970752954483" lon="11.492738323286176">
        <ele>900.519999999999982</ele>
        <time>2015-07-20T11:53:27Z</time>
      </trkpt>
      <trkpt lat="47.739702332764864" lon="11.492771180346608">
        <ele>900.450000000000045</ele>
        <time>2015-07-20T11:53:28Z</time>
      </trkpt>
      <trkpt lat="47.739622369408607" lon="11.493334611877799">
        <ele>902.700000000000045</ele>
        <time>2015-07-20T11:53:44Z</time>
      </trkpt>
      <trkpt lat="47.739588087424636" lon="11.493619428947568">
        <ele>904.730000000000018</ele>
        <time>2015-07-20T11:53:55Z</time>
      </trkpt>
      <trkpt lat="47.739582220092416" lon="11.493639377877116">
        <ele>904.899999999999977</ele>
        <time>2015-07-20T11:53:56Z</time>
      </trkpt>
      <trkpt lat="47.739577777683735" lon="11.493662847205997">
        <ele>904.669999999999959</ele>
        <time>2015-07-20T11:53:57Z</time>
      </trkpt>
      <trkpt lat="47.739571575075388" lon="11.493687573820353">
        <ele>905.009999999999991</ele>
        <time>2015-07-20T11:53:58Z</time>
      </trkpt>
      <trkpt lat="47.739570988342166" lon="11.493716239929199">
        <ele>904.759999999999991</ele>
        <time>2015-07-20T11:53:59Z</time>
      </trkpt>
      <trkpt lat="47.739567970857024" lon="11.493742140009999">
        <ele>905.25</ele>
        <time>2015-07-20T11:54:00Z</time>
      </trkpt>
      <trkpt lat="47.739610215649009" lon="11.494098789989948">
        <ele>906.860000000000014</ele>
        <time>2015-07-20T11:54:15Z</time>
      </trkpt>
      <trkpt lat="47.739624967798591" lon="11.494287215173244">
        <ele>908.32000000000005</ele>
        <time>2015-07-20T11:54:23Z</time>
      </trkpt>
      <trkpt lat="47.739631840959191" lon="11.494312444701791">
        <ele>908.220000000000027</ele>
        <time>2015-07-20T11:54:24Z</time>
      </trkpt>
      <trkpt lat="47.739635026082397" lon="11.494334070011973">
        <ele>908.470000000000027</ele>
        <time>2015-07-20T11:54:25Z</time>
      </trkpt>
      <trkpt lat="47.739634355530143" lon="11.494355360046029">
        <ele>908.460000000000036</ele>
        <time>2015-07-20T11:54:26Z</time>
      </trkpt>
      <trkpt lat="47.739639384672046" lon="11.494378242641687">
        <ele>909.039999999999964</ele>
        <time>2015-07-20T11:54:27Z</time>
      </trkpt>
      <trkpt lat="47.739643240347505" lon="11.494400957599282">
        <ele>909.17999999999995</ele>
        <time>2015-07-20T11:54:28Z</time>
      </trkpt>
      <trkpt lat="47.739648101851344" lon="11.494420990347862">
        <ele>909.419999999999959</ele>
        <time>2015-07-20T11:54:29Z</time>
      </trkpt>
      <trkpt lat="47.739651035517454" lon="11.494435993954539">
        <ele>909.309999999999945</ele>
        <time>2015-07-20T11:54:30Z</time>
      </trkpt>
      <trkpt lat="47.739650281146169" lon="11.494449153542519">
        <ele>909.240000000000009</ele>
        <time>2015-07-20T11:54:31Z</time>
      </trkpt>
      <trkpt lat="47.739646257832646" lon="11.494463570415974">
        <ele>909.360000000000014</ele>
        <time>2015-07-20T11:54:32Z</time>
      </trkpt>
      <trkpt lat="47.739659417420626" lon="11.49455526843667">
        <ele>910.42999999999995</ele>
        <time>2015-07-20T11:54:37Z</time>
      </trkpt>
      <trkpt lat="47.739665871486068" lon="11.494580581784248">
        <ele>910.480000000000018</ele>
        <time>2015-07-20T11:54:38Z</time>
      </trkpt>
      <trkpt lat="47.739756479859352" lon="11.494927844032645">
        <ele>911.690000000000055</ele>
        <time>2015-07-20T11:54:52Z</time>
      </trkpt>
      <trkpt lat="47.73984532803297" lon="11.495234621688724">
        <ele>913.67999999999995</ele>
        <time>2015-07-20T11:55:06Z</time>
      </trkpt>
      <trkpt lat="47.739870557561517" lon="11.495278961956501">
        <ele>914.720000000000027</ele>
        <time>2015-07-20T11:55:09Z</time>
      </trkpt>
      <trkpt lat="47.739876173436642" lon="11.495301173999906">
        <ele>914.690000000000055</ele>
        <time>2015-07-20T11:55:10Z</time>
      </trkpt>
      <trkpt lat="47.739918502047658" lon="11.495453473180532">
        <ele>915.649999999999977</ele>
        <time>2015-07-20T11:55:17Z</time>
      </trkpt>
      <trkpt lat="47.739928141236305" lon="11.495474595576525">
        <ele>916.139999999999986</ele>
        <time>2015-07-20T11:55:18Z</time>
      </trkpt>
      <trkpt lat="47.739934762939811" lon="11.495497561991215">
        <ele>916.25</ele>
        <time>2015-07-20T11:55:19Z</time>
      </trkpt>
      <trkpt lat="47.739949095994234" lon="11.495746420696378">
        <ele>917.690000000000055</ele>
        <time>2015-07-20T11:55:29Z</time>
      </trkpt>
      <trkpt lat="47.739947754889727" lon="11.495768968015909">
        <ele>917.919999999999959</ele>
        <time>2015-07-20T11:55:30Z</time>
      </trkpt>
      <trkpt lat="47.739934595301747" lon="11.495851362124085">
        <ele>918.590000000000032</ele>
        <time>2015-07-20T11:55:34Z</time>
      </trkpt>
      <trkpt lat="47.739929985255003" lon="11.49587357416749">
        <ele>918.919999999999959</ele>
        <time>2015-07-20T11:55:35Z</time>
      </trkpt>
      <trkpt lat="47.739922776818275" lon="11.495888829231262">
        <ele>918.799999999999955</ele>
        <time>2015-07-20T11:55:36Z</time>
      </trkpt>
      <trkpt lat="47.739916993305087" lon="11.495902743190527">
        <ele>918.92999999999995</ele>
        <time>2015-07-20T11:55:37Z</time>
      </trkpt>
      <trkpt lat="47.739909533411264" lon="11.495920177549124">
        <ele>918.919999999999959</ele>
        <time>2015-07-20T11:55:38Z</time>
      </trkpt>
      <trkpt lat="47.739847591146827" lon="11.496021682396531">
        <ele>919.549999999999955</ele>
        <time>2015-07-20T11:55:45Z</time>
      </trkpt>
      <trkpt lat="47.739840717986226" lon="11.496032830327749">
        <ele>919.840000000000032</ele>
        <time>2015-07-20T11:55:46Z</time>
      </trkpt>
      <trkpt lat="47.739820182323456" lon="11.496070632711053">
        <ele>919.960000000000036</ele>
        <time>2015-07-20T11:55:48Z</time>
      </trkpt>
      <trkpt lat="47.739721108227968" lon="11.496230559423566">
        <ele>920.960000000000036</ele>
        <time>2015-07-20T11:56:06Z</time>
      </trkpt>
      <trkpt lat="47.739639300853014" lon="11.496284706518054">
        <ele>922.17999999999995</ele>
        <time>2015-07-20T11:56:13Z</time>
      </trkpt>
      <trkpt lat="47.739512901753187" lon="11.496400125324726">
        <ele>924.059999999999945</ele>
        <time>2015-07-20T11:56:25Z</time>
      </trkpt>
      <trkpt lat="47.739303102716804" lon="11.496548233553767">
        <ele>926.909999999999968</ele>
        <time>2015-07-20T11:56:44Z</time>
      </trkpt>
      <trkpt lat="47.739152479916811" lon="11.496635489165783">
        <ele>929.450000000000045</ele>
        <time>2015-07-20T11:56:57Z</time>
      </trkpt>
      <trkpt lat="47.7391426730901" lon="11.496644793078303">
        <ele>929.610000000000014</ele>
        <time>2015-07-20T11:56:58Z</time>
      </trkpt>
      <trkpt lat="47.739127920940518" lon="11.496657785028219">
        <ele>929.620000000000005</ele>
        <time>2015-07-20T11:56:59Z</time>
      </trkpt>
      <trkpt lat="47.739117611199617" lon="11.496667005121708">
        <ele>929.549999999999955</ele>
        <time>2015-07-20T11:57:00Z</time>
      </trkpt>
      <trkpt lat="47.739110486581922" lon="11.496683098375797">
        <ele>929.67999999999995</ele>
        <time>2015-07-20T11:57:01Z</time>
      </trkpt>
      <trkpt lat="47.739102356135845" lon="11.496697850525379">
        <ele>929.899999999999977</ele>
        <time>2015-07-20T11:57:02Z</time>
      </trkpt>
      <trkpt lat="47.739091962575912" lon="11.496710507199168">
        <ele>929.75</ele>
        <time>2015-07-20T11:57:03Z</time>
      </trkpt>
      <trkpt lat="47.739082826301455" lon="11.496720565482974">
        <ele>929.789999999999964</ele>
        <time>2015-07-20T11:57:04Z</time>
      </trkpt>
      <trkpt lat="47.738995067775249" lon="11.496907314285636">
        <ele>931.659999999999968</ele>
        <time>2015-07-20T11:57:17Z</time>
      </trkpt>
      <trkpt lat="47.738982746377587" lon="11.496943775564432">
        <ele>931.019999999999982</ele>
        <time>2015-07-20T11:57:19Z</time>
      </trkpt>
      <trkpt lat="47.738995822146535" lon="11.496977554634213">
        <ele>931.720000000000027</ele>
        <time>2015-07-20T11:57:32Z</time>
      </trkpt>
      <trkpt lat="47.739005209878087" lon="11.497101942077279">
        <ele>932.220000000000027</ele>
        <time>2015-07-20T11:57:53Z</time>
      </trkpt>
      <trkpt lat="47.739021889865398" lon="11.497173858806491">
        <ele>933.009999999999991</ele>
        <time>2015-07-20T11:58:06Z</time>
      </trkpt>
      <trkpt lat="47.739020548760891" lon="11.497212164103985">
        <ele>933.370000000000005</ele>
        <time>2015-07-20T11:58:08Z</time>
      </trkpt>
      <trkpt lat="47.73901853710413" lon="11.49723244830966">
        <ele>933.549999999999955</ele>
        <time>2015-07-20T11:58:09Z</time>
      </trkpt>
      <trkpt lat="47.73901853710413" lon="11.497257174924016">
        <ele>933.909999999999968</ele>
        <time>2015-07-20T11:58:10Z</time>
      </trkpt>
      <trkpt lat="47.739017866551876" lon="11.497282655909657">
        <ele>933.950000000000045</ele>
        <time>2015-07-20T11:58:11Z</time>
      </trkpt>
      <trkpt lat="47.739017028361559" lon="11.497305873781443">
        <ele>934.220000000000027</ele>
        <time>2015-07-20T11:58:12Z</time>
      </trkpt>
      <trkpt lat="47.739019626751542" lon="11.49732917547226">
        <ele>934.370000000000005</ele>
        <time>2015-07-20T11:58:13Z</time>
      </trkpt>
      <trkpt lat="47.739024655893445" lon="11.497352225705981">
        <ele>934.529999999999973</ele>
        <time>2015-07-20T11:58:14Z</time>
      </trkpt>
      <trkpt lat="47.739028595387936" lon="11.497375443577766">
        <ele>934.580000000000041</ele>
        <time>2015-07-20T11:58:15Z</time>
      </trkpt>
      <trkpt lat="47.739033289253712" lon="11.497396733611822">
        <ele>934.559999999999945</ele>
        <time>2015-07-20T11:58:16Z</time>
      </trkpt>
      <trkpt lat="47.739102691411972" lon="11.49770057760179">
        <ele>937.100000000000023</ele>
        <time>2015-07-20T11:58:31Z</time>
      </trkpt>
      <trkpt lat="47.73915390484035" lon="11.498005343601108">
        <ele>939.970000000000027</ele>
        <time>2015-07-20T11:58:46Z</time>
      </trkpt>
      <trkpt lat="47.739135716110468" lon="11.498367357999086">
        <ele>942.029999999999973</ele>
        <time>2015-07-20T11:59:01Z</time>
      </trkpt>
      <trkpt lat="47.73913630284369" lon="11.498391414061189">
        <ele>942.32000000000005</ele>
        <time>2015-07-20T11:59:02Z</time>
      </trkpt>
      <trkpt lat="47.739132447168231" lon="11.498414129018784">
        <ele>942.649999999999977</ele>
        <time>2015-07-20T11:59:03Z</time>
      </trkpt>
      <trkpt lat="47.739130016416311" lon="11.498436592519283">
        <ele>942.759999999999991</ele>
        <time>2015-07-20T11:59:04Z</time>
      </trkpt>
      <trkpt lat="47.739131608977914" lon="11.498461905866861">
        <ele>942.850000000000023</ele>
        <time>2015-07-20T11:59:05Z</time>
      </trkpt>
      <trkpt lat="47.739131860435009" lon="11.498483782634139">
        <ele>942.350000000000023</ele>
        <time>2015-07-20T11:59:06Z</time>
      </trkpt>
      <trkpt lat="47.739129010587931" lon="11.498504485934973">
        <ele>943.230000000000018</ele>
        <time>2015-07-20T11:59:07Z</time>
      </trkpt>
      <trkpt lat="47.739127669483423" lon="11.498526614159346">
        <ele>943.090000000000032</ele>
        <time>2015-07-20T11:59:08Z</time>
      </trkpt>
      <trkpt lat="47.739116689190269" lon="11.498883012682199">
        <ele>945.190000000000055</ele>
        <time>2015-07-20T11:59:23Z</time>
      </trkpt>
      <trkpt lat="47.739152563735843" lon="11.499350974336267">
        <ele>948.440000000000055</ele>
        <time>2015-07-20T11:59:43Z</time>
      </trkpt>
      <trkpt lat="47.739209728315473" lon="11.499664122238755">
        <ele>949.169999999999959</ele>
        <time>2015-07-20T11:59:56Z</time>
      </trkpt>
      <trkpt lat="47.739274520426989" lon="11.499830922111869">
        <ele>951.210000000000036</ele>
        <time>2015-07-20T12:00:04Z</time>
      </trkpt>
      <trkpt lat="47.739304946735501" lon="11.499942904338241">
        <ele>951.200000000000045</ele>
        <time>2015-07-20T12:00:09Z</time>
      </trkpt>
      <trkpt lat="47.739335037767887" lon="11.500101992860436">
        <ele>952.240000000000009</ele>
        <time>2015-07-20T12:00:15Z</time>
      </trkpt>
      <trkpt lat="47.739335708320141" lon="11.500125462189317">
        <ele>952.42999999999995</ele>
        <time>2015-07-20T12:00:16Z</time>
      </trkpt>
      <trkpt lat="47.739335708320141" lon="11.500146919861436">
        <ele>952.549999999999955</ele>
        <time>2015-07-20T12:00:17Z</time>
      </trkpt>
      <trkpt lat="47.739335792139173" lon="11.500171311199665">
        <ele>952.779999999999973</ele>
        <time>2015-07-20T12:00:18Z</time>
      </trkpt>
      <trkpt lat="47.739338558167219" lon="11.500195367261767">
        <ele>952.850000000000023</ele>
        <time>2015-07-20T12:00:19Z</time>
      </trkpt>
      <trkpt lat="47.73934350349009" lon="11.500211544334888">
        <ele>952.990000000000009</ele>
        <time>2015-07-20T12:00:20Z</time>
      </trkpt>
      <trkpt lat="47.739344509318471" lon="11.500233253464103">
        <ele>953.090000000000032</ele>
        <time>2015-07-20T12:00:21Z</time>
      </trkpt>
      <trkpt lat="47.739347778260708" lon="11.500257644802332">
        <ele>953.110000000000014</ele>
        <time>2015-07-20T12:00:22Z</time>
      </trkpt>
      <trkpt lat="47.739347610622644" lon="11.500281784683466">
        <ele>953.07000000000005</ele>
        <time>2015-07-20T12:00:23Z</time>
      </trkpt>
      <trkpt lat="47.739346688613296" lon="11.500304499641061">
        <ele>953.230000000000018</ele>
        <time>2015-07-20T12:00:24Z</time>
      </trkpt>
      <trkpt lat="47.739347359165549" lon="11.500327801331878">
        <ele>953.360000000000014</ele>
        <time>2015-07-20T12:00:25Z</time>
      </trkpt>
      <trkpt lat="47.73934350349009" lon="11.500343140214682">
        <ele>953.279999999999973</ele>
        <time>2015-07-20T12:00:26Z</time>
      </trkpt>
      <trkpt lat="47.739337300881743" lon="11.50036308914423">
        <ele>952.980000000000018</ele>
        <time>2015-07-20T12:00:27Z</time>
      </trkpt>
      <trkpt lat="47.739313161000609" lon="11.500451182946563">
        <ele>953.110000000000014</ele>
        <time>2015-07-20T12:00:31Z</time>
      </trkpt>
      <trkpt lat="47.739226492121816" lon="11.500866590067744">
        <ele>954.149999999999977</ele>
        <time>2015-07-20T12:00:45Z</time>
      </trkpt>
      <trkpt lat="47.739197909832001" lon="11.501265065744519">
        <ele>955.080000000000041</ele>
        <time>2015-07-20T12:00:58Z</time>
      </trkpt>
      <trkpt lat="47.739146780222654" lon="11.501671252772212">
        <ele>957.490000000000009</ele>
        <time>2015-07-20T12:01:12Z</time>
      </trkpt>
      <trkpt lat="47.739133285358548" lon="11.50193209759891">
        <ele>958.220000000000027</ele>
        <time>2015-07-20T12:01:22Z</time>
      </trkpt>
      <trkpt lat="47.739107552915812" lon="11.502123540267348">
        <ele>959.330000000000041</ele>
        <time>2015-07-20T12:01:34Z</time>
      </trkpt>
      <trkpt lat="47.739112498238683" lon="11.502186739817262">
        <ele>960.299999999999955</ele>
        <time>2015-07-20T12:01:38Z</time>
      </trkpt>
      <trkpt lat="47.739111492410302" lon="11.502206437289715">
        <ele>960.620000000000005</ele>
        <time>2015-07-20T12:01:39Z</time>
      </trkpt>
      <trkpt lat="47.739111911505461" lon="11.502225296571851">
        <ele>960.730000000000018</ele>
        <time>2015-07-20T12:01:40Z</time>
      </trkpt>
      <trkpt lat="47.739123143255711" lon="11.502261254936457">
        <ele>960.92999999999995</ele>
        <time>2015-07-20T12:01:42Z</time>
      </trkpt>
      <trkpt lat="47.739132111892104" lon="11.502320850268006">
        <ele>961.240000000000009</ele>
        <time>2015-07-20T12:01:45Z</time>
      </trkpt>
      <trkpt lat="47.739143678918481" lon="11.502340044826269">
        <ele>961.340000000000032</ele>
        <time>2015-07-20T12:01:46Z</time>
      </trkpt>
      <trkpt lat="47.7392203733325" lon="11.50255705229938">
        <ele>963.769999999999982</ele>
        <time>2015-07-20T12:02:00Z</time>
      </trkpt>
      <trkpt lat="47.739219116047025" lon="11.50257658213377">
        <ele>963.950000000000045</ele>
        <time>2015-07-20T12:02:01Z</time>
      </trkpt>
      <trkpt lat="47.739227078855038" lon="11.502613630145788">
        <ele>964.350000000000023</ele>
        <time>2015-07-20T12:02:03Z</time>
      </trkpt>
      <trkpt lat="47.739233616739511" lon="11.502632657065988">
        <ele>964.509999999999991</ele>
        <time>2015-07-20T12:02:04Z</time>
      </trkpt>
      <trkpt lat="47.739235125482082" lon="11.502662748098373">
        <ele>964.710000000000036</ele>
        <time>2015-07-20T12:02:06Z</time>
      </trkpt>
      <trkpt lat="47.739237137138844" lon="11.502682361751795">
        <ele>965.17999999999995</ele>
        <time>2015-07-20T12:02:07Z</time>
      </trkpt>
      <trkpt lat="47.739241328090429" lon="11.502699377015233">
        <ele>964.850000000000023</ele>
        <time>2015-07-20T12:02:08Z</time>
      </trkpt>
      <trkpt lat="47.739246776327491" lon="11.502755116671324">
        <ele>965.440000000000055</ele>
        <time>2015-07-20T12:02:11Z</time>
      </trkpt>
      <trkpt lat="47.739245602861047" lon="11.502773137763143">
        <ele>965.870000000000005</ele>
        <time>2015-07-20T12:02:12Z</time>
      </trkpt>
      <trkpt lat="47.739238981157541" lon="11.502786632627249">
        <ele>966.600000000000023</ele>
        <time>2015-07-20T12:02:13Z</time>
      </trkpt>
      <trkpt lat="47.739152228459716" lon="11.503106653690338">
        <ele>968.75</ele>
        <time>2015-07-20T12:02:31Z</time>
      </trkpt>
      <trkpt lat="47.739069582894444" lon="11.50337646715343">
        <ele>970.960000000000036</ele>
        <time>2015-07-20T12:02:48Z</time>
      </trkpt>
      <trkpt lat="47.739067068323493" lon="11.50339943356812">
        <ele>970.850000000000023</ele>
        <time>2015-07-20T12:02:49Z</time>
      </trkpt>
      <trkpt lat="47.739064721390605" lon="11.503417538478971">
        <ele>970.960000000000036</ele>
        <time>2015-07-20T12:02:50Z</time>
      </trkpt>
      <trkpt lat="47.739060278981924" lon="11.503436649218202">
        <ele>971.539999999999964</ele>
        <time>2015-07-20T12:02:51Z</time>
      </trkpt>
      <trkpt lat="47.739051477983594" lon="11.503458190709352">
        <ele>971.639999999999986</ele>
        <time>2015-07-20T12:02:52Z</time>
      </trkpt>
      <trkpt lat="47.739044604822993" lon="11.503478810191154">
        <ele>971.809999999999945</ele>
        <time>2015-07-20T12:02:53Z</time>
      </trkpt>
      <trkpt lat="47.739040581509471" lon="11.503496244549751">
        <ele>971.759999999999991</ele>
        <time>2015-07-20T12:02:54Z</time>
      </trkpt>
      <trkpt lat="47.739039156585932" lon="11.503518624231219">
        <ele>972.480000000000018</ele>
        <time>2015-07-20T12:02:55Z</time>
      </trkpt>
      <trkpt lat="47.739037647843361" lon="11.503540920093656">
        <ele>972.490000000000009</ele>
        <time>2015-07-20T12:02:56Z</time>
      </trkpt>
      <trkpt lat="47.739027421921492" lon="11.503615183755755">
        <ele>973.289999999999964</ele>
        <time>2015-07-20T12:03:01Z</time>
      </trkpt>
      <trkpt lat="47.739023063331842" lon="11.503628008067608">
        <ele>973.450000000000045</ele>
        <time>2015-07-20T12:03:02Z</time>
      </trkpt>
      <trkpt lat="47.739015351980925" lon="11.503655249252915">
        <ele>973.440000000000055</ele>
        <time>2015-07-20T12:03:04Z</time>
      </trkpt>
      <trkpt lat="47.739013843238354" lon="11.503670671954751">
        <ele>973.840000000000032</ele>
        <time>2015-07-20T12:03:05Z</time>
      </trkpt>
      <trkpt lat="47.739012921229005" lon="11.503733955323696">
        <ele>974.289999999999964</ele>
        <time>2015-07-20T12:03:09Z</time>
      </trkpt>
      <trkpt lat="47.739010322839022" lon="11.503749378025532">
        <ele>974.409999999999968</ele>
        <time>2015-07-20T12:03:10Z</time>
      </trkpt>
      <trkpt lat="47.739005796611309" lon="11.503771422430873">
        <ele>974.529999999999973</ele>
        <time>2015-07-20T12:03:11Z</time>
      </trkpt>
      <trkpt lat="47.738978806883097" lon="11.504047522321343">
        <ele>977.159999999999968</ele>
        <time>2015-07-20T12:03:27Z</time>
      </trkpt>
      <trkpt lat="47.738966234028339" lon="11.50425598025322">
        <ele>978.950000000000045</ele>
        <time>2015-07-20T12:03:45Z</time>
      </trkpt>
      <trkpt lat="47.738966485485435" lon="11.504279114305973">
        <ele>979.57000000000005</ele>
        <time>2015-07-20T12:03:48Z</time>
      </trkpt>
      <trkpt lat="47.738965814933181" lon="11.504326974973083">
        <ele>979.57000000000005</ele>
        <time>2015-07-20T12:03:51Z</time>
      </trkpt>
      <trkpt lat="47.738963719457388" lon="11.50464347563684">
        <ele>982.610000000000014</ele>
        <time>2015-07-20T12:04:09Z</time>
      </trkpt>
      <trkpt lat="47.738968245685101" lon="11.504966095089912">
        <ele>984.389999999999986</ele>
        <time>2015-07-20T12:04:29Z</time>
      </trkpt>
      <trkpt lat="47.738995403051376" lon="11.50501579977572">
        <ele>984.549999999999955</ele>
        <time>2015-07-20T12:04:48Z</time>
      </trkpt>
      <trkpt lat="47.738972520455718" lon="11.505094757303596">
        <ele>985.799999999999955</ele>
        <time>2015-07-20T12:05:09Z</time>
      </trkpt>
      <trkpt lat="47.738974448293447" lon="11.505116969347">
        <ele>985.539999999999964</ele>
        <time>2015-07-20T12:05:10Z</time>
      </trkpt>
      <trkpt lat="47.738929772749543" lon="11.505574621260166">
        <ele>984.789999999999964</ele>
        <time>2015-07-20T12:05:23Z</time>
      </trkpt>
      <trkpt lat="47.738773031160235" lon="11.506109219044447">
        <ele>985.409999999999968</ele>
        <time>2015-07-20T12:05:37Z</time>
      </trkpt>
      <trkpt lat="47.738467594608665" lon="11.506220363080502">
        <ele>987.990000000000009</ele>
        <time>2015-07-20T12:05:51Z</time>
      </trkpt>
      <trkpt lat="47.738189483061433" lon="11.506237210705876">
        <ele>989.759999999999991</ele>
        <time>2015-07-20T12:06:06Z</time>
      </trkpt>
      <trkpt lat="47.738114465028048" lon="11.506253723055124">
        <ele>990.139999999999986</ele>
        <time>2015-07-20T12:06:12Z</time>
      </trkpt>
      <trkpt lat="47.738115470856428" lon="11.506276857107878">
        <ele>989.990000000000009</ele>
        <time>2015-07-20T12:06:37Z</time>
      </trkpt>
      <trkpt lat="47.73810968734324" lon="11.506258081644773">
        <ele>989.980000000000018</ele>
        <time>2015-07-20T12:06:59Z</time>
      </trkpt>
      <trkpt lat="47.73803592659533" lon="11.506246598437428">
        <ele>990.700000000000045</ele>
        <time>2015-07-20T12:07:06Z</time>
      </trkpt>
      <trkpt lat="47.737842220813036" lon="11.506184404715896">
        <ele>993.370000000000005</ele>
        <time>2015-07-20T12:07:18Z</time>
      </trkpt>
      <trkpt lat="47.737833000719547" lon="11.506172083318233">
        <ele>993.389999999999986</ele>
        <time>2015-07-20T12:07:19Z</time>
      </trkpt>
      <trkpt lat="47.737820595502853" lon="11.506155403330922">
        <ele>993.710000000000036</ele>
        <time>2015-07-20T12:07:20Z</time>
      </trkpt>
      <trkpt lat="47.737702243030071" lon="11.506054401397705">
        <ele>995.009999999999991</ele>
        <time>2015-07-20T12:07:27Z</time>
      </trkpt>
      <trkpt lat="47.737693358212709" lon="11.506030345335603">
        <ele>994.799999999999955</ele>
        <time>2015-07-20T12:07:28Z</time>
      </trkpt>
      <trkpt lat="47.737655555829406" lon="11.505962703377008">
        <ele>995.539999999999964</ele>
        <time>2015-07-20T12:07:31Z</time>
      </trkpt>
      <trkpt lat="47.737610545009375" lon="11.505902102217078">
        <ele>996.169999999999959</ele>
        <time>2015-07-20T12:07:34Z</time>
      </trkpt>
      <trkpt lat="47.7375971339643" lon="11.505869580432773">
        <ele>995.940000000000055</ele>
        <time>2015-07-20T12:07:35Z</time>
      </trkpt>
      <trkpt lat="47.737589338794351" lon="11.505845943465829">
        <ele>996.289999999999964</ele>
        <time>2015-07-20T12:07:36Z</time>
      </trkpt>
      <trkpt lat="47.737571569159627" lon="11.505832113325596">
        <ele>996.399999999999977</ele>
        <time>2015-07-20T12:07:37Z</time>
      </trkpt>
      <trkpt lat="47.73756293579936" lon="11.505812332034111">
        <ele>996.67999999999995</ele>
        <time>2015-07-20T12:07:38Z</time>
      </trkpt>
      <trkpt lat="47.737438045442104" lon="11.505447216331959">
        <ele>997.879999999999995</ele>
        <time>2015-07-20T12:07:52Z</time>
      </trkpt>
      <trkpt lat="47.737300749868155" lon="11.505204644054174">
        <ele>999.450000000000045</ele>
        <time>2015-07-20T12:08:03Z</time>
      </trkpt>
      <trkpt lat="47.73729806765914" lon="11.505182012915611">
        <ele>999.789999999999964</ele>
        <time>2015-07-20T12:08:04Z</time>
      </trkpt>
      <trkpt lat="47.737201927229762" lon="11.504931058734655">
        <ele>1000.309999999999945</ele>
        <time>2015-07-20T12:08:14Z</time>
      </trkpt>
      <trkpt lat="47.737102853134274" lon="11.504645738750696">
        <ele>1000.220000000000027</ele>
        <time>2015-07-20T12:08:26Z</time>
      </trkpt>
      <trkpt lat="47.737153144553304" lon="11.504196301102638">
        <ele>1001.279999999999973</ele>
        <time>2015-07-20T12:08:39Z</time>
      </trkpt>
      <trkpt lat="47.737145349383354" lon="11.503896480426192">
        <ele>1001.580000000000041</ele>
        <time>2015-07-20T12:08:51Z</time>
      </trkpt>
      <trkpt lat="47.737145852297544" lon="11.503475960344076">
        <ele>1002.620000000000005</ele>
        <time>2015-07-20T12:09:02Z</time>
      </trkpt>
      <trkpt lat="47.737110648304224" lon="11.503013782203197">
        <ele>1003.899999999999977</ele>
        <time>2015-07-20T12:09:16Z</time>
      </trkpt>
      <trkpt lat="47.737108720466495" lon="11.50298411026597">
        <ele>1003.600000000000023</ele>
        <time>2015-07-20T12:09:17Z</time>
      </trkpt>
      <trkpt lat="47.737110396847129" lon="11.502948654815555">
        <ele>1004.080000000000041</ele>
        <time>2015-07-20T12:09:18Z</time>
      </trkpt>
      <trkpt lat="47.737114420160651" lon="11.502912612631917">
        <ele>1003.919999999999959</ele>
        <time>2015-07-20T12:09:19Z</time>
      </trkpt>
      <trkpt lat="47.737113917246461" lon="11.502897944301367">
        <ele>1004.169999999999959</ele>
        <time>2015-07-20T12:09:20Z</time>
      </trkpt>
      <trkpt lat="47.737116767093539" lon="11.502851257100701">
        <ele>1004.759999999999991</ele>
        <time>2015-07-20T12:09:22Z</time>
      </trkpt>
      <trkpt lat="47.737108636647463" lon="11.502825524657965">
        <ele>1004.159999999999968</ele>
        <time>2015-07-20T12:09:23Z</time>
      </trkpt>
      <trkpt lat="47.737106373533607" lon="11.502799205482006">
        <ele>1004.480000000000018</ele>
        <time>2015-07-20T12:09:24Z</time>
      </trkpt>
      <trkpt lat="47.73709874600172" lon="11.502768192440271">
        <ele>1004.409999999999968</ele>
        <time>2015-07-20T12:09:25Z</time>
      </trkpt>
      <trkpt lat="47.737096399068832" lon="11.502735419198871">
        <ele>1005</ele>
        <time>2015-07-20T12:09:26Z</time>
      </trkpt>
      <trkpt lat="47.737070163711905" lon="11.502662748098373">
        <ele>1005.190000000000055</ele>
        <time>2015-07-20T12:09:29Z</time>
      </trkpt>
      <trkpt lat="47.737042251974344" lon="11.50262301787734">
        <ele>1005.259999999999991</ele>
        <time>2015-07-20T12:09:31Z</time>
      </trkpt>
      <trkpt lat="47.736959019675851" lon="11.50210895575583">
        <ele>1006.909999999999968</ele>
        <time>2015-07-20T12:09:46Z</time>
      </trkpt>
      <trkpt lat="47.737019117921591" lon="11.501712240278721">
        <ele>1006</ele>
        <time>2015-07-20T12:09:57Z</time>
      </trkpt>
      <trkpt lat="47.737083826214075" lon="11.501594223082066">
        <ele>1005.419999999999959</ele>
        <time>2015-07-20T12:09:59Z</time>
      </trkpt>
      <trkpt lat="47.73716613650322" lon="11.501482827588916">
        <ele>1004.840000000000032</ele>
        <time>2015-07-20T12:10:01Z</time>
      </trkpt>
      <trkpt lat="47.737213410437107" lon="11.501438235864043">
        <ele>1004.980000000000018</ele>
        <time>2015-07-20T12:10:02Z</time>
      </trkpt>
      <trkpt lat="47.737316507846117" lon="11.50134963914752">
        <ele>1003.669999999999959</ele>
        <time>2015-07-20T12:10:04Z</time>
      </trkpt>
      <trkpt lat="47.737375935539603" lon="11.501289205625653">
        <ele>1003.42999999999995</ele>
        <time>2015-07-20T12:10:05Z</time>
      </trkpt>
      <trkpt lat="47.737575843930244" lon="11.501114694401622">
        <ele>1002.350000000000023</ele>
        <time>2015-07-20T12:10:08Z</time>
      </trkpt>
      <trkpt lat="47.737665111199021" lon="11.501083681359887">
        <ele>1001.779999999999973</ele>
        <time>2015-07-20T12:10:09Z</time>
      </trkpt>
      <trkpt lat="47.737760497257113" lon="11.501068929210305">
        <ele>1000.779999999999973</ele>
        <time>2015-07-20T12:10:10Z</time>
      </trkpt>
      <trkpt lat="47.738021174445748" lon="11.501028696075082">
        <ele>1000.110000000000014</ele>
        <time>2015-07-20T12:10:13Z</time>
      </trkpt>
      <trkpt lat="47.738086050376296" lon="11.500987205654383">
        <ele>999.799999999999955</ele>
        <time>2015-07-20T12:10:14Z</time>
      </trkpt>
      <trkpt lat="47.738127456977963" lon="11.500932388007641">
        <ele>999.490000000000009</ele>
        <time>2015-07-20T12:10:15Z</time>
      </trkpt>
      <trkpt lat="47.738158889114857" lon="11.500864159315825">
        <ele>999.42999999999995</ele>
        <time>2015-07-20T12:10:16Z</time>
      </trkpt>
      <trkpt lat="47.738178670406342" lon="11.500786459073424">
        <ele>999.480000000000018</ele>
        <time>2015-07-20T12:10:17Z</time>
      </trkpt>
      <trkpt lat="47.738186549395323" lon="11.5007065795362">
        <ele>999.769999999999982</ele>
        <time>2015-07-20T12:10:18Z</time>
      </trkpt>
      <trkpt lat="47.738184621557593" lon="11.50062695145607">
        <ele>999.720000000000027</ele>
        <time>2015-07-20T12:10:19Z</time>
      </trkpt>
      <trkpt lat="47.738174563273787" lon="11.50055168196559">
        <ele>999.159999999999968</ele>
        <time>2015-07-20T12:10:20Z</time>
      </trkpt>
      <trkpt lat="47.738167103379965" lon="11.500482950359583">
        <ele>999.5</ele>
        <time>2015-07-20T12:10:21Z</time>
      </trkpt>
      <trkpt lat="47.738155871629715" lon="11.500418074429035">
        <ele>999.299999999999955</ele>
        <time>2015-07-20T12:10:22Z</time>
      </trkpt>
      <trkpt lat="47.738139862194657" lon="11.500352863222361">
        <ele>999.539999999999964</ele>
        <time>2015-07-20T12:10:23Z</time>
      </trkpt>
      <trkpt lat="47.738114800304174" lon="11.500284383073449">
        <ele>999.220000000000027</ele>
        <time>2015-07-20T12:10:24Z</time>
      </trkpt>
      <trkpt lat="47.738082529976964" lon="11.500216238200665">
        <ele>998.399999999999977</ele>
        <time>2015-07-20T12:10:25Z</time>
      </trkpt>
      <trkpt lat="47.738063838332891" lon="11.50014759041369">
        <ele>998.279999999999973</ele>
        <time>2015-07-20T12:10:26Z</time>
      </trkpt>
      <trkpt lat="47.738021928817034" lon="11.500010043382645">
        <ele>997.389999999999986</ele>
        <time>2015-07-20T12:10:33Z</time>
      </trkpt>
      <trkpt lat="47.737974906340241" lon="11.49990669451654">
        <ele>997.42999999999995</ele>
        <time>2015-07-20T12:10:48Z</time>
      </trkpt>
      <trkpt lat="47.737971469759941" lon="11.499879118055105">
        <ele>997.139999999999986</ele>
        <time>2015-07-20T12:10:49Z</time>
      </trkpt>
      <trkpt lat="47.737971385940909" lon="11.499823294579983">
        <ele>997.039999999999964</ele>
        <time>2015-07-20T12:10:51Z</time>
      </trkpt>
      <trkpt lat="47.737971972674131" lon="11.499337647110224">
        <ele>993.450000000000045</ele>
        <time>2015-07-20T12:10:57Z</time>
      </trkpt>
      <trkpt lat="47.737978426739573" lon="11.499128602445126">
        <ele>992.809999999999945</ele>
        <time>2015-07-20T12:10:59Z</time>
      </trkpt>
      <trkpt lat="47.737983958795667" lon="11.499021062627435">
        <ele>992.220000000000027</ele>
        <time>2015-07-20T12:11:00Z</time>
      </trkpt>
      <trkpt lat="47.737997537478805" lon="11.498918049037457">
        <ele>992.470000000000027</ele>
        <time>2015-07-20T12:11:01Z</time>
      </trkpt>
      <trkpt lat="47.738132821395993" lon="11.498153870925307">
        <ele>990.610000000000014</ele>
        <time>2015-07-20T12:11:08Z</time>
      </trkpt>
      <trkpt lat="47.738136509433389" lon="11.497455658391118">
        <ele>991.059999999999945</ele>
        <time>2015-07-20T12:11:18Z</time>
      </trkpt>
      <trkpt lat="47.738155703991652" lon="11.497384160757065">
        <ele>992.899999999999977</ele>
        <time>2015-07-20T12:11:30Z</time>
      </trkpt>
      <trkpt lat="47.738155201077461" lon="11.497365972027183">
        <ele>992.289999999999964</ele>
        <time>2015-07-20T12:11:31Z</time>
      </trkpt>
      <trkpt lat="47.738156626001" lon="11.497342586517334">
        <ele>992.350000000000023</ele>
        <time>2015-07-20T12:11:32Z</time>
      </trkpt>
      <trkpt lat="47.738154865801334" lon="11.497318362817168">
        <ele>992.860000000000014</ele>
        <time>2015-07-20T12:11:33Z</time>
      </trkpt>
      <trkpt lat="47.738153859972954" lon="11.49729204364121">
        <ele>993.230000000000018</ele>
        <time>2015-07-20T12:11:34Z</time>
      </trkpt>
      <trkpt lat="47.738153776153922" lon="11.497265640646219">
        <ele>993.090000000000032</ele>
        <time>2015-07-20T12:11:35Z</time>
      </trkpt>
      <trkpt lat="47.738153357058764" lon="11.49723538197577">
        <ele>993.019999999999982</ele>
        <time>2015-07-20T12:11:36Z</time>
      </trkpt>
      <trkpt lat="47.738062078133225" lon="11.49694662541151">
        <ele>995.360000000000014</ele>
        <time>2015-07-20T12:11:49Z</time>
      </trkpt>
      <trkpt lat="47.738023018464446" lon="11.49687722325325">
        <ele>996.299999999999955</ele>
        <time>2015-07-20T12:11:53Z</time>
      </trkpt>
      <trkpt lat="47.738005751743913" lon="11.496859537437558">
        <ele>996.480000000000018</ele>
        <time>2015-07-20T12:11:54Z</time>
      </trkpt>
      <trkpt lat="47.737965267151594" lon="11.496807988733053">
        <ele>996.879999999999995</ele>
        <time>2015-07-20T12:11:57Z</time>
      </trkpt>
      <trkpt lat="47.737938947975636" lon="11.496750907972455">
        <ele>998.210000000000036</ele>
        <time>2015-07-20T12:12:00Z</time>
      </trkpt>
      <trkpt lat="47.737932745367289" lon="11.49673062376678">
        <ele>997.990000000000009</ele>
        <time>2015-07-20T12:12:01Z</time>
      </trkpt>
      <trkpt lat="47.737849513068795" lon="11.496594585478306">
        <ele>999.889999999999986</ele>
        <time>2015-07-20T12:12:14Z</time>
      </trkpt>
      <trkpt lat="47.737787403166294" lon="11.496407082304358">
        <ele>1001.980000000000018</ele>
        <time>2015-07-20T12:12:26Z</time>
      </trkpt>
      <trkpt lat="47.737726382911205" lon="11.496188817545772">
        <ele>1005.169999999999959</ele>
        <time>2015-07-20T12:12:40Z</time>
      </trkpt>
      <trkpt lat="47.737718923017383" lon="11.49617113173008">
        <ele>1005.269999999999982</ele>
        <time>2015-07-20T12:12:41Z</time>
      </trkpt>
      <trkpt lat="47.737621525302529" lon="11.495960829779506">
        <ele>1007.970000000000027</ele>
        <time>2015-07-20T12:12:56Z</time>
      </trkpt>
      <trkpt lat="47.737629823386669" lon="11.495826384052634">
        <ele>1009.659999999999968</ele>
        <time>2015-07-20T12:13:17Z</time>
      </trkpt>
      <trkpt lat="47.737524379044771" lon="11.495571238920093">
        <ele>1011.830000000000041</ele>
        <time>2015-07-20T12:13:35Z</time>
      </trkpt>
      <trkpt lat="47.737493868917227" lon="11.495336294174194">
        <ele>1014.919999999999959</ele>
        <time>2015-07-20T12:13:49Z</time>
      </trkpt>
      <trkpt lat="47.737478110939264" lon="11.495256666094065">
        <ele>1015.860000000000014</ele>
        <time>2015-07-20T12:13:54Z</time>
      </trkpt>
      <trkpt lat="47.737472662702203" lon="11.49504485540092">
        <ele>1019.029999999999973</ele>
        <time>2015-07-20T12:14:08Z</time>
      </trkpt>
      <trkpt lat="47.737467801198363" lon="11.495002023875713">
        <ele>1019.940000000000055</ele>
        <time>2015-07-20T12:14:11Z</time>
      </trkpt>
      <trkpt lat="47.737463526427746" lon="11.494925497099757">
        <ele>1020.67999999999995</ele>
        <time>2015-07-20T12:14:24Z</time>
      </trkpt>
      <trkpt lat="47.73746419698" lon="11.494882497936487">
        <ele>1021.309999999999945</ele>
        <time>2015-07-20T12:14:27Z</time>
      </trkpt>
      <trkpt lat="47.737462352961302" lon="11.494767917320132">
        <ele>1022.940000000000055</ele>
        <time>2015-07-20T12:14:34Z</time>
      </trkpt>
      <trkpt lat="47.737454138696194" lon="11.494594914838672">
        <ele>1024.869999999999891</ele>
        <time>2015-07-20T12:14:45Z</time>
      </trkpt>
      <trkpt lat="47.737446427345276" lon="11.494565745815635">
        <ele>1025.539999999999964</ele>
        <time>2015-07-20T12:14:47Z</time>
      </trkpt>
      <trkpt lat="47.737447684630752" lon="11.494490224868059">
        <ele>1026.450000000000045</ele>
        <time>2015-07-20T12:14:52Z</time>
      </trkpt>
      <trkpt lat="47.73743930272758" lon="11.494470778852701">
        <ele>1027.009999999999991</ele>
        <time>2015-07-20T12:14:53Z</time>
      </trkpt>
      <trkpt lat="47.737365458160639" lon="11.494312779977918">
        <ele>1028.900000000000091</ele>
        <time>2015-07-20T12:15:09Z</time>
      </trkpt>
      <trkpt lat="47.737308042123914" lon="11.494232732802629">
        <ele>1030.049999999999955</ele>
        <time>2015-07-20T12:15:28Z</time>
      </trkpt>
      <trkpt lat="47.737145517021418" lon="11.494061825796962">
        <ele>1033.180000000000064</ele>
        <time>2015-07-20T12:15:43Z</time>
      </trkpt>
      <trkpt lat="47.737062703818083" lon="11.493923608213663">
        <ele>1035.279999999999973</ele>
        <time>2015-07-20T12:15:55Z</time>
      </trkpt>
      <trkpt lat="47.736959019675851" lon="11.493748258799314">
        <ele>1037.809999999999945</ele>
        <time>2015-07-20T12:16:10Z</time>
      </trkpt>
      <trkpt lat="47.736911494284868" lon="11.493632169440389">
        <ele>1038.519999999999982</ele>
        <time>2015-07-20T12:16:23Z</time>
      </trkpt>
      <trkpt lat="47.73690227419138" lon="11.493532340973616">
        <ele>1039.809999999999945</ele>
        <time>2015-07-20T12:16:34Z</time>
      </trkpt>
      <trkpt lat="47.736879223957658" lon="11.493473583832383">
        <ele>1041.230000000000018</ele>
        <time>2015-07-20T12:16:38Z</time>
      </trkpt>
      <trkpt lat="47.736783418804407" lon="11.493271496146917">
        <ele>1043.569999999999936</ele>
        <time>2015-07-20T12:16:53Z</time>
      </trkpt>
      <trkpt lat="47.736758189275861" lon="11.493228580802679">
        <ele>1044.410000000000082</ele>
        <time>2015-07-20T12:16:56Z</time>
      </trkpt>
      <trkpt lat="47.736751148477197" lon="11.493215672671795">
        <ele>1044.670000000000073</ele>
        <time>2015-07-20T12:16:57Z</time>
      </trkpt>
      <trkpt lat="47.73669021204114" lon="11.493084831163287">
        <ele>1046.25</ele>
        <time>2015-07-20T12:17:07Z</time>
      </trkpt>
      <trkpt lat="47.736662803217769" lon="11.492856591939926">
        <ele>1048.210000000000036</ele>
        <time>2015-07-20T12:17:20Z</time>
      </trkpt>
      <trkpt lat="47.736684177070856" lon="11.492693061009049">
        <ele>1049.6099999999999</ele>
        <time>2015-07-20T12:17:39Z</time>
      </trkpt>
      <trkpt lat="47.736682835966349" lon="11.492675375193357">
        <ele>1049.450000000000045</ele>
        <time>2015-07-20T12:17:40Z</time>
      </trkpt>
      <trkpt lat="47.736602034419775" lon="11.492488542571664">
        <ele>1052.259999999999991</ele>
        <time>2015-07-20T12:17:54Z</time>
      </trkpt>
      <trkpt lat="47.736577223986387" lon="11.492464570328593">
        <ele>1052.619999999999891</ele>
        <time>2015-07-20T12:17:56Z</time>
      </trkpt>
      <trkpt lat="47.736573368310928" lon="11.492429533973336">
        <ele>1052.349999999999909</ele>
        <time>2015-07-20T12:17:58Z</time>
      </trkpt>
      <trkpt lat="47.736552078276873" lon="11.492249825969338">
        <ele>1055.630000000000109</ele>
        <time>2015-07-20T12:18:10Z</time>
      </trkpt>
      <trkpt lat="47.736547635868192" lon="11.492234487086535">
        <ele>1055.759999999999991</ele>
        <time>2015-07-20T12:18:11Z</time>
      </trkpt>
      <trkpt lat="47.736461721360683" lon="11.492056958377361">
        <ele>1058.079999999999927</ele>
        <time>2015-07-20T12:18:26Z</time>
      </trkpt>
      <trkpt lat="47.73640095256269" lon="11.492013037204742">
        <ele>1059.069999999999936</ele>
        <time>2015-07-20T12:18:46Z</time>
      </trkpt>
      <trkpt lat="47.736363988369703" lon="11.491901306435466">
        <ele>1059.440000000000055</ele>
        <time>2015-07-20T12:18:57Z</time>
      </trkpt>
      <trkpt lat="47.736338591203094" lon="11.491793682798743">
        <ele>1060.980000000000018</ele>
        <time>2015-07-20T12:19:13Z</time>
      </trkpt>
      <trkpt lat="47.736335322260857" lon="11.491779517382383">
        <ele>1061.160000000000082</ele>
        <time>2015-07-20T12:19:14Z</time>
      </trkpt>
      <trkpt lat="47.736213868483901" lon="11.491582542657852">
        <ele>1063.569999999999936</ele>
        <time>2015-07-20T12:19:28Z</time>
      </trkpt>
      <trkpt lat="47.736198613420129" lon="11.491333516314626">
        <ele>1066.829999999999927</ele>
        <time>2015-07-20T12:19:43Z</time>
      </trkpt>
      <trkpt lat="47.73613516241312" lon="11.491166464984417">
        <ele>1069.009999999999991</ele>
        <time>2015-07-20T12:19:59Z</time>
      </trkpt>
      <trkpt lat="47.736123260110617" lon="11.491170488297939">
        <ele>1069.1099999999999</ele>
        <time>2015-07-20T12:20:00Z</time>
      </trkpt>
      <trkpt lat="47.736093169078231" lon="11.49107376113534">
        <ele>1070.119999999999891</ele>
        <time>2015-07-20T12:20:13Z</time>
      </trkpt>
      <trkpt lat="47.736079087480903" lon="11.491060350090265">
        <ele>1070.539999999999964</ele>
        <time>2015-07-20T12:20:14Z</time>
      </trkpt>
      <trkpt lat="47.736076489090919" lon="11.491041406989098">
        <ele>1070.410000000000082</ele>
        <time>2015-07-20T12:20:15Z</time>
      </trkpt>
      <trkpt lat="47.736071962863207" lon="11.491021290421486">
        <ele>1070.480000000000018</ele>
        <time>2015-07-20T12:20:16Z</time>
      </trkpt>
      <trkpt lat="47.736067688092589" lon="11.491000670939684">
        <ele>1070.779999999999973</ele>
        <time>2015-07-20T12:20:17Z</time>
      </trkpt>
      <trkpt lat="47.736018151044846" lon="11.49083973839879">
        <ele>1072.819999999999936</ele>
        <time>2015-07-20T12:20:28Z</time>
      </trkpt>
      <trkpt lat="47.735983030870557" lon="11.490554921329021">
        <ele>1075.910000000000082</ele>
        <time>2015-07-20T12:20:44Z</time>
      </trkpt>
      <trkpt lat="47.735991077497602" lon="11.490364149212837">
        <ele>1077.630000000000109</ele>
        <time>2015-07-20T12:20:59Z</time>
      </trkpt>
      <trkpt lat="47.73601446300745" lon="11.490314695984125">
        <ele>1078.039999999999964</ele>
        <time>2015-07-20T12:21:12Z</time>
      </trkpt>
      <trkpt lat="47.735997615382075" lon="11.490272199735045">
        <ele>1078.690000000000055</ele>
        <time>2015-07-20T12:21:15Z</time>
      </trkpt>
      <trkpt lat="47.735994681715965" lon="11.490254094824195">
        <ele>1078.769999999999982</ele>
        <time>2015-07-20T12:21:16Z</time>
      </trkpt>
      <trkpt lat="47.735987473279238" lon="11.490238169208169">
        <ele>1078.660000000000082</ele>
        <time>2015-07-20T12:21:17Z</time>
      </trkpt>
      <trkpt lat="47.735980432480574" lon="11.490221992135048">
        <ele>1078.900000000000091</ele>
        <time>2015-07-20T12:21:18Z</time>
      </trkpt>
      <trkpt lat="47.735878927633166" lon="11.489962823688984">
        <ele>1082.009999999999991</ele>
        <time>2015-07-20T12:21:33Z</time>
      </trkpt>
      <trkpt lat="47.735858559608459" lon="11.489859893918037">
        <ele>1083.119999999999891</ele>
        <time>2015-07-20T12:21:39Z</time>
      </trkpt>
      <trkpt lat="47.735835509374738" lon="11.489814966917038">
        <ele>1083.730000000000018</ele>
        <time>2015-07-20T12:21:42Z</time>
      </trkpt>
      <trkpt lat="47.735833497717977" lon="11.489794012159109">
        <ele>1083.799999999999955</ele>
        <time>2015-07-20T12:21:43Z</time>
      </trkpt>
      <trkpt lat="47.735826037824154" lon="11.489776996895671">
        <ele>1083.960000000000036</ele>
        <time>2015-07-20T12:21:44Z</time>
      </trkpt>
      <trkpt lat="47.735795443877578" lon="11.48956342600286">
        <ele>1086.319999999999936</ele>
        <time>2015-07-20T12:21:57Z</time>
      </trkpt>
      <trkpt lat="47.735761580988765" lon="11.48946519009769">
        <ele>1087.549999999999955</ele>
        <time>2015-07-20T12:22:12Z</time>
      </trkpt>
      <trkpt lat="47.735698381438851" lon="11.489306604489684">
        <ele>1089.319999999999936</ele>
        <time>2015-07-20T12:22:26Z</time>
      </trkpt>
      <trkpt lat="47.735647419467568" lon="11.48905917070806">
        <ele>1092.759999999999991</ele>
        <time>2015-07-20T12:22:40Z</time>
      </trkpt>
      <trkpt lat="47.735645743086934" lon="11.489027654752135">
        <ele>1092.470000000000027</ele>
        <time>2015-07-20T12:22:42Z</time>
      </trkpt>
      <trkpt lat="47.735640294849873" lon="11.489015752449632">
        <ele>1092.950000000000045</ele>
        <time>2015-07-20T12:22:43Z</time>
      </trkpt>
      <trkpt lat="47.735582878813148" lon="11.488923886790872">
        <ele>1094.599999999999909</ele>
        <time>2015-07-20T12:22:51Z</time>
      </trkpt>
      <trkpt lat="47.73557030595839" lon="11.488896645605564">
        <ele>1095.009999999999991</ele>
        <time>2015-07-20T12:22:53Z</time>
      </trkpt>
      <trkpt lat="47.735569970682263" lon="11.488880217075348">
        <ele>1095.329999999999927</ele>
        <time>2015-07-20T12:22:54Z</time>
      </trkpt>
      <trkpt lat="47.735563097521663" lon="11.488857083022594">
        <ele>1095.569999999999936</ele>
        <time>2015-07-20T12:22:56Z</time>
      </trkpt>
      <trkpt lat="47.735419431701303" lon="11.488665724173188">
        <ele>1097.6400000000001</ele>
        <time>2015-07-20T12:23:12Z</time>
      </trkpt>
      <trkpt lat="47.735368050634861" lon="11.488611996173859">
        <ele>1098.220000000000027</ele>
        <time>2015-07-20T12:23:30Z</time>
      </trkpt>
      <trkpt lat="47.735343910753727" lon="11.488571092486382">
        <ele>1098.8599999999999</ele>
        <time>2015-07-20T12:24:03Z</time>
      </trkpt>
      <trkpt lat="47.735328823328018" lon="11.488568242639303">
        <ele>1098.529999999999973</ele>
        <time>2015-07-20T12:24:05Z</time>
      </trkpt>
      <trkpt lat="47.735295798629522" lon="11.488562375307083">
        <ele>1099.25</ele>
        <time>2015-07-20T12:24:08Z</time>
      </trkpt>
      <trkpt lat="47.735138637945056" lon="11.488563632592559">
        <ele>1100.869999999999891</ele>
        <time>2015-07-20T12:24:30Z</time>
      </trkpt>
      <trkpt lat="47.735109385102987" lon="11.488576121628284">
        <ele>1101.339999999999918</ele>
        <time>2015-07-20T12:24:33Z</time>
      </trkpt>
      <trkpt lat="47.735079042613506" lon="11.488580731675029">
        <ele>1101.25</ele>
        <time>2015-07-20T12:24:35Z</time>
      </trkpt>
      <trkpt lat="47.734855497255921" lon="11.488644266501069">
        <ele>1103.3900000000001</ele>
        <time>2015-07-20T12:24:49Z</time>
      </trkpt>
      <trkpt lat="47.734764972701669" lon="11.488670669496059">
        <ele>1104.039999999999964</ele>
        <time>2015-07-20T12:24:55Z</time>
      </trkpt>
      <trkpt lat="47.734753238037229" lon="11.488668490201235">
        <ele>1103.730000000000018</ele>
        <time>2015-07-20T12:24:56Z</time>
      </trkpt>
      <trkpt lat="47.734739743173122" lon="11.488680308684707">
        <ele>1103.940000000000055</ele>
        <time>2015-07-20T12:24:57Z</time>
      </trkpt>
      <trkpt lat="47.734677717089653" lon="11.488694893196225">
        <ele>1104.460000000000036</ele>
        <time>2015-07-20T12:25:01Z</time>
      </trkpt>
      <trkpt lat="47.734659695997834" lon="11.48870000615716">
        <ele>1104.599999999999909</ele>
        <time>2015-07-20T12:25:02Z</time>
      </trkpt>
      <trkpt lat="47.734521478414536" lon="11.488759433850646">
        <ele>1105.329999999999927</ele>
        <time>2015-07-20T12:25:11Z</time>
      </trkpt>
      <trkpt lat="47.734399354085326" lon="11.488825650885701">
        <ele>1106.349999999999909</ele>
        <time>2015-07-20T12:25:20Z</time>
      </trkpt>
      <trkpt lat="47.734384853392839" lon="11.488835792988539">
        <ele>1106.700000000000045</ele>
        <time>2015-07-20T12:25:21Z</time>
      </trkpt>
      <trkpt lat="47.734372531995177" lon="11.488844342529774">
        <ele>1106.900000000000091</ele>
        <time>2015-07-20T12:25:22Z</time>
      </trkpt>
      <trkpt lat="47.734319558367133" lon="11.488893795758486">
        <ele>1107.380000000000109</ele>
        <time>2015-07-20T12:25:26Z</time>
      </trkpt>
      <trkpt lat="47.734306398779154" lon="11.488895220682025">
        <ele>1107.579999999999927</ele>
        <time>2015-07-20T12:25:27Z</time>
      </trkpt>
      <trkpt lat="47.734296005219221" lon="11.488898321986198">
        <ele>1107.450000000000045</ele>
        <time>2015-07-20T12:25:28Z</time>
      </trkpt>
      <trkpt lat="47.734145633876324" lon="11.488929083570838">
        <ele>1108.490000000000009</ele>
        <time>2015-07-20T12:25:42Z</time>
      </trkpt>
      <trkpt lat="47.73398713208735" lon="11.488911565393209">
        <ele>1110.269999999999982</ele>
        <time>2015-07-20T12:25:56Z</time>
      </trkpt>
      <trkpt lat="47.733951844274998" lon="11.488932771608233">
        <ele>1111.1099999999999</ele>
        <time>2015-07-20T12:25:59Z</time>
      </trkpt>
      <trkpt lat="47.733915634453297" lon="11.488935789093375">
        <ele>1110.630000000000109</ele>
        <time>2015-07-20T12:26:01Z</time>
      </trkpt>
      <trkpt lat="47.733760736882687" lon="11.48891500197351">
        <ele>1112.900000000000091</ele>
        <time>2015-07-20T12:26:16Z</time>
      </trkpt>
      <trkpt lat="47.733498048037291" lon="11.488878456875682">
        <ele>1115.089999999999918</ele>
        <time>2015-07-20T12:26:38Z</time>
      </trkpt>
      <trkpt lat="47.733336696401238" lon="11.488865045830607">
        <ele>1117.349999999999909</ele>
        <time>2015-07-20T12:26:56Z</time>
      </trkpt>
      <trkpt lat="47.733145421370864" lon="11.488766390830278">
        <ele>1120.299999999999955</ele>
        <time>2015-07-20T12:27:13Z</time>
      </trkpt>
      <trkpt lat="47.733135614544153" lon="11.488758092746139">
        <ele>1120.910000000000082</ele>
        <time>2015-07-20T12:27:14Z</time>
      </trkpt>
      <trkpt lat="47.733125975355506" lon="11.48874836973846">
        <ele>1120.660000000000082</ele>
        <time>2015-07-20T12:27:15Z</time>
      </trkpt>
      <trkpt lat="47.733005359768867" lon="11.48867511190474">
        <ele>1122.3599999999999</ele>
        <time>2015-07-20T12:27:28Z</time>
      </trkpt>
      <trkpt lat="47.732909051701427" lon="11.488566817715764">
        <ele>1124.220000000000027</ele>
        <time>2015-07-20T12:27:49Z</time>
      </trkpt>
      <trkpt lat="47.732725152745843" lon="11.488498337566853">
        <ele>1126.720000000000027</ele>
        <time>2015-07-20T12:28:05Z</time>
      </trkpt>
      <trkpt lat="47.732563130557537" lon="11.488422397524118">
        <ele>1130.019999999999982</ele>
        <time>2015-07-20T12:28:21Z</time>
      </trkpt>
      <trkpt lat="47.732403790578246" lon="11.488337488844991">
        <ele>1132.849999999999909</ele>
        <time>2015-07-20T12:28:36Z</time>
      </trkpt>
      <trkpt lat="47.732357522472739" lon="11.488315528258681">
        <ele>1133.240000000000009</ele>
        <time>2015-07-20T12:28:42Z</time>
      </trkpt>
      <trkpt lat="47.732313182204962" lon="11.488303290680051">
        <ele>1133.819999999999936</ele>
        <time>2015-07-20T12:28:46Z</time>
      </trkpt>
      <trkpt lat="47.7323008608073" lon="11.4883042126894">
        <ele>1134.190000000000055</ele>
        <time>2015-07-20T12:28:47Z</time>
      </trkpt>
      <trkpt lat="47.732275212183595" lon="11.488306559622288">
        <ele>1134.579999999999927</ele>
        <time>2015-07-20T12:28:49Z</time>
      </trkpt>
      <trkpt lat="47.732091480866075" lon="11.488308822736144">
        <ele>1136.930000000000064</ele>
        <time>2015-07-20T12:29:06Z</time>
      </trkpt>
      <trkpt lat="47.732080249115825" lon="11.488339835777879">
        <ele>1135.799999999999955</ele>
        <time>2015-07-20T12:29:24Z</time>
      </trkpt>
      <trkpt lat="47.732128361240029" lon="11.48844251409173">
        <ele>1136.180000000000064</ele>
        <time>2015-07-20T12:29:53Z</time>
      </trkpt>
      <trkpt lat="47.732133558019996" lon="11.488435976207256">
        <ele>1136.369999999999891</ele>
        <time>2015-07-20T12:30:23Z</time>
      </trkpt>
      <trkpt lat="47.732056193053722" lon="11.488360958173871">
        <ele>1136.759999999999991</ele>
        <time>2015-07-20T12:30:56Z</time>
      </trkpt>
      <trkpt lat="47.732055354863405" lon="11.488368753343821">
        <ele>1137.799999999999955</ele>
        <time>2015-07-20T12:31:26Z</time>
      </trkpt>
      <trkpt lat="47.73202090524137" lon="11.488367328420281">
        <ele>1138.630000000000109</ele>
        <time>2015-07-20T12:31:47Z</time>
      </trkpt>
      <trkpt lat="47.731993747875094" lon="11.488385014235973">
        <ele>1139.039999999999964</ele>
        <time>2015-07-20T12:31:52Z</time>
      </trkpt>
      <trkpt lat="47.731966590508819" lon="11.488434299826622">
        <ele>1139.660000000000082</ele>
        <time>2015-07-20T12:31:56Z</time>
      </trkpt>
      <trkpt lat="47.731869108974934" lon="11.488605039194226">
        <ele>1141.990000000000009</ele>
        <time>2015-07-20T12:32:12Z</time>
      </trkpt>
      <trkpt lat="47.731860307976604" lon="11.488584838807583">
        <ele>1142.710000000000036</ele>
        <time>2015-07-20T12:32:36Z</time>
      </trkpt>
      <trkpt lat="47.73185477592051" lon="11.488598249852657">
        <ele>1142.900000000000091</ele>
        <time>2015-07-20T12:33:08Z</time>
      </trkpt>
      <trkpt lat="47.731844801455736" lon="11.488635633140802">
        <ele>1143.339999999999918</ele>
        <time>2015-07-20T12:33:17Z</time>
      </trkpt>
      <trkpt lat="47.731842119246721" lon="11.488652816042304">
        <ele>1143.450000000000045</ele>
        <time>2015-07-20T12:33:18Z</time>
      </trkpt>
      <trkpt lat="47.731835581362247" lon="11.488669663667679">
        <ele>1143.809999999999945</ele>
        <time>2015-07-20T12:33:19Z</time>
      </trkpt>
      <trkpt lat="47.731830552220345" lon="11.48868533782661">
        <ele>1143.950000000000045</ele>
        <time>2015-07-20T12:33:20Z</time>
      </trkpt>
      <trkpt lat="47.731827702373266" lon="11.488701514899731">
        <ele>1144.049999999999955</ele>
        <time>2015-07-20T12:33:21Z</time>
      </trkpt>
      <trkpt lat="47.731822673231363" lon="11.488716769963503">
        <ele>1144.130000000000109</ele>
        <time>2015-07-20T12:33:22Z</time>
      </trkpt>
      <trkpt lat="47.731816470623016" lon="11.488733114674687">
        <ele>1144.339999999999918</ele>
        <time>2015-07-20T12:33:23Z</time>
      </trkpt>
      <trkpt lat="47.731772717088461" lon="11.488846018910408">
        <ele>1145.6400000000001</ele>
        <time>2015-07-20T12:33:31Z</time>
      </trkpt>
      <trkpt lat="47.731766346842051" lon="11.488862028345466">
        <ele>1146.029999999999973</ele>
        <time>2015-07-20T12:33:32Z</time>
      </trkpt>
      <trkpt lat="47.731761066243052" lon="11.488877618685365">
        <ele>1146.279999999999973</ele>
        <time>2015-07-20T12:33:33Z</time>
      </trkpt>
      <trkpt lat="47.731755953282118" lon="11.488893209025264">
        <ele>1146.369999999999891</ele>
        <time>2015-07-20T12:33:34Z</time>
      </trkpt>
      <trkpt lat="47.731750840321183" lon="11.488909050822258">
        <ele>1146.6400000000001</ele>
        <time>2015-07-20T12:33:35Z</time>
      </trkpt>
      <trkpt lat="47.731747319921851" lon="11.488926904276013">
        <ele>1146.6400000000001</ele>
        <time>2015-07-20T12:33:36Z</time>
      </trkpt>
      <trkpt lat="47.731742123141885" lon="11.488942578434944">
        <ele>1147.230000000000018</ele>
        <time>2015-07-20T12:33:37Z</time>
      </trkpt>
      <trkpt lat="47.731735920533538" lon="11.48895607329905">
        <ele>1147.529999999999973</ele>
        <time>2015-07-20T12:33:38Z</time>
      </trkpt>
      <trkpt lat="47.731732819229364" lon="11.488972920924425">
        <ele>1147.779999999999973</ele>
        <time>2015-07-20T12:33:39Z</time>
      </trkpt>
      <trkpt lat="47.731726197525859" lon="11.488986751064658">
        <ele>1147.809999999999945</ele>
        <time>2015-07-20T12:33:40Z</time>
      </trkpt>
      <trkpt lat="47.731718737632036" lon="11.489001419395208">
        <ele>1147.809999999999945</ele>
        <time>2015-07-20T12:33:41Z</time>
      </trkpt>
      <trkpt lat="47.731712702661753" lon="11.489017009735107">
        <ele>1147.5</ele>
        <time>2015-07-20T12:33:42Z</time>
      </trkpt>
      <trkpt lat="47.731707422062755" lon="11.489031342789531">
        <ele>1147.990000000000009</ele>
        <time>2015-07-20T12:33:43Z</time>
      </trkpt>
      <trkpt lat="47.731686970219016" lon="11.489104852080345">
        <ele>1148.920000000000073</ele>
        <time>2015-07-20T12:33:48Z</time>
      </trkpt>
      <trkpt lat="47.731680516153574" lon="11.489119185134768">
        <ele>1148.779999999999973</ele>
        <time>2015-07-20T12:33:49Z</time>
      </trkpt>
      <trkpt lat="47.73167297244072" lon="11.489131757989526">
        <ele>1149.180000000000064</ele>
        <time>2015-07-20T12:33:50Z</time>
      </trkpt>
      <trkpt lat="47.731667440384626" lon="11.489148940891027">
        <ele>1149.299999999999955</ele>
        <time>2015-07-20T12:33:51Z</time>
      </trkpt>
      <trkpt lat="47.731659226119518" lon="11.489162016659975">
        <ele>1149.700000000000045</ele>
        <time>2015-07-20T12:33:52Z</time>
      </trkpt>
      <trkpt lat="47.731652017682791" lon="11.489176098257303">
        <ele>1150.160000000000082</ele>
        <time>2015-07-20T12:33:53Z</time>
      </trkpt>
      <trkpt lat="47.731579262763262" lon="11.489268634468317">
        <ele>1151.799999999999955</ele>
        <time>2015-07-20T12:34:07Z</time>
      </trkpt>
      <trkpt lat="47.731553865596652" lon="11.489292606711388">
        <ele>1152.700000000000045</ele>
        <time>2015-07-20T12:34:13Z</time>
      </trkpt>
      <trkpt lat="47.731533832848072" lon="11.489326972514391">
        <ele>1152.940000000000055</ele>
        <time>2015-07-20T12:34:16Z</time>
      </trkpt>
      <trkpt lat="47.731512039899826" lon="11.489379610866308">
        <ele>1153.670000000000073</ele>
        <time>2015-07-20T12:34:20Z</time>
      </trkpt>
      <trkpt lat="47.731496030464768" lon="11.48941732943058">
        <ele>1154.200000000000045</ele>
        <time>2015-07-20T12:34:23Z</time>
      </trkpt>
      <trkpt lat="47.731490079313517" lon="11.489430656656623">
        <ele>1154.470000000000027</ele>
        <time>2015-07-20T12:34:24Z</time>
      </trkpt>
      <trkpt lat="47.731388825923204" lon="11.489649005234241">
        <ele>1157.779999999999973</ele>
        <time>2015-07-20T12:34:39Z</time>
      </trkpt>
      <trkpt lat="47.731358734890819" lon="11.4897530246526">
        <ele>1158.3599999999999</ele>
        <time>2015-07-20T12:34:45Z</time>
      </trkpt>
      <trkpt lat="47.731349682435393" lon="11.489766016602516">
        <ele>1158.730000000000018</ele>
        <time>2015-07-20T12:34:46Z</time>
      </trkpt>
      <trkpt lat="47.731342473998666" lon="11.489779008552432">
        <ele>1158.779999999999973</ele>
        <time>2015-07-20T12:34:47Z</time>
      </trkpt>
      <trkpt lat="47.731239795684814" lon="11.490001128986478">
        <ele>1161.769999999999982</ele>
        <time>2015-07-20T12:35:04Z</time>
      </trkpt>
      <trkpt lat="47.731215991079807" lon="11.490102550014853">
        <ele>1163.299999999999955</ele>
        <time>2015-07-20T12:35:18Z</time>
      </trkpt>
      <trkpt lat="47.731198389083147" lon="11.490165079012513">
        <ele>1164.420000000000073</ele>
        <time>2015-07-20T12:35:25Z</time>
      </trkpt>
      <trkpt lat="47.731180870905519" lon="11.490186536684632">
        <ele>1164.329999999999927</ele>
        <time>2015-07-20T12:35:27Z</time>
      </trkpt>
      <trkpt lat="47.73113158531487" lon="11.49022257886827">
        <ele>1165.289999999999964</ele>
        <time>2015-07-20T12:35:31Z</time>
      </trkpt>
      <trkpt lat="47.731122951954603" lon="11.490235822275281">
        <ele>1164.910000000000082</ele>
        <time>2015-07-20T12:35:32Z</time>
      </trkpt>
      <trkpt lat="47.731111217290163" lon="11.490246802568436">
        <ele>1165.460000000000036</ele>
        <time>2015-07-20T12:35:33Z</time>
      </trkpt>
      <trkpt lat="47.731101159006357" lon="11.490258537232876">
        <ele>1165.650000000000091</ele>
        <time>2015-07-20T12:35:34Z</time>
      </trkpt>
      <trkpt lat="47.731091435998678" lon="11.490270774811506">
        <ele>1165.920000000000073</ele>
        <time>2015-07-20T12:35:35Z</time>
      </trkpt>
      <trkpt lat="47.73095422424376" lon="11.490457355976105">
        <ele>1168.759999999999991</ele>
        <time>2015-07-20T12:35:51Z</time>
      </trkpt>
      <trkpt lat="47.730944836512208" lon="11.490468671545386">
        <ele>1169.309999999999945</ele>
        <time>2015-07-20T12:35:52Z</time>
      </trkpt>
      <trkpt lat="47.7309366222471" lon="11.49047864601016">
        <ele>1169.410000000000082</ele>
        <time>2015-07-20T12:35:53Z</time>
      </trkpt>
      <trkpt lat="47.730928407981992" lon="11.490489291027188">
        <ele>1169.450000000000045</ele>
        <time>2015-07-20T12:35:54Z</time>
      </trkpt>
      <trkpt lat="47.730919858440757" lon="11.490500941872597">
        <ele>1169.329999999999927</ele>
        <time>2015-07-20T12:35:55Z</time>
      </trkpt>
      <trkpt lat="47.730912314727902" lon="11.490515107288957">
        <ele>1169.450000000000045</ele>
        <time>2015-07-20T12:35:56Z</time>
      </trkpt>
      <trkpt lat="47.73090485483408" lon="11.49052944034338">
        <ele>1169.819999999999936</ele>
        <time>2015-07-20T12:35:57Z</time>
      </trkpt>
      <trkpt lat="47.730760602280498" lon="11.490780897438526">
        <ele>1172.980000000000018</ele>
        <time>2015-07-20T12:36:16Z</time>
      </trkpt>
      <trkpt lat="47.730667060241103" lon="11.491061439737678">
        <ele>1176.220000000000027</ele>
        <time>2015-07-20T12:36:34Z</time>
      </trkpt>
      <trkpt lat="47.730618948116899" lon="11.491296300664544">
        <ele>1177.539999999999964</ele>
        <time>2015-07-20T12:36:57Z</time>
      </trkpt>
      <trkpt lat="47.730610398575664" lon="11.491275765001774">
        <ele>1177.880000000000109</ele>
        <time>2015-07-20T12:37:31Z</time>
      </trkpt>
      <trkpt lat="47.730536805465817" lon="11.491180127486587">
        <ele>1177.579999999999927</ele>
        <time>2015-07-20T12:37:40Z</time>
      </trkpt>
      <trkpt lat="47.730517778545618" lon="11.491158083081245">
        <ele>1177.839999999999918</ele>
        <time>2015-07-20T12:37:41Z</time>
      </trkpt>
      <trkpt lat="47.730499925091863" lon="11.491137044504285">
        <ele>1177.769999999999982</ele>
        <time>2015-07-20T12:37:42Z</time>
      </trkpt>
      <trkpt lat="47.730303704738617" lon="11.490923641249537">
        <ele>1179.200000000000045</ele>
        <time>2015-07-20T12:37:55Z</time>
      </trkpt>
      <trkpt lat="47.730141682550311" lon="11.490864465013146">
        <ele>1180.460000000000036</ele>
        <time>2015-07-20T12:38:06Z</time>
      </trkpt>
      <trkpt lat="47.73012307472527" lon="11.490845941007137">
        <ele>1180.5</ele>
        <time>2015-07-20T12:38:07Z</time>
      </trkpt>
      <trkpt lat="47.730107232928276" lon="11.490836217999458">
        <ele>1180.529999999999973</ele>
        <time>2015-07-20T12:38:08Z</time>
      </trkpt>
      <trkpt lat="47.730092313140631" lon="11.490823477506638">
        <ele>1180.690000000000055</ele>
        <time>2015-07-20T12:38:09Z</time>
      </trkpt>
      <trkpt lat="47.73007613606751" lon="11.490808976814151">
        <ele>1180.900000000000091</ele>
        <time>2015-07-20T12:38:10Z</time>
      </trkpt>
      <trkpt lat="47.730059707537293" lon="11.49079573340714">
        <ele>1180.990000000000009</ele>
        <time>2015-07-20T12:38:11Z</time>
      </trkpt>
      <trkpt lat="47.730045625939965" lon="11.49078450165689">
        <ele>1180.700000000000045</ele>
        <time>2015-07-20T12:38:12Z</time>
      </trkpt>
      <trkpt lat="47.729950658977032" lon="11.490726498886943">
        <ele>1182</ele>
        <time>2015-07-20T12:38:18Z</time>
      </trkpt>
      <trkpt lat="47.729938505217433" lon="11.490710573270917">
        <ele>1181.8900000000001</ele>
        <time>2015-07-20T12:38:19Z</time>
      </trkpt>
      <trkpt lat="47.729922160506248" lon="11.490703532472253">
        <ele>1182.309999999999945</ele>
        <time>2015-07-20T12:38:20Z</time>
      </trkpt>
      <trkpt lat="47.729835994541645" lon="11.490623317658901">
        <ele>1183.119999999999891</ele>
        <time>2015-07-20T12:38:35Z</time>
      </trkpt>
      <trkpt lat="47.729689311236143" lon="11.490505132824183">
        <ele>1186.289999999999964</ele>
        <time>2015-07-20T12:38:51Z</time>
      </trkpt>
      <trkpt lat="47.729543717578053" lon="11.490385942161083">
        <ele>1188.319999999999936</ele>
        <time>2015-07-20T12:39:06Z</time>
      </trkpt>
      <trkpt lat="47.729355208575726" lon="11.490217549726367">
        <ele>1191.339999999999918</ele>
        <time>2015-07-20T12:39:26Z</time>
      </trkpt>
      <trkpt lat="47.729207687079906" lon="11.490072878077626">
        <ele>1194.5</ele>
        <time>2015-07-20T12:39:44Z</time>
      </trkpt>
      <trkpt lat="47.729155635461211" lon="11.490028956905007">
        <ele>1194.8900000000001</ele>
        <time>2015-07-20T12:39:51Z</time>
      </trkpt>
      <trkpt lat="47.729134513065219" lon="11.490105735138059">
        <ele>1195.319999999999936</ele>
        <time>2015-07-20T12:39:57Z</time>
      </trkpt>
      <trkpt lat="47.729000234976411" lon="11.490028370171785">
        <ele>1196.170000000000073</ele>
        <time>2015-07-20T12:40:13Z</time>
      </trkpt>
      <trkpt lat="47.72881499491632" lon="11.489912196993828">
        <ele>1198.349999999999909</ele>
        <time>2015-07-20T12:40:29Z</time>
      </trkpt>
      <trkpt lat="47.72863956168294" lon="11.489835837855935">
        <ele>1201.549999999999955</ele>
        <time>2015-07-20T12:40:47Z</time>
      </trkpt>
      <trkpt lat="47.728493548929691" lon="11.489797867834568">
        <ele>1203.970000000000027</ele>
        <time>2015-07-20T12:41:02Z</time>
      </trkpt>
      <trkpt lat="47.728383662179112" lon="11.489829467609525">
        <ele>1205.410000000000082</ele>
        <time>2015-07-20T12:41:25Z</time>
      </trkpt>
      <trkpt lat="47.728266902267933" lon="11.489835167303681">
        <ele>1207.559999999999945</ele>
        <time>2015-07-20T12:41:46Z</time>
      </trkpt>
      <trkpt lat="47.728204289451241" lon="11.489843130111694">
        <ele>1210.779999999999973</ele>
        <time>2015-07-20T12:41:55Z</time>
      </trkpt>
      <trkpt lat="47.728108568117023" lon="11.489869114011526">
        <ele>1212.829999999999927</ele>
        <time>2015-07-20T12:42:07Z</time>
      </trkpt>
      <trkpt lat="47.728069173172116" lon="11.489846734330058">
        <ele>1212.619999999999891</ele>
        <time>2015-07-20T12:42:42Z</time>
      </trkpt>
      <trkpt lat="47.728044278919697" lon="11.489807507023215">
        <ele>1214.039999999999964</ele>
        <time>2015-07-20T12:43:02Z</time>
      </trkpt>
      <trkpt lat="47.728078728541732" lon="11.489877244457603">
        <ele>1214</ele>
        <time>2015-07-20T12:43:29Z</time>
      </trkpt>
      <trkpt lat="47.72798627614975" lon="11.489931559190154">
        <ele>1214.809999999999945</ele>
        <time>2015-07-20T12:43:47Z</time>
      </trkpt>
      <trkpt lat="47.727935900911689" lon="11.489961901679635">
        <ele>1214.579999999999927</ele>
        <time>2015-07-20T12:43:51Z</time>
      </trkpt>
      <trkpt lat="47.727912180125713" lon="11.489974977448583">
        <ele>1214.3900000000001</ele>
        <time>2015-07-20T12:43:52Z</time>
      </trkpt>
      <trkpt lat="47.727886196225882" lon="11.489988891407847">
        <ele>1214.089999999999918</ele>
        <time>2015-07-20T12:43:53Z</time>
      </trkpt>
      <trkpt lat="47.727857613936067" lon="11.490005739033222">
        <ele>1213.569999999999936</ele>
        <time>2015-07-20T12:43:54Z</time>
      </trkpt>
      <trkpt lat="47.727823834866285" lon="11.490028537809849">
        <ele>1213.410000000000082</ele>
        <time>2015-07-20T12:43:55Z</time>
      </trkpt>
      <trkpt lat="47.72769408300519" lon="11.490100035443902">
        <ele>1212.329999999999927</ele>
        <time>2015-07-20T12:43:58Z</time>
      </trkpt>
      <trkpt lat="47.727638762444258" lon="11.490126019343734">
        <ele>1212.150000000000091</ele>
        <time>2015-07-20T12:43:59Z</time>
      </trkpt>
      <trkpt lat="47.727339109405875" lon="11.490224422886968">
        <ele>1213.230000000000018</ele>
        <time>2015-07-20T12:44:08Z</time>
      </trkpt>
      <trkpt lat="47.727115983143449" lon="11.490256525576115">
        <ele>1215.480000000000018</ele>
        <time>2015-07-20T12:44:19Z</time>
      </trkpt>
      <trkpt lat="47.726868465542793" lon="11.490288460627198">
        <ele>1217.069999999999936</ele>
        <time>2015-07-20T12:44:33Z</time>
      </trkpt>
      <trkpt lat="47.726731253787875" lon="11.490322826430202">
        <ele>1218.200000000000045</ele>
        <time>2015-07-20T12:44:42Z</time>
      </trkpt>
      <trkpt lat="47.726679453626275" lon="11.490323329344392">
        <ele>1218.690000000000055</ele>
        <time>2015-07-20T12:44:45Z</time>
      </trkpt>
      <trkpt lat="47.72656780667603" lon="11.490285946056247">
        <ele>1220.349999999999909</ele>
        <time>2015-07-20T12:44:53Z</time>
      </trkpt>
      <trkpt lat="47.726463535800576" lon="11.490251747891307">
        <ele>1221.599999999999909</ele>
        <time>2015-07-20T12:45:00Z</time>
      </trkpt>
      <trkpt lat="47.726445766165853" lon="11.49025191552937">
        <ele>1221.230000000000018</ele>
        <time>2015-07-20T12:45:01Z</time>
      </trkpt>
      <trkpt lat="47.726250216364861" lon="11.490412848070264">
        <ele>1220.930000000000064</ele>
        <time>2015-07-20T12:45:13Z</time>
      </trkpt>
      <trkpt lat="47.726020300760865" lon="11.490696407854557">
        <ele>1220.819999999999936</ele>
        <time>2015-07-20T12:45:25Z</time>
      </trkpt>
      <trkpt lat="47.725860793143511" lon="11.491157999262214">
        <ele>1220.380000000000109</ele>
        <time>2015-07-20T12:45:34Z</time>
      </trkpt>
      <trkpt lat="47.725672032684088" lon="11.491497047245502">
        <ele>1220.170000000000073</ele>
        <time>2015-07-20T12:45:44Z</time>
      </trkpt>
      <trkpt lat="47.725533647462726" lon="11.492122253403068">
        <ele>1222.539999999999964</ele>
        <time>2015-07-20T12:45:57Z</time>
      </trkpt>
      <trkpt lat="47.725270707160234" lon="11.492656683549285">
        <ele>1222.809999999999945</ele>
        <time>2015-07-20T12:46:13Z</time>
      </trkpt>
      <trkpt lat="47.725142715498805" lon="11.493121460080147">
        <ele>1225.009999999999991</ele>
        <time>2015-07-20T12:46:26Z</time>
      </trkpt>
      <trkpt lat="47.725029224529862" lon="11.493332767859101">
        <ele>1225.839999999999918</ele>
        <time>2015-07-20T12:46:35Z</time>
      </trkpt>
      <trkpt lat="47.725033834576607" lon="11.493395129218698">
        <ele>1225.039999999999964</ele>
        <time>2015-07-20T12:46:48Z</time>
      </trkpt>
      <trkpt lat="47.725037857890129" lon="11.493420358747244">
        <ele>1225.180000000000064</ele>
        <time>2015-07-20T12:46:49Z</time>
      </trkpt>
      <trkpt lat="47.725037354975939" lon="11.49345338344574">
        <ele>1224.789999999999964</ele>
        <time>2015-07-20T12:46:50Z</time>
      </trkpt>
      <trkpt lat="47.725032661110163" lon="11.493487497791648">
        <ele>1225.240000000000009</ele>
        <time>2015-07-20T12:46:51Z</time>
      </trkpt>
      <trkpt lat="47.725028386339545" lon="11.493522701784968">
        <ele>1225.339999999999918</ele>
        <time>2015-07-20T12:46:52Z</time>
      </trkpt>
      <trkpt lat="47.724859239533544" lon="11.494032237678766">
        <ele>1224.779999999999973</ele>
        <time>2015-07-20T12:47:07Z</time>
      </trkpt>
      <trkpt lat="47.724728565663099" lon="11.494391234591603">
        <ele>1221.769999999999982</ele>
        <time>2015-07-20T12:47:12Z</time>
      </trkpt>
      <trkpt lat="47.72469294257462" lon="11.494481842964888">
        <ele>1221.529999999999973</ele>
        <time>2015-07-20T12:47:13Z</time>
      </trkpt>
      <trkpt lat="47.724645249545574" lon="11.494559962302446">
        <ele>1221.410000000000082</ele>
        <time>2015-07-20T12:47:14Z</time>
      </trkpt>
      <trkpt lat="47.724592862650752" lon="11.494633723050356">
        <ele>1221.019999999999982</ele>
        <time>2015-07-20T12:47:15Z</time>
      </trkpt>
      <trkpt lat="47.724546175450087" lon="11.494691139087081">
        <ele>1221.289999999999964</ele>
        <time>2015-07-20T12:47:16Z</time>
      </trkpt>
      <trkpt lat="47.724499236792326" lon="11.494741179049015">
        <ele>1221.289999999999964</ele>
        <time>2015-07-20T12:47:17Z</time>
      </trkpt>
      <trkpt lat="47.724243337288499" lon="11.495080813765526">
        <ele>1222.410000000000082</ele>
        <time>2015-07-20T12:47:27Z</time>
      </trkpt>
      <trkpt lat="47.724158177152276" lon="11.495086429640651">
        <ele>1223.160000000000082</ele>
        <time>2015-07-20T12:47:35Z</time>
      </trkpt>
      <trkpt lat="47.72413051687181" lon="11.495071509853005">
        <ele>1223.289999999999964</ele>
        <time>2015-07-20T12:47:37Z</time>
      </trkpt>
      <trkpt lat="47.724114675074816" lon="11.495083747431636">
        <ele>1223.690000000000055</ele>
        <time>2015-07-20T12:47:53Z</time>
      </trkpt>
      <trkpt lat="47.724114255979657" lon="11.495097242295742">
        <ele>1223.680000000000064</ele>
        <time>2015-07-20T12:47:54Z</time>
      </trkpt>
      <trkpt lat="47.724104030057788" lon="11.495149293914437">
        <ele>1223.490000000000009</ele>
        <time>2015-07-20T12:47:57Z</time>
      </trkpt>
      <trkpt lat="47.724093133583665" lon="11.495204698294401">
        <ele>1224.099999999999909</ele>
        <time>2015-07-20T12:48:10Z</time>
      </trkpt>
      <trkpt lat="47.724077794700861" lon="11.495171003043652">
        <ele>1224.369999999999891</ele>
        <time>2015-07-20T12:48:32Z</time>
      </trkpt>
      <trkpt lat="47.724080979824066" lon="11.495168237015605">
        <ele>1223.299999999999955</ele>
        <time>2015-07-20T12:48:52Z</time>
      </trkpt>
      <trkpt lat="47.724080476909876" lon="11.495142336934805">
        <ele>1224.970000000000027</ele>
        <time>2015-07-20T12:49:42Z</time>
      </trkpt>
      <trkpt lat="47.724062204360962" lon="11.49515625089407">
        <ele>1225.019999999999982</ele>
        <time>2015-07-20T12:50:27Z</time>
      </trkpt>
      <trkpt lat="47.72405281662941" lon="11.495155999436975">
        <ele>1225.990000000000009</ele>
        <time>2015-07-20T12:51:20Z</time>
      </trkpt>
      <trkpt lat="47.724050302058458" lon="11.495155328884721">
        <ele>1226.180000000000064</ele>
        <time>2015-07-20T12:52:20Z</time>
      </trkpt>
      <trkpt lat="47.724051559343934" lon="11.495157843455672">
        <ele>1227.059999999999945</ele>
        <time>2015-07-20T12:53:16Z</time>
      </trkpt>
      <trkpt lat="47.724058600142598" lon="11.495175193995237">
        <ele>1227.509999999999991</ele>
        <time>2015-07-20T12:53:41Z</time>
      </trkpt>
      <trkpt lat="47.724068155512214" lon="11.495189359411597">
        <ele>1228.049999999999955</ele>
        <time>2015-07-20T12:54:34Z</time>
      </trkpt>
      <trkpt lat="47.724062958732247" lon="11.495174691081047">
        <ele>1227.799999999999955</ele>
        <time>2015-07-20T12:55:07Z</time>
      </trkpt>
      <trkpt lat="47.724066479131579" lon="11.49515725672245">
        <ele>1228.450000000000045</ele>
        <time>2015-07-20T12:56:04Z</time>
      </trkpt>
      <trkpt lat="47.724060695618391" lon="11.495144432410598">
        <ele>1229.220000000000027</ele>
        <time>2015-07-20T12:57:08Z</time>
      </trkpt>
      <trkpt lat="47.724048290401697" lon="11.495147533714771">
        <ele>1231.099999999999909</ele>
        <time>2015-07-20T12:57:47Z</time>
      </trkpt>
      <trkpt lat="47.724044686183333" lon="11.495141163468361">
        <ele>1231.220000000000027</ele>
        <time>2015-07-20T12:58:05Z</time>
      </trkpt>
      <trkpt lat="47.72404694929719" lon="11.495121298357844">
        <ele>1231.130000000000109</ele>
        <time>2015-07-20T12:58:11Z</time>
      </trkpt>
      <trkpt lat="47.724089110270143" lon="11.495121717453003">
        <ele>1231.430000000000064</ele>
        <time>2015-07-20T12:58:22Z</time>
      </trkpt>
      <trkpt lat="47.724083745852113" lon="11.495076790452003">
        <ele>1231.450000000000045</ele>
        <time>2015-07-20T12:58:25Z</time>
      </trkpt>
      <trkpt lat="47.724099671468139" lon="11.494990205392241">
        <ele>1231.829999999999927</ele>
        <time>2015-07-20T12:58:35Z</time>
      </trkpt>
      <trkpt lat="47.724116267636418" lon="11.494953660294414">
        <ele>1231.920000000000073</ele>
        <time>2015-07-20T12:58:38Z</time>
      </trkpt>
      <trkpt lat="47.724143760278821" lon="11.494912253692746">
        <ele>1233.029999999999973</ele>
        <time>2015-07-20T12:58:42Z</time>
      </trkpt>
      <trkpt lat="47.724173432216048" lon="11.494766157120466">
        <ele>1235.240000000000009</ele>
        <time>2015-07-20T12:59:00Z</time>
      </trkpt>
      <trkpt lat="47.724169241264462" lon="11.494719805195928">
        <ele>1235.599999999999909</ele>
        <time>2015-07-20T12:59:35Z</time>
      </trkpt>
      <trkpt lat="47.724169325083494" lon="11.494704969227314">
        <ele>1235.8599999999999</ele>
        <time>2015-07-20T12:59:36Z</time>
      </trkpt>
      <trkpt lat="47.724131522700191" lon="11.494519142434001">
        <ele>1239.3900000000001</ele>
        <time>2015-07-20T12:59:49Z</time>
      </trkpt>
      <trkpt lat="47.724083159118891" lon="11.494305236265063">
        <ele>1241.980000000000018</ele>
        <time>2015-07-20T13:00:09Z</time>
      </trkpt>
      <trkpt lat="47.724055917933583" lon="11.494214544072747">
        <ele>1243.700000000000045</ele>
        <time>2015-07-20T13:00:17Z</time>
      </trkpt>
      <trkpt lat="47.724028341472149" lon="11.493974737823009">
        <ele>1247.299999999999955</ele>
        <time>2015-07-20T13:00:35Z</time>
      </trkpt>
      <trkpt lat="47.724020462483168" lon="11.493721604347229">
        <ele>1250.529999999999973</ele>
        <time>2015-07-20T13:00:54Z</time>
      </trkpt>
      <trkpt lat="47.724050721153617" lon="11.493624206632376">
        <ele>1252.769999999999982</ele>
        <time>2015-07-20T13:01:12Z</time>
      </trkpt>
      <trkpt lat="47.72404745221138" lon="11.493604341521859">
        <ele>1252.730000000000018</ele>
        <time>2015-07-20T13:01:16Z</time>
      </trkpt>
      <trkpt lat="47.724048206582665" lon="11.493576010689139">
        <ele>1253.1099999999999</ele>
        <time>2015-07-20T13:01:18Z</time>
      </trkpt>
      <trkpt lat="47.724060695618391" lon="11.493363613262773">
        <ele>1256.180000000000064</ele>
        <time>2015-07-20T13:01:32Z</time>
      </trkpt>
      <trkpt lat="47.724082740023732" lon="11.493148701265454">
        <ele>1259.25</ele>
        <time>2015-07-20T13:01:49Z</time>
      </trkpt>
      <trkpt lat="47.724096234887838" lon="11.493091452866793">
        <ele>1260.269999999999982</ele>
        <time>2015-07-20T13:02:12Z</time>
      </trkpt>
      <trkpt lat="47.724111322313547" lon="11.492945523932576">
        <ele>1263.190000000000055</ele>
        <time>2015-07-20T13:02:36Z</time>
      </trkpt>
      <trkpt lat="47.724141329526901" lon="11.492792051285505">
        <ele>1266.200000000000045</ele>
        <time>2015-07-20T13:02:48Z</time>
      </trkpt>
      <trkpt lat="47.724123559892178" lon="11.492614019662142">
        <ele>1268.619999999999891</ele>
        <time>2015-07-20T13:03:06Z</time>
      </trkpt>
      <trkpt lat="47.724122051149607" lon="11.492606978863478">
        <ele>1268.680000000000064</ele>
        <time>2015-07-20T13:03:09Z</time>
      </trkpt>
      <trkpt lat="47.724114004522562" lon="11.49256993085146">
        <ele>1269.980000000000018</ele>
        <time>2015-07-20T13:03:12Z</time>
      </trkpt>
      <trkpt lat="47.724097408354282" lon="11.492461133748293">
        <ele>1271.3900000000001</ele>
        <time>2015-07-20T13:03:20Z</time>
      </trkpt>
      <trkpt lat="47.724100425839424" lon="11.492240019142628">
        <ele>1274.190000000000055</ele>
        <time>2015-07-20T13:03:38Z</time>
      </trkpt>
      <trkpt lat="47.724089277908206" lon="11.492123426869512">
        <ele>1276.990000000000009</ele>
        <time>2015-07-20T13:03:56Z</time>
      </trkpt>
      <trkpt lat="47.724096570163965" lon="11.491965427994728">
        <ele>1280.569999999999936</ele>
        <time>2015-07-20T13:04:13Z</time>
      </trkpt>
      <trkpt lat="47.724100593477488" lon="11.491798711940646">
        <ele>1283.950000000000045</ele>
        <time>2015-07-20T13:04:31Z</time>
      </trkpt>
      <trkpt lat="47.724152393639088" lon="11.491738613694906">
        <ele>1286.809999999999945</ele>
        <time>2015-07-20T13:04:47Z</time>
      </trkpt>
      <trkpt lat="47.724146274849772" lon="11.491632917895913">
        <ele>1288.509999999999991</ele>
        <time>2015-07-20T13:05:03Z</time>
      </trkpt>
      <trkpt lat="47.724164044484496" lon="11.491560079157352">
        <ele>1291.579999999999927</ele>
        <time>2015-07-20T13:05:23Z</time>
      </trkpt>
      <trkpt lat="47.724211821332574" lon="11.49155312217772">
        <ele>1291.319999999999936</ele>
        <time>2015-07-20T13:05:41Z</time>
      </trkpt>
      <trkpt lat="47.724217269569635" lon="11.491514649242163">
        <ele>1292.75</ele>
        <time>2015-07-20T13:05:45Z</time>
      </trkpt>
      <trkpt lat="47.724217269569635" lon="11.491399062797427">
        <ele>1295.789999999999964</ele>
        <time>2015-07-20T13:05:59Z</time>
      </trkpt>
      <trkpt lat="47.724199499934912" lon="11.491275932639837">
        <ele>1297.970000000000027</ele>
        <time>2015-07-20T13:06:16Z</time>
      </trkpt>
      <trkpt lat="47.72419991903007" lon="11.491207787767053">
        <ele>1298.970000000000027</ele>
        <time>2015-07-20T13:06:33Z</time>
      </trkpt>
      <trkpt lat="47.724209055304527" lon="11.491074431687593">
        <ele>1301.539999999999964</ele>
        <time>2015-07-20T13:06:52Z</time>
      </trkpt>
      <trkpt lat="47.72418424487114" lon="11.490953732281923">
        <ele>1303.75</ele>
        <time>2015-07-20T13:07:09Z</time>
      </trkpt>
      <trkpt lat="47.724143592640758" lon="11.49082557298243">
        <ele>1305.8900000000001</ele>
        <time>2015-07-20T13:07:27Z</time>
      </trkpt>
      <trkpt lat="47.724152058362961" lon="11.490641003474593">
        <ele>1308.119999999999891</ele>
        <time>2015-07-20T13:07:45Z</time>
      </trkpt>
      <trkpt lat="47.724142083898187" lon="11.490427935495973">
        <ele>1311.289999999999964</ele>
        <time>2015-07-20T13:08:01Z</time>
      </trkpt>
      <trkpt lat="47.724161446094513" lon="11.490368591621518">
        <ele>1312.960000000000036</ele>
        <time>2015-07-20T13:08:21Z</time>
      </trkpt>
      <trkpt lat="47.724162032827735" lon="11.490361047908664">
        <ele>1312.930000000000064</ele>
        <time>2015-07-20T13:08:39Z</time>
      </trkpt>
      <trkpt lat="47.724150717258453" lon="11.490334058180451">
        <ele>1313.220000000000027</ele>
        <time>2015-07-20T13:08:41Z</time>
      </trkpt>
      <trkpt lat="47.724129678681493" lon="11.490271110087633">
        <ele>1313.1400000000001</ele>
        <time>2015-07-20T13:08:45Z</time>
      </trkpt>
      <trkpt lat="47.724088942632079" lon="11.490049911662936">
        <ele>1316.259999999999991</ele>
        <time>2015-07-20T13:09:01Z</time>
      </trkpt>
      <trkpt lat="47.724059857428074" lon="11.489800214767456">
        <ele>1319.400000000000091</ele>
        <time>2015-07-20T13:09:20Z</time>
      </trkpt>
      <trkpt lat="47.723993640393019" lon="11.489492012187839">
        <ele>1322.099999999999909</ele>
        <time>2015-07-20T13:09:40Z</time>
      </trkpt>
      <trkpt lat="47.723864475265145" lon="11.489174589514732">
        <ele>1324.029999999999973</ele>
        <time>2015-07-20T13:10:01Z</time>
      </trkpt>
      <trkpt lat="47.723736651241779" lon="11.488876193761826">
        <ele>1326.740000000000009</ele>
        <time>2015-07-20T13:10:22Z</time>
      </trkpt>
      <trkpt lat="47.723674038425088" lon="11.488730767741799">
        <ele>1329.089999999999918</ele>
        <time>2015-07-20T13:10:33Z</time>
      </trkpt>
      <trkpt lat="47.723581669852138" lon="11.488485177978873">
        <ele>1332.210000000000036</ele>
        <time>2015-07-20T13:10:51Z</time>
      </trkpt>
      <trkpt lat="47.723532551899552" lon="11.488449219614267">
        <ele>1332.420000000000073</ele>
        <time>2015-07-20T13:11:06Z</time>
      </trkpt>
      <trkpt lat="47.723534479737282" lon="11.488459277898073">
        <ele>1332.880000000000109</ele>
        <time>2015-07-20T13:11:27Z</time>
      </trkpt>
      <trkpt lat="47.723544286563993" lon="11.488469420000911">
        <ele>1332.680000000000064</ele>
        <time>2015-07-20T13:11:56Z</time>
      </trkpt>
      <trkpt lat="47.723549902439117" lon="11.488530859351158">
        <ele>1332.480000000000018</ele>
        <time>2015-07-20T13:12:19Z</time>
      </trkpt>
      <trkpt lat="47.723545208573341" lon="11.488542426377535">
        <ele>1332.6099999999999</ele>
        <time>2015-07-20T13:12:33Z</time>
      </trkpt>
      <trkpt lat="47.723536659032106" lon="11.488485094159842">
        <ele>1332.819999999999936</ele>
        <time>2015-07-20T13:13:08Z</time>
      </trkpt>
      <trkpt lat="47.723519057035446" lon="11.488441256806254">
        <ele>1332.779999999999973</ele>
        <time>2015-07-20T13:13:22Z</time>
      </trkpt>
      <trkpt lat="47.723514949902892" lon="11.488371938467026">
        <ele>1332.210000000000036</ele>
        <time>2015-07-20T13:13:37Z</time>
      </trkpt>
      <trkpt lat="47.723507406190038" lon="11.488383254036307">
        <ele>1332.589999999999918</ele>
        <time>2015-07-20T13:14:27Z</time>
      </trkpt>
      <trkpt lat="47.723507573828101" lon="11.488386942073703">
        <ele>1333.190000000000055</ele>
        <time>2015-07-20T13:15:23Z</time>
      </trkpt>
      <trkpt lat="47.723507238551974" lon="11.488380655646324">
        <ele>1333.019999999999982</ele>
        <time>2015-07-20T13:16:21Z</time>
      </trkpt>
      <trkpt lat="47.723511680960655" lon="11.488392809405923">
        <ele>1333.8900000000001</ele>
        <time>2015-07-20T13:17:18Z</time>
      </trkpt>
      <trkpt lat="47.723531210795045" lon="11.488377470523119">
        <ele>1334.400000000000091</ele>
        <time>2015-07-20T13:17:59Z</time>
      </trkpt>
      <trkpt lat="47.723545040935278" lon="11.488376716151834">
        <ele>1334.369999999999891</ele>
        <time>2015-07-20T13:19:06Z</time>
      </trkpt>
      <trkpt lat="47.723547304049134" lon="11.488380236551166">
        <ele>1334.490000000000009</ele>
        <time>2015-07-20T13:20:02Z</time>
      </trkpt>
      <trkpt lat="47.723541269078851" lon="11.488403622061014">
        <ele>1335.019999999999982</ele>
        <time>2015-07-20T13:20:50Z</time>
      </trkpt>
      <trkpt lat="47.723536491394043" lon="11.488417033106089">
        <ele>1336.059999999999945</ele>
        <time>2015-07-20T13:21:38Z</time>
      </trkpt>
      <trkpt lat="47.723534647375345" lon="11.488409154117107">
        <ele>1335.759999999999991</ele>
        <time>2015-07-20T13:22:25Z</time>
      </trkpt>
      <trkpt lat="47.723535317927599" lon="11.488407477736473">
        <ele>1336.789999999999964</ele>
        <time>2015-07-20T13:23:16Z</time>
      </trkpt>
      <trkpt lat="47.72353632375598" lon="11.488414099439979">
        <ele>1336.900000000000091</ele>
        <time>2015-07-20T13:24:17Z</time>
      </trkpt>
      <trkpt lat="47.723533641546965" lon="11.488411081954837">
        <ele>1336.930000000000064</ele>
        <time>2015-07-20T13:25:20Z</time>
      </trkpt>
      <trkpt lat="47.723534982651472" lon="11.488403538241982">
        <ele>1337.069999999999936</ele>
        <time>2015-07-20T13:26:19Z</time>
      </trkpt>
      <trkpt lat="47.723550908267498" lon="11.488410914316773">
        <ele>1337.5</ele>
        <time>2015-07-20T13:27:19Z</time>
      </trkpt>
      <trkpt lat="47.723547555506229" lon="11.488412339240313">
        <ele>1338.319999999999936</ele>
        <time>2015-07-20T13:28:19Z</time>
      </trkpt>
      <trkpt lat="47.723542777821422" lon="11.488415775820613">
        <ele>1339.349999999999909</ele>
        <time>2015-07-20T13:29:23Z</time>
      </trkpt>
      <trkpt lat="47.723547471687198" lon="11.48841024376452">
        <ele>1339.329999999999927</ele>
        <time>2015-07-20T13:30:36Z</time>
      </trkpt>
      <trkpt lat="47.723552836105227" lon="11.488403622061014">
        <ele>1339.8599999999999</ele>
        <time>2015-07-20T13:31:39Z</time>
      </trkpt>
      <trkpt lat="47.72355442866683" lon="11.48840244859457">
        <ele>1340.599999999999909</ele>
        <time>2015-07-20T13:32:44Z</time>
      </trkpt>
      <trkpt lat="47.723549315705895" lon="11.488400353118777">
        <ele>1341.160000000000082</ele>
        <time>2015-07-20T13:33:44Z</time>
      </trkpt>
      <trkpt lat="47.723549818620086" lon="11.48838241584599">
        <ele>1341.440000000000055</ele>
        <time>2015-07-20T13:34:56Z</time>
      </trkpt>
      <trkpt lat="47.723550908267498" lon="11.488396497443318">
        <ele>1342.099999999999909</ele>
        <time>2015-07-20T13:36:01Z</time>
      </trkpt>
      <trkpt lat="47.723551159724593" lon="11.488402280956507">
        <ele>1341.309999999999945</ele>
        <time>2015-07-20T13:37:01Z</time>
      </trkpt>
      <trkpt lat="47.72355199791491" lon="11.488405549898744">
        <ele>1342.460000000000036</ele>
        <time>2015-07-20T13:37:59Z</time>
      </trkpt>
      <trkpt lat="47.723550489172339" lon="11.488403286784887">
        <ele>1342.710000000000036</ele>
        <time>2015-07-20T13:39:00Z</time>
      </trkpt>
      <trkpt lat="47.723553087562323" lon="11.488407561555505">
        <ele>1343.220000000000027</ele>
        <time>2015-07-20T13:39:59Z</time>
      </trkpt>
      <trkpt lat="47.723552752286196" lon="11.488413596525788">
        <ele>1342.599999999999909</ele>
        <time>2015-07-20T13:40:49Z</time>
      </trkpt>
      <trkpt lat="47.723552249372005" lon="11.488408735021949">
        <ele>1343.210000000000036</ele>
        <time>2015-07-20T13:41:43Z</time>
      </trkpt>
      <trkpt lat="47.723551159724593" lon="11.488398341462016">
        <ele>1343.119999999999891</ele>
        <time>2015-07-20T13:42:41Z</time>
      </trkpt>
      <trkpt lat="47.723555015400052" lon="11.488404041156173">
        <ele>1343.680000000000064</ele>
        <time>2015-07-20T13:43:34Z</time>
      </trkpt>
      <trkpt lat="47.723547974601388" lon="11.488408651202917">
        <ele>1343.210000000000036</ele>
        <time>2015-07-20T13:44:16Z</time>
      </trkpt>
      <trkpt lat="47.723546633496881" lon="11.488417452201247">
        <ele>1343.690000000000055</ele>
        <time>2015-07-20T13:45:02Z</time>
      </trkpt>
      <trkpt lat="47.723554009571671" lon="11.48843128234148">
        <ele>1344.009999999999991</ele>
        <time>2015-07-20T13:46:02Z</time>
      </trkpt>
      <trkpt lat="47.723566666245461" lon="11.488422146067023">
        <ele>1344.910000000000082</ele>
        <time>2015-07-20T13:47:02Z</time>
      </trkpt>
      <trkpt lat="47.723556607961655" lon="11.488426253199577">
        <ele>1345.289999999999964</ele>
        <time>2015-07-20T13:47:19Z</time>
      </trkpt>
      <trkpt lat="47.723560966551304" lon="11.488425163552165">
        <ele>1344.519999999999982</ele>
        <time>2015-07-20T13:47:47Z</time>
      </trkpt>
      <trkpt lat="47.723593739792705" lon="11.488411752507091">
        <ele>1344.589999999999918</ele>
        <time>2015-07-20T13:48:04Z</time>
      </trkpt>
      <trkpt lat="47.723612012341619" lon="11.488389456644654">
        <ele>1344.519999999999982</ele>
        <time>2015-07-20T13:48:21Z</time>
      </trkpt>
      <trkpt lat="47.723592398688197" lon="11.488421894609928">
        <ele>1345.289999999999964</ele>
        <time>2015-07-20T13:48:26Z</time>
      </trkpt>
      <trkpt lat="47.723591979593039" lon="11.48846891708672">
        <ele>1344.990000000000009</ele>
        <time>2015-07-20T13:48:46Z</time>
      </trkpt>
      <trkpt lat="47.723573120310903" lon="11.488476293161511">
        <ele>1345.049999999999955</ele>
        <time>2015-07-20T13:49:07Z</time>
      </trkpt>
      <trkpt lat="47.723565073683858" lon="11.488415105268359">
        <ele>1344.819999999999936</ele>
        <time>2015-07-20T13:49:27Z</time>
      </trkpt>
      <trkpt lat="47.723556524142623" lon="11.488409740850329">
        <ele>1344.960000000000036</ele>
        <time>2015-07-20T13:49:34Z</time>
      </trkpt>
      <trkpt lat="47.723548896610737" lon="11.488328604027629">
        <ele>1344.839999999999918</ele>
        <time>2015-07-20T13:49:37Z</time>
      </trkpt>
      <trkpt lat="47.723549818620086" lon="11.488291220739484">
        <ele>1344.960000000000036</ele>
        <time>2015-07-20T13:49:38Z</time>
      </trkpt>
      <trkpt lat="47.723552417010069" lon="11.488245623186231">
        <ele>1344.259999999999991</ele>
        <time>2015-07-20T13:49:39Z</time>
      </trkpt>
      <trkpt lat="47.723555183038116" lon="11.487944629043341">
        <ele>1340.690000000000055</ele>
        <time>2015-07-20T13:49:44Z</time>
      </trkpt>
      <trkpt lat="47.723566330969334" lon="11.487796772271395">
        <ele>1338.839999999999918</ele>
        <time>2015-07-20T13:49:46Z</time>
      </trkpt>
      <trkpt lat="47.723590973764658" lon="11.487579345703125">
        <ele>1335.349999999999909</ele>
        <time>2015-07-20T13:49:49Z</time>
      </trkpt>
      <trkpt lat="47.723603043705225" lon="11.487319339066744">
        <ele>1332.289999999999964</ele>
        <time>2015-07-20T13:49:52Z</time>
      </trkpt>
      <trkpt lat="47.72362089715898" lon="11.487045167014003">
        <ele>1328.6099999999999</ele>
        <time>2015-07-20T13:49:56Z</time>
      </trkpt>
      <trkpt lat="47.723637660965323" lon="11.486866297200322">
        <ele>1325.430000000000064</ele>
        <time>2015-07-20T13:49:59Z</time>
      </trkpt>
      <trkpt lat="47.723641684278846" lon="11.486818017438054">
        <ele>1325.240000000000009</ele>
        <time>2015-07-20T13:50:00Z</time>
      </trkpt>
      <trkpt lat="47.723643276840448" lon="11.486632274463773">
        <ele>1321.720000000000027</ele>
        <time>2015-07-20T13:50:04Z</time>
      </trkpt>
      <trkpt lat="47.72363405674696" lon="11.486442508175969">
        <ele>1318.490000000000009</ele>
        <time>2015-07-20T13:50:09Z</time>
      </trkpt>
      <trkpt lat="47.723733885213733" lon="11.486000614240766">
        <ele>1315.299999999999955</ele>
        <time>2015-07-20T13:50:19Z</time>
      </trkpt>
      <trkpt lat="47.723749727010727" lon="11.485949819907546">
        <ele>1315.089999999999918</ele>
        <time>2015-07-20T13:50:20Z</time>
      </trkpt>
      <trkpt lat="47.723805550485849" lon="11.485830629244447">
        <ele>1314.839999999999918</ele>
        <time>2015-07-20T13:50:23Z</time>
      </trkpt>
      <trkpt lat="47.723811333999038" lon="11.485801208764315">
        <ele>1314.8900000000001</ele>
        <time>2015-07-20T13:50:24Z</time>
      </trkpt>
      <trkpt lat="47.72381242364645" lon="11.485768519341946">
        <ele>1314.930000000000064</ele>
        <time>2015-07-20T13:50:25Z</time>
      </trkpt>
      <trkpt lat="47.723815273493528" lon="11.485729375854135">
        <ele>1313.829999999999927</ele>
        <time>2015-07-20T13:50:26Z</time>
      </trkpt>
      <trkpt lat="47.723824828863144" lon="11.485690483823419">
        <ele>1313.799999999999955</ele>
        <time>2015-07-20T13:50:27Z</time>
      </trkpt>
      <trkpt lat="47.723842347040772" lon="11.485650921240449">
        <ele>1313.6099999999999</ele>
        <time>2015-07-20T13:50:28Z</time>
      </trkpt>
      <trkpt lat="47.72385491989553" lon="11.485608844086528">
        <ele>1312.3599999999999</ele>
        <time>2015-07-20T13:50:29Z</time>
      </trkpt>
      <trkpt lat="47.723863050341606" lon="11.485578082501888">
        <ele>1312.769999999999982</ele>
        <time>2015-07-20T13:50:30Z</time>
      </trkpt>
      <trkpt lat="47.723886771127582" lon="11.485503148287535">
        <ele>1312.240000000000009</ele>
        <time>2015-07-20T13:50:32Z</time>
      </trkpt>
      <trkpt lat="47.723889453336596" lon="11.48536073975265">
        <ele>1312.410000000000082</ele>
        <time>2015-07-20T13:50:44Z</time>
      </trkpt>
      <trkpt lat="47.723861457780004" lon="11.485365349799395">
        <ele>1313.869999999999891</ele>
        <time>2015-07-20T13:50:50Z</time>
      </trkpt>
      <trkpt lat="47.723850561305881" lon="11.485377084463835">
        <ele>1313.950000000000045</ele>
        <time>2015-07-20T13:50:51Z</time>
      </trkpt>
      <trkpt lat="47.723846454173326" lon="11.485388483852148">
        <ele>1313.75</ele>
        <time>2015-07-20T13:50:52Z</time>
      </trkpt>
      <trkpt lat="47.723843604326248" lon="11.485404325649142">
        <ele>1314</ele>
        <time>2015-07-20T13:50:53Z</time>
      </trkpt>
      <trkpt lat="47.72383731789887" lon="11.485413797199726">
        <ele>1314.170000000000073</ele>
        <time>2015-07-20T13:50:54Z</time>
      </trkpt>
      <trkpt lat="47.723830444738269" lon="11.485422849655151">
        <ele>1314.3900000000001</ele>
        <time>2015-07-20T13:50:55Z</time>
      </trkpt>
      <trkpt lat="47.72382122464478" lon="11.485431147739291">
        <ele>1314.6400000000001</ele>
        <time>2015-07-20T13:50:56Z</time>
      </trkpt>
      <trkpt lat="47.723848046734929" lon="11.485466687008739">
        <ele>1314.180000000000064</ele>
        <time>2015-07-20T13:51:12Z</time>
      </trkpt>
      <trkpt lat="47.723805885761976" lon="11.485474985092878">
        <ele>1313.829999999999927</ele>
        <time>2015-07-20T13:51:35Z</time>
      </trkpt>
      <trkpt lat="47.723829355090857" lon="11.485466016456485">
        <ele>1314.299999999999955</ele>
        <time>2015-07-20T13:51:58Z</time>
      </trkpt>
      <trkpt lat="47.723856261000037" lon="11.485434919595718">
        <ele>1313.8900000000001</ele>
        <time>2015-07-20T13:52:01Z</time>
      </trkpt>
      <trkpt lat="47.723896158859134" lon="11.485345233231783">
        <ele>1312.579999999999927</ele>
        <time>2015-07-20T13:52:04Z</time>
      </trkpt>
      <trkpt lat="47.72390428930521" lon="11.485317153856158">
        <ele>1312.420000000000073</ele>
        <time>2015-07-20T13:52:05Z</time>
      </trkpt>
      <trkpt lat="47.723913928493857" lon="11.485294438898563">
        <ele>1311.900000000000091</ele>
        <time>2015-07-20T13:52:06Z</time>
      </trkpt>
      <trkpt lat="47.723922478035092" lon="11.485280524939299">
        <ele>1311.8599999999999</ele>
        <time>2015-07-20T13:52:07Z</time>
      </trkpt>
      <trkpt lat="47.723935972899199" lon="11.485088998451829">
        <ele>1308.630000000000109</ele>
        <time>2015-07-20T13:52:16Z</time>
      </trkpt>
      <trkpt lat="47.723947707563639" lon="11.484906440600753">
        <ele>1305.1099999999999</ele>
        <time>2015-07-20T13:52:23Z</time>
      </trkpt>
      <trkpt lat="47.723961705341935" lon="11.484849276021123">
        <ele>1305.029999999999973</ele>
        <time>2015-07-20T13:52:24Z</time>
      </trkpt>
      <trkpt lat="47.723977798596025" lon="11.484790937975049">
        <ele>1303.960000000000036</ele>
        <time>2015-07-20T13:52:25Z</time>
      </trkpt>
      <trkpt lat="47.72399565204978" lon="11.48473578505218">
        <ele>1303.769999999999982</ele>
        <time>2015-07-20T13:52:26Z</time>
      </trkpt>
      <trkpt lat="47.724096151068807" lon="11.484455913305283">
        <ele>1302.920000000000073</ele>
        <time>2015-07-20T13:52:33Z</time>
      </trkpt>
      <trkpt lat="47.724096151068807" lon="11.484419032931328">
        <ele>1303.3900000000001</ele>
        <time>2015-07-20T13:52:34Z</time>
      </trkpt>
      <trkpt lat="47.724096905440092" lon="11.484392462298274">
        <ele>1303.650000000000091</ele>
        <time>2015-07-20T13:52:35Z</time>
      </trkpt>
      <trkpt lat="47.724100928753614" lon="11.484216945245862">
        <ele>1303.259999999999991</ele>
        <time>2015-07-20T13:52:48Z</time>
      </trkpt>
      <trkpt lat="47.724126577377319" lon="11.484090378507972">
        <ele>1303.130000000000109</ele>
        <time>2015-07-20T13:53:00Z</time>
      </trkpt>
      <trkpt lat="47.724104281514883" lon="11.483954424038529">
        <ele>1302.119999999999891</ele>
        <time>2015-07-20T13:53:25Z</time>
      </trkpt>
      <trkpt lat="47.724089445546269" lon="11.483905809000134">
        <ele>1302.349999999999909</ele>
        <time>2015-07-20T13:53:57Z</time>
      </trkpt>
      <trkpt lat="47.724132863804698" lon="11.483850739896297">
        <ele>1303.25</ele>
        <time>2015-07-20T13:54:34Z</time>
      </trkpt>
      <trkpt lat="47.724208887666464" lon="11.483786534518003">
        <ele>1304.3599999999999</ele>
        <time>2015-07-20T13:54:55Z</time>
      </trkpt>
      <trkpt lat="47.724219867959619" lon="11.483692992478609">
        <ele>1307.380000000000109</ele>
        <time>2015-07-20T13:55:08Z</time>
      </trkpt>
      <trkpt lat="47.7242570836097" lon="11.483610179275274">
        <ele>1310.470000000000027</ele>
        <time>2015-07-20T13:55:23Z</time>
      </trkpt>
      <trkpt lat="47.724272087216377" lon="11.483430890366435">
        <ele>1311.599999999999909</ele>
        <time>2015-07-20T13:55:39Z</time>
      </trkpt>
      <trkpt lat="47.724299160763621" lon="11.483161663636565">
        <ele>1313.660000000000082</ele>
        <time>2015-07-20T13:56:01Z</time>
      </trkpt>
      <trkpt lat="47.724319864064455" lon="11.4830959495157">
        <ele>1313.299999999999955</ele>
        <time>2015-07-20T13:56:28Z</time>
      </trkpt>
      <trkpt lat="47.724343249574304" lon="11.48304658010602">
        <ele>1314.369999999999891</ele>
        <time>2015-07-20T13:56:39Z</time>
      </trkpt>
      <trkpt lat="47.724349619820714" lon="11.483028223738074">
        <ele>1314.410000000000082</ele>
        <time>2015-07-20T13:56:40Z</time>
      </trkpt>
      <trkpt lat="47.724358420819044" lon="11.483008442446589">
        <ele>1314.460000000000036</ele>
        <time>2015-07-20T13:56:41Z</time>
      </trkpt>
      <trkpt lat="47.724363952875137" lon="11.482987906783819">
        <ele>1314.519999999999982</ele>
        <time>2015-07-20T13:56:42Z</time>
      </trkpt>
      <trkpt lat="47.724366383627057" lon="11.482969550415874">
        <ele>1315.1099999999999</ele>
        <time>2015-07-20T13:56:43Z</time>
      </trkpt>
      <trkpt lat="47.724370239302516" lon="11.482946332544088">
        <ele>1315.789999999999964</ele>
        <time>2015-07-20T13:56:44Z</time>
      </trkpt>
      <trkpt lat="47.724375687539577" lon="11.482924791052938">
        <ele>1315.670000000000073</ele>
        <time>2015-07-20T13:56:45Z</time>
      </trkpt>
      <trkpt lat="47.724379627034068" lon="11.482908111065626">
        <ele>1316.650000000000091</ele>
        <time>2015-07-20T13:56:46Z</time>
      </trkpt>
      <trkpt lat="47.724386416375637" lon="11.482890341430902">
        <ele>1316.950000000000045</ele>
        <time>2015-07-20T13:56:47Z</time>
      </trkpt>
      <trkpt lat="47.724454645067453" lon="11.48256822489202">
        <ele>1319.289999999999964</ele>
        <time>2015-07-20T13:56:59Z</time>
      </trkpt>
      <trkpt lat="47.724643405526876" lon="11.482293047010899">
        <ele>1316.259999999999991</ele>
        <time>2015-07-20T13:57:08Z</time>
      </trkpt>
      <trkpt lat="47.724719261750579" lon="11.482200343161821">
        <ele>1316.039999999999964</ele>
        <time>2015-07-20T13:57:11Z</time>
      </trkpt>
      <trkpt lat="47.724712388589978" lon="11.482113590463996">
        <ele>1314.960000000000036</ele>
        <time>2015-07-20T13:57:14Z</time>
      </trkpt>
      <trkpt lat="47.724753459915519" lon="11.482081739231944">
        <ele>1313.180000000000064</ele>
        <time>2015-07-20T13:57:17Z</time>
      </trkpt>
      <trkpt lat="47.724780952557921" lon="11.482022143900394">
        <ele>1311.839999999999918</ele>
        <time>2015-07-20T13:57:20Z</time>
      </trkpt>
      <trkpt lat="47.72488689981401" lon="11.481755431741476">
        <ele>1309.029999999999973</ele>
        <time>2015-07-20T13:57:35Z</time>
      </trkpt>
      <trkpt lat="47.724936604499817" lon="11.481723329052329">
        <ele>1308.309999999999945</ele>
        <time>2015-07-20T13:57:42Z</time>
      </trkpt>
      <trkpt lat="47.725001061335206" lon="11.48166230879724">
        <ele>1306.650000000000091</ele>
        <time>2015-07-20T13:57:46Z</time>
      </trkpt>
      <trkpt lat="47.725171884521842" lon="11.481560384854674">
        <ele>1301.799999999999955</ele>
        <time>2015-07-20T13:57:52Z</time>
      </trkpt>
      <trkpt lat="47.725238269194961" lon="11.481481175869703">
        <ele>1300.839999999999918</ele>
        <time>2015-07-20T13:57:54Z</time>
      </trkpt>
      <trkpt lat="47.725283950567245" lon="11.481455443426967">
        <ele>1299.700000000000045</ele>
        <time>2015-07-20T13:57:57Z</time>
      </trkpt>
      <trkpt lat="47.725316220894456" lon="11.481409426778555">
        <ele>1299.900000000000091</ele>
        <time>2015-07-20T13:57:59Z</time>
      </trkpt>
      <trkpt lat="47.725339941680431" lon="11.481393417343497">
        <ele>1300.1099999999999</ele>
        <time>2015-07-20T13:58:01Z</time>
      </trkpt>
      <trkpt lat="47.725422084331512" lon="11.481295935809612">
        <ele>1301.25</ele>
        <time>2015-07-20T13:58:10Z</time>
      </trkpt>
      <trkpt lat="47.725531719624996" lon="11.481223683804274">
        <ele>1300.259999999999991</ele>
        <time>2015-07-20T13:58:26Z</time>
      </trkpt>
      <trkpt lat="47.725564325228333" lon="11.481215804815292">
        <ele>1297.6400000000001</ele>
        <time>2015-07-20T13:58:28Z</time>
      </trkpt>
      <trkpt lat="47.72568678483367" lon="11.481164675205946">
        <ele>1294.3900000000001</ele>
        <time>2015-07-20T13:58:33Z</time>
      </trkpt>
      <trkpt lat="47.725710924714804" lon="11.481166183948517">
        <ele>1294.1099999999999</ele>
        <time>2015-07-20T13:58:34Z</time>
      </trkpt>
      <trkpt lat="47.725856099277735" lon="11.481165597215295">
        <ele>1292.089999999999918</ele>
        <time>2015-07-20T13:58:46Z</time>
      </trkpt>
      <trkpt lat="47.72590035572648" lon="11.481164759024978">
        <ele>1290.440000000000055</ele>
        <time>2015-07-20T13:58:49Z</time>
      </trkpt>
      <trkpt lat="47.725997166708112" lon="11.481139780953526">
        <ele>1287.400000000000091</ele>
        <time>2015-07-20T13:59:01Z</time>
      </trkpt>
      <trkpt lat="47.726015271618962" lon="11.481126202270389">
        <ele>1286.25</ele>
        <time>2015-07-20T13:59:03Z</time>
      </trkpt>
      <trkpt lat="47.726075872778893" lon="11.481093680486083">
        <ele>1283.240000000000009</ele>
        <time>2015-07-20T13:59:09Z</time>
      </trkpt>
      <trkpt lat="47.726137060672045" lon="11.481064511463046">
        <ele>1280.869999999999891</ele>
        <time>2015-07-20T13:59:17Z</time>
      </trkpt>
      <trkpt lat="47.726148795336485" lon="11.481065265834332">
        <ele>1279.930000000000064</ele>
        <time>2015-07-20T13:59:18Z</time>
      </trkpt>
      <trkpt lat="47.726174527779222" lon="11.481051603332162">
        <ele>1279.170000000000073</ele>
        <time>2015-07-20T13:59:20Z</time>
      </trkpt>
      <trkpt lat="47.72618567571044" lon="11.481041964143515">
        <ele>1278.309999999999945</ele>
        <time>2015-07-20T13:59:21Z</time>
      </trkpt>
      <trkpt lat="47.726233787834644" lon="11.480998210608959">
        <ele>1275.8599999999999</ele>
        <time>2015-07-20T13:59:26Z</time>
      </trkpt>
      <trkpt lat="47.726300172507763" lon="11.480931909754872">
        <ele>1272.829999999999927</ele>
        <time>2015-07-20T13:59:34Z</time>
      </trkpt>
      <trkpt lat="47.726370077580214" lon="11.480887904763222">
        <ele>1270.75</ele>
        <time>2015-07-20T13:59:40Z</time>
      </trkpt>
      <trkpt lat="47.726396061480045" lon="11.480862256139517">
        <ele>1269.799999999999955</ele>
        <time>2015-07-20T13:59:42Z</time>
      </trkpt>
      <trkpt lat="47.726441659033298" lon="11.480806013569236">
        <ele>1266.3900000000001</ele>
        <time>2015-07-20T13:59:47Z</time>
      </trkpt>
      <trkpt lat="47.72648180834949" lon="11.48073635995388">
        <ele>1263.990000000000009</ele>
        <time>2015-07-20T13:59:53Z</time>
      </trkpt>
      <trkpt lat="47.726543582975864" lon="11.480682967230678">
        <ele>1259.5</ele>
        <time>2015-07-20T13:59:59Z</time>
      </trkpt>
      <trkpt lat="47.72659320384264" lon="11.480633430182934">
        <ele>1257.869999999999891</ele>
        <time>2015-07-20T14:00:02Z</time>
      </trkpt>
      <trkpt lat="47.726614326238632" lon="11.480620605871081">
        <ele>1256.900000000000091</ele>
        <time>2015-07-20T14:00:03Z</time>
      </trkpt>
      <trkpt lat="47.726646680384874" lon="11.480605602264404">
        <ele>1257.269999999999982</ele>
        <time>2015-07-20T14:00:04Z</time>
      </trkpt>
      <trkpt lat="47.726734690368176" lon="11.480530500411987">
        <ele>1254.900000000000091</ele>
        <time>2015-07-20T14:00:08Z</time>
      </trkpt>
      <trkpt lat="47.726753298193216" lon="11.480509797111154">
        <ele>1254.170000000000073</ele>
        <time>2015-07-20T14:00:09Z</time>
      </trkpt>
      <trkpt lat="47.726771654561162" lon="11.480498062446713">
        <ele>1253.8900000000001</ele>
        <time>2015-07-20T14:00:10Z</time>
      </trkpt>
      <trkpt lat="47.72682479582727" lon="11.480462523177266">
        <ele>1251.710000000000036</ele>
        <time>2015-07-20T14:00:13Z</time>
      </trkpt>
      <trkpt lat="47.726845080032945" lon="11.480443747714162">
        <ele>1250.869999999999891</ele>
        <time>2015-07-20T14:00:14Z</time>
      </trkpt>
      <trkpt lat="47.726863184943795" lon="11.480427235364914">
        <ele>1250.599999999999909</ele>
        <time>2015-07-20T14:00:15Z</time>
      </trkpt>
      <trkpt lat="47.726878775283694" lon="11.48041533306241">
        <ele>1249.309999999999945</ele>
        <time>2015-07-20T14:00:16Z</time>
      </trkpt>
      <trkpt lat="47.726899227127433" lon="11.480409884825349">
        <ele>1248.6099999999999</ele>
        <time>2015-07-20T14:00:17Z</time>
      </trkpt>
      <trkpt lat="47.726921942085028" lon="11.480401586741209">
        <ele>1248.059999999999945</ele>
        <time>2015-07-20T14:00:18Z</time>
      </trkpt>
      <trkpt lat="47.726938370615244" lon="11.480395216494799">
        <ele>1247.299999999999955</ele>
        <time>2015-07-20T14:00:19Z</time>
      </trkpt>
      <trkpt lat="47.726965025067329" lon="11.4803830627352">
        <ele>1246.269999999999982</ele>
        <time>2015-07-20T14:00:20Z</time>
      </trkpt>
      <trkpt lat="47.726991344243288" lon="11.480369316413999">
        <ele>1245.920000000000073</ele>
        <time>2015-07-20T14:00:21Z</time>
      </trkpt>
      <trkpt lat="47.727007102221251" lon="11.480359844863415">
        <ele>1245.049999999999955</ele>
        <time>2015-07-20T14:00:22Z</time>
      </trkpt>
      <trkpt lat="47.727078516036272" lon="11.480305194854736">
        <ele>1242.349999999999909</ele>
        <time>2015-07-20T14:00:27Z</time>
      </trkpt>
      <trkpt lat="47.72717323154211" lon="11.480232439935207">
        <ele>1239.279999999999973</ele>
        <time>2015-07-20T14:00:35Z</time>
      </trkpt>
      <trkpt lat="47.72720449604094" lon="11.480204779654741">
        <ele>1239.059999999999945</ele>
        <time>2015-07-20T14:00:36Z</time>
      </trkpt>
      <trkpt lat="47.727306419983506" lon="11.480120625346899">
        <ele>1235.720000000000027</ele>
        <time>2015-07-20T14:00:41Z</time>
      </trkpt>
      <trkpt lat="47.727331398054957" lon="11.480096066370606">
        <ele>1234.900000000000091</ele>
        <time>2015-07-20T14:00:43Z</time>
      </trkpt>
      <trkpt lat="47.72737649269402" lon="11.480054575949907">
        <ele>1233.1099999999999</ele>
        <time>2015-07-20T14:00:47Z</time>
      </trkpt>
      <trkpt lat="47.727501634508371" lon="11.480008559301496">
        <ele>1231.839999999999918</ele>
        <time>2015-07-20T14:01:12Z</time>
      </trkpt>
      <trkpt lat="47.727553937584162" lon="11.479980479925871">
        <ele>1230.349999999999909</ele>
        <time>2015-07-20T14:01:25Z</time>
      </trkpt>
      <trkpt lat="47.727653849869967" lon="11.47989640943706">
        <ele>1227.75</ele>
        <time>2015-07-20T14:01:40Z</time>
      </trkpt>
      <trkpt lat="47.727677822113037" lon="11.479886351153255">
        <ele>1227.150000000000091</ele>
        <time>2015-07-20T14:01:41Z</time>
      </trkpt>
      <trkpt lat="47.727813692763448" lon="11.479816613718867">
        <ele>1223.299999999999955</ele>
        <time>2015-07-20T14:01:46Z</time>
      </trkpt>
      <trkpt lat="47.727957274764776" lon="11.479657860472798">
        <ele>1220.880000000000109</ele>
        <time>2015-07-20T14:01:58Z</time>
      </trkpt>
      <trkpt lat="47.728122565895319" lon="11.479559624567628">
        <ele>1217.829999999999927</ele>
        <time>2015-07-20T14:02:07Z</time>
      </trkpt>
      <trkpt lat="47.728153076022863" lon="11.479543698951602">
        <ele>1216.769999999999982</ele>
        <time>2015-07-20T14:02:08Z</time>
      </trkpt>
      <trkpt lat="47.728182831779122" lon="11.479521989822388">
        <ele>1215.680000000000064</ele>
        <time>2015-07-20T14:02:09Z</time>
      </trkpt>
      <trkpt lat="47.728217197582126" lon="11.479517044499516">
        <ele>1215.079999999999927</ele>
        <time>2015-07-20T14:02:10Z</time>
      </trkpt>
      <trkpt lat="47.728241505101323" lon="11.479529868811369">
        <ele>1214.309999999999945</ele>
        <time>2015-07-20T14:02:11Z</time>
      </trkpt>
      <trkpt lat="47.728266734629869" lon="11.479520564898849">
        <ele>1213.660000000000082</ele>
        <time>2015-07-20T14:02:12Z</time>
      </trkpt>
      <trkpt lat="47.728288779035211" lon="11.479511512443423">
        <ele>1213.880000000000109</ele>
        <time>2015-07-20T14:02:13Z</time>
      </trkpt>
      <trkpt lat="47.728312080726027" lon="11.479499358683825">
        <ele>1213.8599999999999</ele>
        <time>2015-07-20T14:02:16Z</time>
      </trkpt>
      <trkpt lat="47.728408304974437" lon="11.479497347027063">
        <ele>1211.569999999999936</ele>
        <time>2015-07-20T14:02:33Z</time>
      </trkpt>
      <trkpt lat="47.728428421542048" lon="11.479504555463791">
        <ele>1210.829999999999927</ele>
        <time>2015-07-20T14:02:34Z</time>
      </trkpt>
      <trkpt lat="47.728447699919343" lon="11.479501705616713">
        <ele>1210.579999999999927</ele>
        <time>2015-07-20T14:02:35Z</time>
      </trkpt>
      <trkpt lat="47.728529758751392" lon="11.479500699788332">
        <ele>1207.039999999999964</ele>
        <time>2015-07-20T14:02:40Z</time>
      </trkpt>
      <trkpt lat="47.728637801483274" lon="11.479463065043092">
        <ele>1203.710000000000036</ele>
        <time>2015-07-20T14:02:45Z</time>
      </trkpt>
      <trkpt lat="47.728688847273588" lon="11.479441355913877">
        <ele>1202.349999999999909</ele>
        <time>2015-07-20T14:02:48Z</time>
      </trkpt>
      <trkpt lat="47.728704437613487" lon="11.479428615421057">
        <ele>1202.220000000000027</ele>
        <time>2015-07-20T14:02:49Z</time>
      </trkpt>
      <trkpt lat="47.728732516989112" lon="11.479415707290173">
        <ele>1200.380000000000109</ele>
        <time>2015-07-20T14:02:51Z</time>
      </trkpt>
      <trkpt lat="47.728778449818492" lon="11.479407157748938">
        <ele>1198.809999999999945</ele>
        <time>2015-07-20T14:02:54Z</time>
      </trkpt>
      <trkpt lat="47.728825053200126" lon="11.479375390335917">
        <ele>1196.6099999999999</ele>
        <time>2015-07-20T14:02:57Z</time>
      </trkpt>
      <trkpt lat="47.728838631883264" lon="11.479363488033414">
        <ele>1196.619999999999891</ele>
        <time>2015-07-20T14:02:58Z</time>
      </trkpt>
      <trkpt lat="47.728860760107636" lon="11.47934035398066">
        <ele>1195.809999999999945</ele>
        <time>2015-07-20T14:02:59Z</time>
      </trkpt>
      <trkpt lat="47.728881379589438" lon="11.479330966249108">
        <ele>1195.380000000000109</ele>
        <time>2015-07-20T14:03:00Z</time>
      </trkpt>
      <trkpt lat="47.728902166709304" lon="11.47932467982173">
        <ele>1194.630000000000109</ele>
        <time>2015-07-20T14:03:01Z</time>
      </trkpt>
      <trkpt lat="47.728922283276916" lon="11.479316046461463">
        <ele>1194.069999999999936</ele>
        <time>2015-07-20T14:03:02Z</time>
      </trkpt>
      <trkpt lat="47.728993277996778" lon="11.47929391823709">
        <ele>1191.059999999999945</ele>
        <time>2015-07-20T14:03:06Z</time>
      </trkpt>
      <trkpt lat="47.729062177240849" lon="11.479278244078159">
        <ele>1188.829999999999927</ele>
        <time>2015-07-20T14:03:09Z</time>
      </trkpt>
      <trkpt lat="47.72921078838408" lon="11.479266341775656">
        <ele>1185.410000000000082</ele>
        <time>2015-07-20T14:03:17Z</time>
      </trkpt>
      <trkpt lat="47.729228222742677" lon="11.479266090318561">
        <ele>1185.279999999999973</ele>
        <time>2015-07-20T14:03:18Z</time>
      </trkpt>
      <trkpt lat="47.729411954060197" lon="11.479243123903871">
        <ele>1182.259999999999991</ele>
        <time>2015-07-20T14:03:26Z</time>
      </trkpt>
      <trkpt lat="47.729461155831814" lon="11.479240693151951">
        <ele>1181.579999999999927</ele>
        <time>2015-07-20T14:03:28Z</time>
      </trkpt>
      <trkpt lat="47.729708924889565" lon="11.479181349277496">
        <ele>1182.789999999999964</ele>
        <time>2015-07-20T14:03:38Z</time>
      </trkpt>
      <trkpt lat="47.7299246750772" lon="11.47909359075129">
        <ele>1184.490000000000009</ele>
        <time>2015-07-20T14:03:46Z</time>
      </trkpt>
      <trkpt lat="47.73001704365015" lon="11.479074228554964">
        <ele>1183.930000000000064</ele>
        <time>2015-07-20T14:03:56Z</time>
      </trkpt>
      <trkpt lat="47.730181412771344" lon="11.479026870802045">
        <ele>1186.25</ele>
        <time>2015-07-20T14:04:12Z</time>
      </trkpt>
      <trkpt lat="47.730245031416416" lon="11.479026367887855">
        <ele>1185.130000000000109</ele>
        <time>2015-07-20T14:04:34Z</time>
      </trkpt>
      <trkpt lat="47.730340417474508" lon="11.479000551626086">
        <ele>1182.569999999999936</ele>
        <time>2015-07-20T14:04:39Z</time>
      </trkpt>
      <trkpt lat="47.730354247614741" lon="11.479000551626086">
        <ele>1183.25</ele>
        <time>2015-07-20T14:04:40Z</time>
      </trkpt>
      <trkpt lat="47.730511408299208" lon="11.478990241885185">
        <ele>1179.740000000000009</ele>
        <time>2015-07-20T14:04:45Z</time>
      </trkpt>
      <trkpt lat="47.730534542351961" lon="11.478990158066154">
        <ele>1179.490000000000009</ele>
        <time>2015-07-20T14:04:46Z</time>
      </trkpt>
      <trkpt lat="47.730769151821733" lon="11.479054028168321">
        <ele>1177.680000000000064</ele>
        <time>2015-07-20T14:04:55Z</time>
      </trkpt>
      <trkpt lat="47.730943160131574" lon="11.479069367051125">
        <ele>1178.420000000000073</ele>
        <time>2015-07-20T14:05:00Z</time>
      </trkpt>
      <trkpt lat="47.730975346639752" lon="11.479072468355298">
        <ele>1178.3900000000001</ele>
        <time>2015-07-20T14:05:01Z</time>
      </trkpt>
      <trkpt lat="47.731008874252439" lon="11.479080934077501">
        <ele>1178.059999999999945</ele>
        <time>2015-07-20T14:05:02Z</time>
      </trkpt>
      <trkpt lat="47.731182714924216" lon="11.479110941290855">
        <ele>1178.619999999999891</ele>
        <time>2015-07-20T14:05:11Z</time>
      </trkpt>
      <trkpt lat="47.731208615005016" lon="11.479100128635764">
        <ele>1179.069999999999936</ele>
        <time>2015-07-20T14:05:14Z</time>
      </trkpt>
      <trkpt lat="47.731326716020703" lon="11.479148324579">
        <ele>1179.299999999999955</ele>
        <time>2015-07-20T14:05:35Z</time>
      </trkpt>
      <trkpt lat="47.731353454291821" lon="11.479163495823741">
        <ele>1178.440000000000055</ele>
        <time>2015-07-20T14:06:00Z</time>
      </trkpt>
      <trkpt lat="47.731356639415026" lon="11.47914539091289">
        <ele>1178.450000000000045</ele>
        <time>2015-07-20T14:06:16Z</time>
      </trkpt>
      <trkpt lat="47.731359992176294" lon="11.479191659018397">
        <ele>1178.25</ele>
        <time>2015-07-20T14:06:44Z</time>
      </trkpt>
      <trkpt lat="47.731385640799999" lon="11.479137931019068">
        <ele>1178.690000000000055</ele>
        <time>2015-07-20T14:07:05Z</time>
      </trkpt>
      <trkpt lat="47.73134658113122" lon="11.479171374812722">
        <ele>1178.210000000000036</ele>
        <time>2015-07-20T14:07:22Z</time>
      </trkpt>
      <trkpt lat="47.731330571696162" lon="11.479151509702206">
        <ele>1178.200000000000045</ele>
        <time>2015-07-20T14:07:43Z</time>
      </trkpt>
      <trkpt lat="47.731337528675795" lon="11.479139691218734">
        <ele>1178.220000000000027</ele>
        <time>2015-07-20T14:08:02Z</time>
      </trkpt>
      <trkpt lat="47.731328643858433" lon="11.479091243818402">
        <ele>1178.150000000000091</ele>
        <time>2015-07-20T14:08:22Z</time>
      </trkpt>
      <trkpt lat="47.731375163421035" lon="11.479037012904882">
        <ele>1175.839999999999918</ele>
        <time>2015-07-20T14:08:41Z</time>
      </trkpt>
      <trkpt lat="47.731450768187642" lon="11.479016812518239">
        <ele>1175.039999999999964</ele>
        <time>2015-07-20T14:08:57Z</time>
      </trkpt>
      <trkpt lat="47.731526456773281" lon="11.478978507220745">
        <ele>1173.549999999999955</ele>
        <time>2015-07-20T14:09:23Z</time>
      </trkpt>
      <trkpt lat="47.731646317988634" lon="11.478958642110229">
        <ele>1173.960000000000036</ele>
        <time>2015-07-20T14:09:40Z</time>
      </trkpt>
      <trkpt lat="47.731796437874436" lon="11.478846240788698">
        <ele>1173.740000000000009</ele>
        <time>2015-07-20T14:09:59Z</time>
      </trkpt>
      <trkpt lat="47.731919316574931" lon="11.47870265878737">
        <ele>1172.089999999999918</ele>
        <time>2015-07-20T14:10:06Z</time>
      </trkpt>
      <trkpt lat="47.731944546103477" lon="11.478676088154316">
        <ele>1171.720000000000027</ele>
        <time>2015-07-20T14:10:07Z</time>
      </trkpt>
      <trkpt lat="47.731968266889453" lon="11.47865479812026">
        <ele>1171.569999999999936</ele>
        <time>2015-07-20T14:10:08Z</time>
      </trkpt>
      <trkpt lat="47.731989221647382" lon="11.478647002950311">
        <ele>1170.920000000000073</ele>
        <time>2015-07-20T14:10:09Z</time>
      </trkpt>
      <trkpt lat="47.732016043737531" lon="11.478625042364001">
        <ele>1170.920000000000073</ele>
        <time>2015-07-20T14:10:11Z</time>
      </trkpt>
      <trkpt lat="47.732035908848047" lon="11.478604590520263">
        <ele>1170.829999999999927</ele>
        <time>2015-07-20T14:10:12Z</time>
      </trkpt>
      <trkpt lat="47.732112184166908" lon="11.478501576930285">
        <ele>1168.839999999999918</ele>
        <time>2015-07-20T14:10:16Z</time>
      </trkpt>
      <trkpt lat="47.732146130874753" lon="11.478499313816428">
        <ele>1168.880000000000109</ele>
        <time>2015-07-20T14:10:18Z</time>
      </trkpt>
      <trkpt lat="47.732179155573249" lon="11.478480705991387">
        <ele>1167.930000000000064</ele>
        <time>2015-07-20T14:10:20Z</time>
      </trkpt>
      <trkpt lat="47.732200948521495" lon="11.478471653535962">
        <ele>1167.799999999999955</ele>
        <time>2015-07-20T14:10:21Z</time>
      </trkpt>
      <trkpt lat="47.732233302667737" lon="11.478457907214761">
        <ele>1167.019999999999982</ele>
        <time>2015-07-20T14:10:22Z</time>
      </trkpt>
      <trkpt lat="47.732270434498787" lon="11.478445837274194">
        <ele>1166.849999999999909</ele>
        <time>2015-07-20T14:10:23Z</time>
      </trkpt>
      <trkpt lat="47.732300274074078" lon="11.478432510048151">
        <ele>1166.440000000000055</ele>
        <time>2015-07-20T14:10:24Z</time>
      </trkpt>
      <trkpt lat="47.732438575476408" lon="11.47835036739707">
        <ele>1165.289999999999964</ele>
        <time>2015-07-20T14:10:32Z</time>
      </trkpt>
      <trkpt lat="47.732454920187593" lon="11.478325556963682">
        <ele>1165.579999999999927</ele>
        <time>2015-07-20T14:10:33Z</time>
      </trkpt>
      <trkpt lat="47.73247579112649" lon="11.478302171453834">
        <ele>1165.509999999999991</ele>
        <time>2015-07-20T14:10:34Z</time>
      </trkpt>
      <trkpt lat="47.732503954321146" lon="11.478279959410429">
        <ele>1164.619999999999891</ele>
        <time>2015-07-20T14:10:35Z</time>
      </trkpt>
      <trkpt lat="47.732532788068056" lon="11.478259926661849">
        <ele>1164.319999999999936</ele>
        <time>2015-07-20T14:10:36Z</time>
      </trkpt>
      <trkpt lat="47.732559610158205" lon="11.47823603823781">
        <ele>1164.460000000000036</ele>
        <time>2015-07-20T14:10:37Z</time>
      </trkpt>
      <trkpt lat="47.732590707018971" lon="11.478207875043154">
        <ele>1164.619999999999891</ele>
        <time>2015-07-20T14:10:38Z</time>
      </trkpt>
      <trkpt lat="47.732616271823645" lon="11.478180885314941">
        <ele>1164.519999999999982</ele>
        <time>2015-07-20T14:10:39Z</time>
      </trkpt>
      <trkpt lat="47.732637729495764" lon="11.478160098195076">
        <ele>1164.690000000000055</ele>
        <time>2015-07-20T14:10:40Z</time>
      </trkpt>
      <trkpt lat="47.732659270986915" lon="11.478139143437147">
        <ele>1164.279999999999973</ele>
        <time>2015-07-20T14:10:41Z</time>
      </trkpt>
      <trkpt lat="47.732681734487414" lon="11.478126905858517">
        <ele>1164.309999999999945</ele>
        <time>2015-07-20T14:10:42Z</time>
      </trkpt>
      <trkpt lat="47.732699839398265" lon="11.47811533883214">
        <ele>1164.579999999999927</ele>
        <time>2015-07-20T14:10:43Z</time>
      </trkpt>
      <trkpt lat="47.732715848833323" lon="11.478094886988401">
        <ele>1164.369999999999891</ele>
        <time>2015-07-20T14:10:44Z</time>
      </trkpt>
      <trkpt lat="47.732733283191919" lon="11.478079129010439">
        <ele>1164.3599999999999</ele>
        <time>2015-07-20T14:10:45Z</time>
      </trkpt>
      <trkpt lat="47.732755579054356" lon="11.478064795956016">
        <ele>1164.769999999999982</ele>
        <time>2015-07-20T14:10:46Z</time>
      </trkpt>
      <trkpt lat="47.732912404462695" lon="11.47792624309659">
        <ele>1163.279999999999973</ele>
        <time>2015-07-20T14:10:54Z</time>
      </trkpt>
      <trkpt lat="47.732926569879055" lon="11.47791693918407">
        <ele>1162.980000000000018</ele>
        <time>2015-07-20T14:10:55Z</time>
      </trkpt>
      <trkpt lat="47.732944674789906" lon="11.477755503728986">
        <ele>1163.180000000000064</ele>
        <time>2015-07-20T14:10:59Z</time>
      </trkpt>
      <trkpt lat="47.733031008392572" lon="11.477393992245197">
        <ele>1159.759999999999991</ele>
        <time>2015-07-20T14:11:20Z</time>
      </trkpt>
      <trkpt lat="47.733047939836979" lon="11.477371947839856">
        <ele>1159.730000000000018</ele>
        <time>2015-07-20T14:11:21Z</time>
      </trkpt>
      <trkpt lat="47.733064703643322" lon="11.477358369156718">
        <ele>1159.430000000000064</ele>
        <time>2015-07-20T14:11:22Z</time>
      </trkpt>
      <trkpt lat="47.733081383630633" lon="11.477348059415817">
        <ele>1158.670000000000073</ele>
        <time>2015-07-20T14:11:23Z</time>
      </trkpt>
      <trkpt lat="47.733101919293404" lon="11.477322159335017">
        <ele>1158.789999999999964</ele>
        <time>2015-07-20T14:11:25Z</time>
      </trkpt>
      <trkpt lat="47.733118180185556" lon="11.477289302274585">
        <ele>1157.680000000000064</ele>
        <time>2015-07-20T14:11:27Z</time>
      </trkpt>
      <trkpt lat="47.733120610937476" lon="11.477272622287273">
        <ele>1157.25</ele>
        <time>2015-07-20T14:11:28Z</time>
      </trkpt>
      <trkpt lat="47.733142403885722" lon="11.477208500728011">
        <ele>1154.230000000000018</ele>
        <time>2015-07-20T14:11:32Z</time>
      </trkpt>
      <trkpt lat="47.733169812709093" lon="11.477171285077929">
        <ele>1153.150000000000091</ele>
        <time>2015-07-20T14:11:35Z</time>
      </trkpt>
      <trkpt lat="47.733197053894401" lon="11.477059805765748">
        <ele>1151.819999999999936</ele>
        <time>2015-07-20T14:11:41Z</time>
      </trkpt>
      <trkpt lat="47.733204681426287" lon="11.476896442472935">
        <ele>1150.769999999999982</ele>
        <time>2015-07-20T14:11:58Z</time>
      </trkpt>
      <trkpt lat="47.733292356133461" lon="11.47661573253572">
        <ele>1147.309999999999945</ele>
        <time>2015-07-20T14:12:17Z</time>
      </trkpt>
      <trkpt lat="47.733398638665676" lon="11.476385565474629">
        <ele>1145.059999999999945</ele>
        <time>2015-07-20T14:12:23Z</time>
      </trkpt>
      <trkpt lat="47.733402326703072" lon="11.476353378966451">
        <ele>1144.710000000000036</ele>
        <time>2015-07-20T14:12:24Z</time>
      </trkpt>
      <trkpt lat="47.733352286741138" lon="11.476316330954432">
        <ele>1141.829999999999927</ele>
        <time>2015-07-20T14:12:31Z</time>
      </trkpt>
      <trkpt lat="47.733261007815599" lon="11.476246174424887">
        <ele>1140.309999999999945</ele>
        <time>2015-07-20T14:12:39Z</time>
      </trkpt>
      <trkpt lat="47.733242735266685" lon="11.47623410448432">
        <ele>1139.089999999999918</ele>
        <time>2015-07-20T14:12:41Z</time>
      </trkpt>
      <trkpt lat="47.733123041689396" lon="11.476195799186826">
        <ele>1137.430000000000064</ele>
        <time>2015-07-20T14:12:58Z</time>
      </trkpt>
      <trkpt lat="47.733050789684057" lon="11.4761280734092">
        <ele>1134.3900000000001</ele>
        <time>2015-07-20T14:13:11Z</time>
      </trkpt>
      <trkpt lat="47.733019441366196" lon="11.476020617410541">
        <ele>1131.369999999999891</ele>
        <time>2015-07-20T14:13:32Z</time>
      </trkpt>
      <trkpt lat="47.733015837147832" lon="11.476005362346768">
        <ele>1131.589999999999918</ele>
        <time>2015-07-20T14:13:33Z</time>
      </trkpt>
      <trkpt lat="47.733048694208264" lon="11.475732866674662">
        <ele>1129.400000000000091</ele>
        <time>2015-07-20T14:13:49Z</time>
      </trkpt>
      <trkpt lat="47.733003934845328" lon="11.475754156708717">
        <ele>1129.279999999999973</ele>
        <time>2015-07-20T14:14:13Z</time>
      </trkpt>
      <trkpt lat="47.733003431931138" lon="11.47577385418117">
        <ele>1129.670000000000073</ele>
        <time>2015-07-20T14:14:37Z</time>
      </trkpt>
      <trkpt lat="47.732968060299754" lon="11.475748792290688">
        <ele>1126.339999999999918</ele>
        <time>2015-07-20T14:14:49Z</time>
      </trkpt>
      <trkpt lat="47.732942411676049" lon="11.475739069283009">
        <ele>1123.700000000000045</ele>
        <time>2015-07-20T14:14:51Z</time>
      </trkpt>
      <trkpt lat="47.73291802033782" lon="11.475717527791858">
        <ele>1120.789999999999964</ele>
        <time>2015-07-20T14:14:53Z</time>
      </trkpt>
      <trkpt lat="47.732906872406602" lon="11.475711911916733">
        <ele>1120.970000000000027</ele>
        <time>2015-07-20T14:14:54Z</time>
      </trkpt>
      <trkpt lat="47.732871333137155" lon="11.475667739287019">
        <ele>1117.950000000000045</ele>
        <time>2015-07-20T14:14:59Z</time>
      </trkpt>
      <trkpt lat="47.73284275084734" lon="11.475634211674333">
        <ele>1116.160000000000082</ele>
        <time>2015-07-20T14:15:02Z</time>
      </trkpt>
      <trkpt lat="47.732820203527808" lon="11.475542597472668">
        <ele>1113.009999999999991</ele>
        <time>2015-07-20T14:15:09Z</time>
      </trkpt>
      <trkpt lat="47.732809642329812" lon="11.475434470921755">
        <ele>1110.039999999999964</ele>
        <time>2015-07-20T14:15:13Z</time>
      </trkpt>
      <trkpt lat="47.732804948464036" lon="11.475415360182524">
        <ele>1109.8900000000001</ele>
        <time>2015-07-20T14:15:14Z</time>
      </trkpt>
      <trkpt lat="47.732816264033318" lon="11.475344365462661">
        <ele>1110.059999999999945</ele>
        <time>2015-07-20T14:15:26Z</time>
      </trkpt>
      <trkpt lat="47.732793968170881" lon="11.475246632471681">
        <ele>1106.849999999999909</ele>
        <time>2015-07-20T14:15:41Z</time>
      </trkpt>
      <trkpt lat="47.732789190486073" lon="11.475248895585537">
        <ele>1106.819999999999936</ele>
        <time>2015-07-20T14:15:42Z</time>
      </trkpt>
      <trkpt lat="47.732747280970216" lon="11.475215116515756">
        <ele>1105.539999999999964</ele>
        <time>2015-07-20T14:15:50Z</time>
      </trkpt>
      <trkpt lat="47.732700845226645" lon="11.475163567811251">
        <ele>1102.549999999999955</ele>
        <time>2015-07-20T14:15:54Z</time>
      </trkpt>
      <trkpt lat="47.732665222138166" lon="11.475064409896731">
        <ele>1100.1099999999999</ele>
        <time>2015-07-20T14:16:00Z</time>
      </trkpt>
      <trkpt lat="47.732655247673392" lon="11.475015208125114">
        <ele>1098.480000000000018</ele>
        <time>2015-07-20T14:16:02Z</time>
      </trkpt>
      <trkpt lat="47.732645943760872" lon="11.4749900624156">
        <ele>1097.970000000000027</ele>
        <time>2015-07-20T14:16:03Z</time>
      </trkpt>
      <trkpt lat="47.732638819143176" lon="11.474973047152162">
        <ele>1097.599999999999909</ele>
        <time>2015-07-20T14:16:04Z</time>
      </trkpt>
      <trkpt lat="47.732597328722477" lon="11.474798284471035">
        <ele>1094.839999999999918</ele>
        <time>2015-07-20T14:16:11Z</time>
      </trkpt>
      <trkpt lat="47.732568746432662" lon="11.474662665277719">
        <ele>1092.150000000000091</ele>
        <time>2015-07-20T14:16:16Z</time>
      </trkpt>
      <trkpt lat="47.73257939144969" lon="11.474481532350183">
        <ele>1091.180000000000064</ele>
        <time>2015-07-20T14:16:21Z</time>
      </trkpt>
      <trkpt lat="47.732576793059707" lon="11.474424703046679">
        <ele>1091.190000000000055</ele>
        <time>2015-07-20T14:16:22Z</time>
      </trkpt>
      <trkpt lat="47.732561454176903" lon="11.474296459928155">
        <ele>1091.130000000000109</ele>
        <time>2015-07-20T14:16:31Z</time>
      </trkpt>
      <trkpt lat="47.73255592212081" lon="11.4742527063936">
        <ele>1090.940000000000055</ele>
        <time>2015-07-20T14:16:35Z</time>
      </trkpt>
      <trkpt lat="47.732530608773232" lon="11.47417651489377">
        <ele>1091.289999999999964</ele>
        <time>2015-07-20T14:17:00Z</time>
      </trkpt>
      <trkpt lat="47.732521137222648" lon="11.474157068878412">
        <ele>1091.069999999999936</ele>
        <time>2015-07-20T14:17:07Z</time>
      </trkpt>
      <trkpt lat="47.732505463063717" lon="11.474028071388602">
        <ele>1090.430000000000064</ele>
        <time>2015-07-20T14:17:12Z</time>
      </trkpt>
      <trkpt lat="47.732507307082415" lon="11.473988844081759">
        <ele>1089.829999999999927</ele>
        <time>2015-07-20T14:17:13Z</time>
      </trkpt>
      <trkpt lat="47.732513174414635" lon="11.47394928149879">
        <ele>1089.420000000000073</ele>
        <time>2015-07-20T14:17:14Z</time>
      </trkpt>
      <trkpt lat="47.732581738382578" lon="11.473837550729513">
        <ele>1089.880000000000109</ele>
        <time>2015-07-20T14:17:25Z</time>
      </trkpt>
      <trkpt lat="47.73258039727807" lon="11.473775943741202">
        <ele>1089.430000000000064</ele>
        <time>2015-07-20T14:17:51Z</time>
      </trkpt>
      <trkpt lat="47.732622809708118" lon="11.473715342581272">
        <ele>1089.019999999999982</ele>
        <time>2015-07-20T14:18:14Z</time>
      </trkpt>
      <trkpt lat="47.732633538544178" lon="11.473695728927851">
        <ele>1089.009999999999991</ele>
        <time>2015-07-20T14:18:15Z</time>
      </trkpt>
      <trkpt lat="47.732650553807616" lon="11.47366932593286">
        <ele>1089.069999999999936</ele>
        <time>2015-07-20T14:18:16Z</time>
      </trkpt>
      <trkpt lat="47.732669496908784" lon="11.473645437508821">
        <ele>1089</ele>
        <time>2015-07-20T14:18:17Z</time>
      </trkpt>
      <trkpt lat="47.732690954580903" lon="11.473627584055066">
        <ele>1088.920000000000073</ele>
        <time>2015-07-20T14:18:18Z</time>
      </trkpt>
      <trkpt lat="47.732709478586912" lon="11.473612496629357">
        <ele>1088.299999999999955</ele>
        <time>2015-07-20T14:18:19Z</time>
      </trkpt>
      <trkpt lat="47.732718866318464" lon="11.473595649003983">
        <ele>1088.730000000000018</ele>
        <time>2015-07-20T14:18:20Z</time>
      </trkpt>
      <trkpt lat="47.732728589326143" lon="11.473570670932531">
        <ele>1088.170000000000073</ele>
        <time>2015-07-20T14:18:21Z</time>
      </trkpt>
      <trkpt lat="47.732742503285408" lon="11.473547033965588">
        <ele>1088.210000000000036</ele>
        <time>2015-07-20T14:18:22Z</time>
      </trkpt>
      <trkpt lat="47.732761278748512" lon="11.473528174683452">
        <ele>1087.829999999999927</ele>
        <time>2015-07-20T14:18:23Z</time>
      </trkpt>
      <trkpt lat="47.732779970392585" lon="11.473514679819345">
        <ele>1087.619999999999891</ele>
        <time>2015-07-20T14:18:24Z</time>
      </trkpt>
      <trkpt lat="47.732795476913452" lon="11.473501352593303">
        <ele>1086.910000000000082</ele>
        <time>2015-07-20T14:18:25Z</time>
      </trkpt>
      <trkpt lat="47.732810731977224" lon="11.473481738939881">
        <ele>1085.769999999999982</ele>
        <time>2015-07-20T14:18:26Z</time>
      </trkpt>
      <trkpt lat="47.73282372392714" lon="11.473465645685792">
        <ele>1086.1400000000001</ele>
        <time>2015-07-20T14:18:27Z</time>
      </trkpt>
      <trkpt lat="47.732830680906773" lon="11.473449720069766">
        <ele>1085.720000000000027</ele>
        <time>2015-07-20T14:18:28Z</time>
      </trkpt>
      <trkpt lat="47.732914416119456" lon="11.473344778642058">
        <ele>1083.950000000000045</ele>
        <time>2015-07-20T14:18:36Z</time>
      </trkpt>
      <trkpt lat="47.732932018116117" lon="11.473323153331876">
        <ele>1083.900000000000091</ele>
        <time>2015-07-20T14:18:37Z</time>
      </trkpt>
      <trkpt lat="47.732950542122126" lon="11.473309155553579">
        <ele>1084.180000000000064</ele>
        <time>2015-07-20T14:18:38Z</time>
      </trkpt>
      <trkpt lat="47.732962779700756" lon="11.473294654861093">
        <ele>1084.200000000000045</ele>
        <time>2015-07-20T14:18:39Z</time>
      </trkpt>
      <trkpt lat="47.73297225125134" lon="11.473280154168606">
        <ele>1083.769999999999982</ele>
        <time>2015-07-20T14:18:40Z</time>
      </trkpt>
      <trkpt lat="47.732981638982892" lon="11.473260959610343">
        <ele>1083.589999999999918</ele>
        <time>2015-07-20T14:18:41Z</time>
      </trkpt>
      <trkpt lat="47.733043413609266" lon="11.473105642944574">
        <ele>1083.730000000000018</ele>
        <time>2015-07-20T14:18:48Z</time>
      </trkpt>
      <trkpt lat="47.733063362538815" lon="11.473051998764277">
        <ele>1083.450000000000045</ele>
        <time>2015-07-20T14:18:50Z</time>
      </trkpt>
      <trkpt lat="47.733089094981551" lon="11.473003383725882">
        <ele>1083.509999999999991</ele>
        <time>2015-07-20T14:18:53Z</time>
      </trkpt>
      <trkpt lat="47.733099488541484" lon="11.472987374290824">
        <ele>1083.329999999999927</ele>
        <time>2015-07-20T14:18:54Z</time>
      </trkpt>
      <trkpt lat="47.733169309794903" lon="11.472933059558272">
        <ele>1082.059999999999945</ele>
        <time>2015-07-20T14:18:59Z</time>
      </trkpt>
      <trkpt lat="47.733185151591897" lon="11.472896179184318">
        <ele>1081.779999999999973</ele>
        <time>2015-07-20T14:19:00Z</time>
      </trkpt>
      <trkpt lat="47.733209291473031" lon="11.472886959090829">
        <ele>1081.289999999999964</ele>
        <time>2015-07-20T14:19:01Z</time>
      </trkpt>
      <trkpt lat="47.733235526829958" lon="11.472847731783986">
        <ele>1080.619999999999891</ele>
        <time>2015-07-20T14:19:03Z</time>
      </trkpt>
      <trkpt lat="47.733291266486049" lon="11.472783107310534">
        <ele>1080.210000000000036</ele>
        <time>2015-07-20T14:19:06Z</time>
      </trkpt>
      <trkpt lat="47.733307275921106" lon="11.472761146724224">
        <ele>1080.160000000000082</ele>
        <time>2015-07-20T14:19:07Z</time>
      </trkpt>
      <trkpt lat="47.733325967565179" lon="11.472758967429399">
        <ele>1080.019999999999982</ele>
        <time>2015-07-20T14:19:08Z</time>
      </trkpt>
      <trkpt lat="47.733337869867682" lon="11.472750920802355">
        <ele>1080.019999999999982</ele>
        <time>2015-07-20T14:19:09Z</time>
      </trkpt>
      <trkpt lat="47.733353041112423" lon="11.472753016278148">
        <ele>1079.759999999999991</ele>
        <time>2015-07-20T14:19:10Z</time>
      </trkpt>
      <trkpt lat="47.733400063589215" lon="11.472781682386994">
        <ele>1079.5</ele>
        <time>2015-07-20T14:19:19Z</time>
      </trkpt>
      <trkpt lat="47.733513889834285" lon="11.472769025713205">
        <ele>1078.059999999999945</ele>
        <time>2015-07-20T14:19:33Z</time>
      </trkpt>
      <trkpt lat="47.733683120459318" lon="11.47291487082839">
        <ele>1076.309999999999945</ele>
        <time>2015-07-20T14:19:41Z</time>
      </trkpt>
      <trkpt lat="47.733723688870668" lon="11.472867093980312">
        <ele>1076.25</ele>
        <time>2015-07-20T14:19:42Z</time>
      </trkpt>
      <trkpt lat="47.733756043016911" lon="11.472894167527556">
        <ele>1075.769999999999982</ele>
        <time>2015-07-20T14:19:43Z</time>
      </trkpt>
      <trkpt lat="47.733906330540776" lon="11.473106062039733">
        <ele>1073.119999999999891</ele>
        <time>2015-07-20T14:19:53Z</time>
      </trkpt>
      <trkpt lat="47.734006326645613" lon="11.473191808909178">
        <ele>1070.799999999999955</ele>
        <time>2015-07-20T14:20:01Z</time>
      </trkpt>
      <trkpt lat="47.734068101271987" lon="11.473206812515855">
        <ele>1070.869999999999891</ele>
        <time>2015-07-20T14:20:06Z</time>
      </trkpt>
      <trkpt lat="47.734097018837929" lon="11.47322223521769">
        <ele>1069.8599999999999</ele>
        <time>2015-07-20T14:20:13Z</time>
      </trkpt>
      <trkpt lat="47.734133480116725" lon="11.473225336521864">
        <ele>1069.380000000000109</ele>
        <time>2015-07-20T14:20:17Z</time>
      </trkpt>
      <trkpt lat="47.73430815897882" lon="11.473338156938553">
        <ele>1065.5</ele>
        <time>2015-07-20T14:20:31Z</time>
      </trkpt>
      <trkpt lat="47.734329449012876" lon="11.473363051190972">
        <ele>1064.319999999999936</ele>
        <time>2015-07-20T14:20:33Z</time>
      </trkpt>
      <trkpt lat="47.734368927776814" lon="11.473387107253075">
        <ele>1062.240000000000009</ele>
        <time>2015-07-20T14:20:36Z</time>
      </trkpt>
      <trkpt lat="47.734521059319377" lon="11.473430190235376">
        <ele>1059.039999999999964</ele>
        <time>2015-07-20T14:20:56Z</time>
      </trkpt>
      <trkpt lat="47.734531620517373" lon="11.473423652350903">
        <ele>1058.970000000000027</ele>
        <time>2015-07-20T14:20:58Z</time>
      </trkpt>
      <trkpt lat="47.734573446214199" lon="11.473356261849403">
        <ele>1055.519999999999982</ele>
        <time>2015-07-20T14:21:10Z</time>
      </trkpt>
      <trkpt lat="47.734634466469288" lon="11.473347544670105">
        <ele>1052.519999999999982</ele>
        <time>2015-07-20T14:21:29Z</time>
      </trkpt>
      <trkpt lat="47.734730187803507" lon="11.473448127508163">
        <ele>1050.150000000000091</ele>
        <time>2015-07-20T14:21:52Z</time>
      </trkpt>
      <trkpt lat="47.734755920246243" lon="11.473334217444062">
        <ele>1047.119999999999891</ele>
        <time>2015-07-20T14:22:12Z</time>
      </trkpt>
      <trkpt lat="47.734735300764441" lon="11.473258445039392">
        <ele>1046.8900000000001</ele>
        <time>2015-07-20T14:22:33Z</time>
      </trkpt>
      <trkpt lat="47.734792549163103" lon="11.473280070349574">
        <ele>1047.569999999999936</ele>
        <time>2015-07-20T14:23:08Z</time>
      </trkpt>
      <trkpt lat="47.734742341563106" lon="11.473361793905497">
        <ele>1044.380000000000109</ele>
        <time>2015-07-20T14:23:25Z</time>
      </trkpt>
      <trkpt lat="47.734754830598831" lon="11.473431782796979">
        <ele>1042.75</ele>
        <time>2015-07-20T14:23:28Z</time>
      </trkpt>
      <trkpt lat="47.734807133674622" lon="11.473485762253404">
        <ele>1039.6400000000001</ele>
        <time>2015-07-20T14:23:35Z</time>
      </trkpt>
      <trkpt lat="47.73481635376811" lon="11.473491210490465">
        <ele>1039.6099999999999</ele>
        <time>2015-07-20T14:23:36Z</time>
      </trkpt>
      <trkpt lat="47.734947865828872" lon="11.473443014547229">
        <ele>1036.410000000000082</ele>
        <time>2015-07-20T14:23:56Z</time>
      </trkpt>
      <trkpt lat="47.73502741008997" lon="11.473399009555578">
        <ele>1034.160000000000082</ele>
        <time>2015-07-20T14:24:00Z</time>
      </trkpt>
      <trkpt lat="47.735101841390133" lon="11.473359782248735">
        <ele>1031.8900000000001</ele>
        <time>2015-07-20T14:24:03Z</time>
      </trkpt>
      <trkpt lat="47.735335193574429" lon="11.473255008459091">
        <ele>1028.130000000000109</ele>
        <time>2015-07-20T14:24:11Z</time>
      </trkpt>
      <trkpt lat="47.735408619046211" lon="11.473225085064769">
        <ele>1026.220000000000027</ele>
        <time>2015-07-20T14:24:15Z</time>
      </trkpt>
      <trkpt lat="47.735430328175426" lon="11.473262216895819">
        <ele>1026.480000000000018</ele>
        <time>2015-07-20T14:24:28Z</time>
      </trkpt>
      <trkpt lat="47.735496209934354" lon="11.473236987367272">
        <ele>1027.029999999999973</ele>
        <time>2015-07-20T14:24:54Z</time>
      </trkpt>
      <trkpt lat="47.735496126115322" lon="11.473288033157587">
        <ele>1026.759999999999991</ele>
        <time>2015-07-20T14:24:59Z</time>
      </trkpt>
      <trkpt lat="47.735484223812819" lon="11.473295157775283">
        <ele>1026.380000000000109</ele>
        <time>2015-07-20T14:25:00Z</time>
      </trkpt>
      <trkpt lat="47.735509872436523" lon="11.473305635154247">
        <ele>1025.200000000000045</ele>
        <time>2015-07-20T14:25:07Z</time>
      </trkpt>
      <trkpt lat="47.735607186332345" lon="11.473342766985297">
        <ele>1022.120000000000005</ele>
        <time>2015-07-20T14:25:25Z</time>
      </trkpt>
      <trkpt lat="47.735671810805798" lon="11.473330948501825">
        <ele>1021.129999999999995</ele>
        <time>2015-07-20T14:25:38Z</time>
      </trkpt>
      <trkpt lat="47.735727382823825" lon="11.473387107253075">
        <ele>1018.100000000000023</ele>
        <time>2015-07-20T14:25:56Z</time>
      </trkpt>
      <trkpt lat="47.735798545181751" lon="11.473418707028031">
        <ele>1014.940000000000055</ele>
        <time>2015-07-20T14:26:08Z</time>
      </trkpt>
      <trkpt lat="47.735807597637177" lon="11.473425915464759">
        <ele>1014.940000000000055</ele>
        <time>2015-07-20T14:26:09Z</time>
      </trkpt>
      <trkpt lat="47.735822182148695" lon="11.473434632644057">
        <ele>1014.82000000000005</ele>
        <time>2015-07-20T14:26:10Z</time>
      </trkpt>
      <trkpt lat="47.735930811613798" lon="11.473481068387628">
        <ele>1013.840000000000032</ele>
        <time>2015-07-20T14:26:23Z</time>
      </trkpt>
      <trkpt lat="47.736031478270888" lon="11.473520044237375">
        <ele>1011.230000000000018</ele>
        <time>2015-07-20T14:26:36Z</time>
      </trkpt>
      <trkpt lat="47.736086715012789" lon="11.473530186340213">
        <ele>1010.559999999999945</ele>
        <time>2015-07-20T14:26:43Z</time>
      </trkpt>
      <trkpt lat="47.736178832128644" lon="11.473519122228026">
        <ele>1009.059999999999945</ele>
        <time>2015-07-20T14:26:49Z</time>
      </trkpt>
      <trkpt lat="47.736197775229812" lon="11.473516188561916">
        <ele>1008.809999999999945</ele>
        <time>2015-07-20T14:26:50Z</time>
      </trkpt>
      <trkpt lat="47.736299615353346" lon="11.473510405048728">
        <ele>1006.539999999999964</ele>
        <time>2015-07-20T14:26:56Z</time>
      </trkpt>
      <trkpt lat="47.736368514597416" lon="11.473548877984285">
        <ele>1004.019999999999982</ele>
        <time>2015-07-20T14:27:02Z</time>
      </trkpt>
      <trkpt lat="47.736387960612774" lon="11.473566563799977">
        <ele>1003.409999999999968</ele>
        <time>2015-07-20T14:27:03Z</time>
      </trkpt>
      <trkpt lat="47.736462811008096" lon="11.473658094182611">
        <ele>1001.740000000000009</ele>
        <time>2015-07-20T14:27:09Z</time>
      </trkpt>
      <trkpt lat="47.736475300043821" lon="11.473672762513161">
        <ele>1000.879999999999995</ele>
        <time>2015-07-20T14:27:10Z</time>
      </trkpt>
      <trkpt lat="47.736496338620782" lon="11.473692879080772">
        <ele>1000.009999999999991</ele>
        <time>2015-07-20T14:27:11Z</time>
      </trkpt>
      <trkpt lat="47.736520310863853" lon="11.473704781383276">
        <ele>999.610000000000014</ele>
        <time>2015-07-20T14:27:12Z</time>
      </trkpt>
      <trkpt lat="47.736535230651498" lon="11.473728166893125">
        <ele>999.100000000000023</ele>
        <time>2015-07-20T14:27:13Z</time>
      </trkpt>
      <trkpt lat="47.736597340553999" lon="11.473754737526178">
        <ele>998.159999999999968</ele>
        <time>2015-07-20T14:27:16Z</time>
      </trkpt>
      <trkpt lat="47.736625419929624" lon="11.473757671192288">
        <ele>997.379999999999995</ele>
        <time>2015-07-20T14:27:17Z</time>
      </trkpt>
      <trkpt lat="47.736640004441142" lon="11.473759012296796">
        <ele>997.529999999999973</ele>
        <time>2015-07-20T14:27:18Z</time>
      </trkpt>
      <trkpt lat="47.736760871484876" lon="11.473827073350549">
        <ele>996.039999999999964</ele>
        <time>2015-07-20T14:27:25Z</time>
      </trkpt>
      <trkpt lat="47.73681091144681" lon="11.473852470517159">
        <ele>995.220000000000027</ele>
        <time>2015-07-20T14:27:28Z</time>
      </trkpt>
      <trkpt lat="47.736861789599061" lon="11.473863869905472">
        <ele>995.690000000000055</ele>
        <time>2015-07-20T14:27:39Z</time>
      </trkpt>
      <trkpt lat="47.736883498728275" lon="11.473866971209645">
        <ele>995.970000000000027</ele>
        <time>2015-07-20T14:27:41Z</time>
      </trkpt>
      <trkpt lat="47.73694041185081" lon="11.473847609013319">
        <ele>995.919999999999959</ele>
        <time>2015-07-20T14:27:49Z</time>
      </trkpt>
      <trkpt lat="47.737069660797715" lon="11.473889518529177">
        <ele>995.399999999999977</ele>
        <time>2015-07-20T14:28:15Z</time>
      </trkpt>
      <trkpt lat="47.737082652747631" lon="11.473895972594619">
        <ele>995.25</ele>
        <time>2015-07-20T14:28:16Z</time>
      </trkpt>
      <trkpt lat="47.737185247242451" lon="11.473930925130844">
        <ele>993.32000000000005</ele>
        <time>2015-07-20T14:28:35Z</time>
      </trkpt>
      <trkpt lat="47.737224893644452" lon="11.473960010334849">
        <ele>992.690000000000055</ele>
        <time>2015-07-20T14:28:51Z</time>
      </trkpt>
      <trkpt lat="47.737231012433767" lon="11.47397224791348">
        <ele>991.370000000000005</ele>
        <time>2015-07-20T14:29:14Z</time>
      </trkpt>
      <trkpt lat="47.73728147149086" lon="11.473949365317822">
        <ele>988.220000000000027</ele>
        <time>2015-07-20T14:29:28Z</time>
      </trkpt>
      <trkpt lat="47.737378533929586" lon="11.473891781643033">
        <ele>985.82000000000005</ele>
        <time>2015-07-20T14:29:49Z</time>
      </trkpt>
      <trkpt lat="47.737412145361304" lon="11.473834700882435">
        <ele>984.789999999999964</ele>
        <time>2015-07-20T14:30:06Z</time>
      </trkpt>
      <trkpt lat="47.737434441223741" lon="11.473916256800294">
        <ele>984.940000000000055</ele>
        <time>2015-07-20T14:30:32Z</time>
      </trkpt>
      <trkpt lat="47.737439135089517" lon="11.473863534629345">
        <ele>983.129999999999995</ele>
        <time>2015-07-20T14:30:57Z</time>
      </trkpt>
      <trkpt lat="47.737398650497198" lon="11.473793042823672">
        <ele>981.759999999999991</ele>
        <time>2015-07-20T14:31:01Z</time>
      </trkpt>
      <trkpt lat="47.737388173118234" lon="11.473761862143874">
        <ele>980.620000000000005</ele>
        <time>2015-07-20T14:31:02Z</time>
      </trkpt>
      <trkpt lat="47.737384317442775" lon="11.473707715049386">
        <ele>979.909999999999968</ele>
        <time>2015-07-20T14:31:04Z</time>
      </trkpt>
      <trkpt lat="47.737374342978001" lon="11.473683407530189">
        <ele>980.039999999999964</ele>
        <time>2015-07-20T14:31:07Z</time>
      </trkpt>
      <trkpt lat="47.737350035458803" lon="11.473579723387957">
        <ele>976.759999999999991</ele>
        <time>2015-07-20T14:31:15Z</time>
      </trkpt>
      <trkpt lat="47.737334948033094" lon="11.473467657342553">
        <ele>974.980000000000018</ele>
        <time>2015-07-20T14:31:19Z</time>
      </trkpt>
      <trkpt lat="47.737324554473162" lon="11.473405379801989">
        <ele>973.340000000000032</ele>
        <time>2015-07-20T14:31:20Z</time>
      </trkpt>
      <trkpt lat="47.737315082922578" lon="11.473342347890139">
        <ele>971.580000000000041</ele>
        <time>2015-07-20T14:31:21Z</time>
      </trkpt>
      <trkpt lat="47.737312568351626" lon="11.47328669205308">
        <ele>971.220000000000027</ele>
        <time>2015-07-20T14:31:22Z</time>
      </trkpt>
      <trkpt lat="47.737311981618404" lon="11.473242938518524">
        <ele>972.110000000000014</ele>
        <time>2015-07-20T14:31:23Z</time>
      </trkpt>
      <trkpt lat="47.737305695191026" lon="11.473212679848075">
        <ele>972.340000000000032</ele>
        <time>2015-07-20T14:31:24Z</time>
      </trkpt>
      <trkpt lat="47.737298905849457" lon="11.473181750625372">
        <ele>971.960000000000036</ele>
        <time>2015-07-20T14:31:25Z</time>
      </trkpt>
      <trkpt lat="47.737296810373664" lon="11.473157778382301">
        <ele>971.529999999999973</ele>
        <time>2015-07-20T14:31:26Z</time>
      </trkpt>
      <trkpt lat="47.737285159528255" lon="11.473070438951254">
        <ele>969.669999999999959</ele>
        <time>2015-07-20T14:31:29Z</time>
      </trkpt>
      <trkpt lat="47.737390268594027" lon="11.472967341542244">
        <ele>968.580000000000041</ele>
        <time>2015-07-20T14:31:36Z</time>
      </trkpt>
      <trkpt lat="47.73745397105813" lon="11.472863825038075">
        <ele>967.039999999999964</ele>
        <time>2015-07-20T14:31:42Z</time>
      </trkpt>
      <trkpt lat="47.737520523369312" lon="11.472772965207696">
        <ele>965.090000000000032</ele>
        <time>2015-07-20T14:32:02Z</time>
      </trkpt>
      <trkpt lat="47.737611215561628" lon="11.472703814506531">
        <ele>964.139999999999986</ele>
        <time>2015-07-20T14:32:21Z</time>
      </trkpt>
      <trkpt lat="47.737654382362962" lon="11.472646901383996">
        <ele>962.860000000000014</ele>
        <time>2015-07-20T14:32:24Z</time>
      </trkpt>
      <trkpt lat="47.73769486695528" lon="11.47260507568717">
        <ele>962.17999999999995</ele>
        <time>2015-07-20T14:32:27Z</time>
      </trkpt>
      <trkpt lat="47.737739123404026" lon="11.472568698227406">
        <ele>961.42999999999995</ele>
        <time>2015-07-20T14:32:41Z</time>
      </trkpt>
      <trkpt lat="47.737790504470468" lon="11.472520334646106">
        <ele>959.840000000000032</ele>
        <time>2015-07-20T14:32:54Z</time>
      </trkpt>
      <trkpt lat="47.737850602716208" lon="11.472405251115561">
        <ele>956.440000000000055</ele>
        <time>2015-07-20T14:33:09Z</time>
      </trkpt>
      <trkpt lat="47.737832497805357" lon="11.472334340214729">
        <ele>954.190000000000055</ele>
        <time>2015-07-20T14:33:29Z</time>
      </trkpt>
      <trkpt lat="47.737892679870129" lon="11.47226301021874">
        <ele>952.25</ele>
        <time>2015-07-20T14:33:34Z</time>
      </trkpt>
      <trkpt lat="47.737916735932231" lon="11.472204672172666">
        <ele>950.590000000000032</ele>
        <time>2015-07-20T14:33:45Z</time>
      </trkpt>
      <trkpt lat="47.737970715388656" lon="11.472100149840117">
        <ele>947.42999999999995</ele>
        <time>2015-07-20T14:34:02Z</time>
      </trkpt>
      <trkpt lat="47.737996866926551" lon="11.471942234784365">
        <ele>944.450000000000045</ele>
        <time>2015-07-20T14:34:21Z</time>
      </trkpt>
      <trkpt lat="47.738011451438069" lon="11.471852296963334">
        <ele>941.57000000000005</ele>
        <time>2015-07-20T14:34:44Z</time>
      </trkpt>
      <trkpt lat="47.73807305842638" lon="11.471752133220434">
        <ele>940.259999999999991</ele>
        <time>2015-07-20T14:34:59Z</time>
      </trkpt>
      <trkpt lat="47.73808429017663" lon="11.471719611436129">
        <ele>939.940000000000055</ele>
        <time>2015-07-20T14:35:13Z</time>
      </trkpt>
      <trkpt lat="47.73808429017663" lon="11.471717180684209">
        <ele>940.240000000000009</ele>
        <time>2015-07-20T14:35:36Z</time>
      </trkpt>
      <trkpt lat="47.738038273528218" lon="11.471699243411422">
        <ele>939.809999999999945</ele>
        <time>2015-07-20T14:35:47Z</time>
      </trkpt>
      <trkpt lat="47.737990580499172" lon="11.471646605059505">
        <ele>937.5</ele>
        <time>2015-07-20T14:35:50Z</time>
      </trkpt>
      <trkpt lat="47.737958813086152" lon="11.471619866788387">
        <ele>936.519999999999982</ele>
        <time>2015-07-20T14:35:51Z</time>
      </trkpt>
      <trkpt lat="47.73788102902472" lon="11.47155893035233">
        <ele>933.960000000000036</ele>
        <time>2015-07-20T14:35:53Z</time>
      </trkpt>
      <trkpt lat="47.737839203327894" lon="11.471527833491564">
        <ele>932.720000000000027</ele>
        <time>2015-07-20T14:35:54Z</time>
      </trkpt>
      <trkpt lat="47.737753624096513" lon="11.471444936469197">
        <ele>930.67999999999995</ele>
        <time>2015-07-20T14:35:56Z</time>
      </trkpt>
      <trkpt lat="47.737653627991676" lon="11.471321051940322">
        <ele>927.159999999999968</ele>
        <time>2015-07-20T14:35:58Z</time>
      </trkpt>
      <trkpt lat="47.737597301602364" lon="11.471264306455851">
        <ele>926.299999999999955</ele>
        <time>2015-07-20T14:35:59Z</time>
      </trkpt>
      <trkpt lat="47.73742413148284" lon="11.471121730282903">
        <ele>922.700000000000045</ele>
        <time>2015-07-20T14:36:02Z</time>
      </trkpt>
      <trkpt lat="47.737379958853126" lon="11.471076048910618">
        <ele>921.950000000000045</ele>
        <time>2015-07-20T14:36:03Z</time>
      </trkpt>
      <trkpt lat="47.737343329936266" lon="11.471029026433825">
        <ele>921.159999999999968</ele>
        <time>2015-07-20T14:36:04Z</time>
      </trkpt>
      <trkpt lat="47.737314244732261" lon="11.470976555719972">
        <ele>920.389999999999986</ele>
        <time>2015-07-20T14:36:05Z</time>
      </trkpt>
      <trkpt lat="47.737293792888522" lon="11.470917295664549">
        <ele>920.860000000000014</ele>
        <time>2015-07-20T14:36:06Z</time>
      </trkpt>
      <trkpt lat="47.737280549481511" lon="11.470845462754369">
        <ele>919.889999999999986</ele>
        <time>2015-07-20T14:36:07Z</time>
      </trkpt>
      <trkpt lat="47.737268060445786" lon="11.470769690349698">
        <ele>918.600000000000023</ele>
        <time>2015-07-20T14:36:08Z</time>
      </trkpt>
      <trkpt lat="47.737254481762648" lon="11.470697857439518">
        <ele>917.860000000000014</ele>
        <time>2015-07-20T14:36:09Z</time>
      </trkpt>
      <trkpt lat="47.737236712127924" lon="11.470626778900623">
        <ele>916.919999999999959</ele>
        <time>2015-07-20T14:36:10Z</time>
      </trkpt>
      <trkpt lat="47.737213829532266" lon="11.47056165151298">
        <ele>915.960000000000036</ele>
        <time>2015-07-20T14:36:11Z</time>
      </trkpt>
      <trkpt lat="47.737182900309563" lon="11.470504319295287">
        <ele>915.480000000000018</ele>
        <time>2015-07-20T14:36:12Z</time>
      </trkpt>
      <trkpt lat="47.737138895317912" lon="11.470432486385107">
        <ele>914.330000000000041</ele>
        <time>2015-07-20T14:36:13Z</time>
      </trkpt>
      <trkpt lat="47.73698827251792" lon="11.470212712883949">
        <ele>910.370000000000005</ele>
        <time>2015-07-20T14:36:16Z</time>
      </trkpt>
      <trkpt lat="47.736933119595051" lon="11.470117326825857">
        <ele>909.840000000000032</ele>
        <time>2015-07-20T14:36:22Z</time>
      </trkpt>
      <trkpt lat="47.736921971663833" lon="11.47010869346559">
        <ele>909.970000000000027</ele>
        <time>2015-07-20T14:36:23Z</time>
      </trkpt>
      <trkpt lat="47.736856760457158" lon="11.47002998739481">
        <ele>902.470000000000027</ele>
        <time>2015-07-20T14:58:20Z</time>
      </trkpt>
      <trkpt lat="47.736856676638126" lon="11.470013055950403">
        <ele>902.82000000000005</ele>
        <time>2015-07-20T14:58:21Z</time>
      </trkpt>
      <trkpt lat="47.736866567283869" lon="11.469881292432547">
        <ele>903.509999999999991</ele>
        <time>2015-07-20T14:58:35Z</time>
      </trkpt>
      <trkpt lat="47.736930521205068" lon="11.469723042100668">
        <ele>901.139999999999986</ele>
        <time>2015-07-20T14:58:49Z</time>
      </trkpt>
      <trkpt lat="47.736960109323263" lon="11.469672163948417">
        <ele>899.740000000000009</ele>
        <time>2015-07-20T14:58:53Z</time>
      </trkpt>
      <trkpt lat="47.736888444051147" lon="11.469519445672631">
        <ele>897.629999999999995</ele>
        <time>2015-07-20T14:59:10Z</time>
      </trkpt>
      <trkpt lat="47.736895317211747" lon="11.469486253336072">
        <ele>897.389999999999986</ele>
        <time>2015-07-20T14:59:12Z</time>
      </trkpt>
      <trkpt lat="47.736901687458158" lon="11.469463538378477">
        <ele>895.970000000000027</ele>
        <time>2015-07-20T14:59:13Z</time>
      </trkpt>
      <trkpt lat="47.736910236999393" lon="11.469427328556776">
        <ele>894.580000000000041</ele>
        <time>2015-07-20T14:59:14Z</time>
      </trkpt>
      <trkpt lat="47.736924402415752" lon="11.469388771802187">
        <ele>893.559999999999945</ele>
        <time>2015-07-20T14:59:15Z</time>
      </trkpt>
      <trkpt lat="47.736938400194049" lon="11.469346359372139">
        <ele>891.769999999999982</ele>
        <time>2015-07-20T14:59:16Z</time>
      </trkpt>
      <trkpt lat="47.736938735470176" lon="11.469300677999854">
        <ele>891.049999999999955</ele>
        <time>2015-07-20T14:59:17Z</time>
      </trkpt>
      <trkpt lat="47.736932784318924" lon="11.469263965263963">
        <ele>891.149999999999977</ele>
        <time>2015-07-20T14:59:18Z</time>
      </trkpt>
      <trkpt lat="47.736930605024099" lon="11.469236640259624">
        <ele>890.870000000000005</ele>
        <time>2015-07-20T14:59:19Z</time>
      </trkpt>
      <trkpt lat="47.736933873966336" lon="11.469202861189842">
        <ele>890.009999999999991</ele>
        <time>2015-07-20T14:59:20Z</time>
      </trkpt>
      <trkpt lat="47.736941669136286" lon="11.469166483730078">
        <ele>889.090000000000032</ele>
        <time>2015-07-20T14:59:21Z</time>
      </trkpt>
      <trkpt lat="47.736952984705567" lon="11.469136225059628">
        <ele>888.17999999999995</ele>
        <time>2015-07-20T14:59:22Z</time>
      </trkpt>
      <trkpt lat="47.736967569217086" lon="11.46910697221756">
        <ele>888.940000000000055</ele>
        <time>2015-07-20T14:59:23Z</time>
      </trkpt>
      <trkpt lat="47.736981986090541" lon="11.469078222289681">
        <ele>887.379999999999995</ele>
        <time>2015-07-20T14:59:24Z</time>
      </trkpt>
      <trkpt lat="47.73699807934463" lon="11.469036061316729">
        <ele>886.299999999999955</ele>
        <time>2015-07-20T14:59:25Z</time>
      </trkpt>
      <trkpt lat="47.7370151784271" lon="11.468990296125412">
        <ele>884.889999999999986</ele>
        <time>2015-07-20T14:59:26Z</time>
      </trkpt>
      <trkpt lat="47.737034456804395" lon="11.468953834846616">
        <ele>884.419999999999959</ele>
        <time>2015-07-20T14:59:27Z</time>
      </trkpt>
      <trkpt lat="47.73705130442977" lon="11.468927096575499">
        <ele>884.009999999999991</ele>
        <time>2015-07-20T14:59:28Z</time>
      </trkpt>
      <trkpt lat="47.73707477375865" lon="11.468900190666318">
        <ele>883.019999999999982</ele>
        <time>2015-07-20T14:59:29Z</time>
      </trkpt>
      <trkpt lat="47.737099248915911" lon="11.468876805156469">
        <ele>882.870000000000005</ele>
        <time>2015-07-20T14:59:30Z</time>
      </trkpt>
      <trkpt lat="47.737118024379015" lon="11.468850905075669">
        <ele>882.779999999999973</ele>
        <time>2015-07-20T14:59:31Z</time>
      </trkpt>
      <trkpt lat="47.737125568091869" lon="11.468821736052632">
        <ele>882.600000000000023</ele>
        <time>2015-07-20T14:59:32Z</time>
      </trkpt>
      <trkpt lat="47.737129088491201" lon="11.468797093257308">
        <ele>882.32000000000005</ele>
        <time>2015-07-20T14:59:33Z</time>
      </trkpt>
      <trkpt lat="47.73713587783277" lon="11.46875518374145">
        <ele>881.529999999999973</ele>
        <time>2015-07-20T14:59:34Z</time>
      </trkpt>
      <trkpt lat="47.737144595012069" lon="11.468695588409901">
        <ele>881.25</ele>
        <time>2015-07-20T14:59:36Z</time>
      </trkpt>
      <trkpt lat="47.73715540766716" lon="11.468640435487032">
        <ele>880.129999999999995</ele>
        <time>2015-07-20T14:59:38Z</time>
      </trkpt>
      <trkpt lat="47.73716907016933" lon="11.468552341684699">
        <ele>877.240000000000009</ele>
        <time>2015-07-20T14:59:52Z</time>
      </trkpt>
      <trkpt lat="47.737206453457475" lon="11.468571117147803">
        <ele>874.350000000000023</ele>
        <time>2015-07-20T15:00:03Z</time>
      </trkpt>
      <trkpt lat="47.737303096801043" lon="11.468563657253981">
        <ele>872.889999999999986</ele>
        <time>2015-07-20T15:00:22Z</time>
      </trkpt>
      <trkpt lat="47.737353052943945" lon="11.468441030010581">
        <ele>869.740000000000009</ele>
        <time>2015-07-20T15:00:44Z</time>
      </trkpt>
      <trkpt lat="47.737435279414058" lon="11.468382775783539">
        <ele>866.700000000000045</ele>
        <time>2015-07-20T15:00:49Z</time>
      </trkpt>
      <trkpt lat="47.737452210858464" lon="11.468361737206578">
        <ele>866.259999999999991</ele>
        <time>2015-07-20T15:00:50Z</time>
      </trkpt>
      <trkpt lat="47.737462688237429" lon="11.468345811590552">
        <ele>865.620000000000005</ele>
        <time>2015-07-20T15:00:51Z</time>
      </trkpt>
      <trkpt lat="47.737526306882501" lon="11.46829342469573">
        <ele>861.82000000000005</ele>
        <time>2015-07-20T15:00:56Z</time>
      </trkpt>
      <trkpt lat="47.737534018233418" lon="11.468273894861341">
        <ele>861.779999999999973</ele>
        <time>2015-07-20T15:00:57Z</time>
      </trkpt>
      <trkpt lat="47.737541142851114" lon="11.468255957588553">
        <ele>861.029999999999973</ele>
        <time>2015-07-20T15:00:58Z</time>
      </trkpt>
      <trkpt lat="47.737551787868142" lon="11.468235589563847">
        <ele>861.059999999999945</ele>
        <time>2015-07-20T15:00:59Z</time>
      </trkpt>
      <trkpt lat="47.737584477290511" lon="11.468187980353832">
        <ele>859.600000000000023</ele>
        <time>2015-07-20T15:01:03Z</time>
      </trkpt>
      <trkpt lat="47.737596211954951" lon="11.468166522681713">
        <ele>859.340000000000032</ele>
        <time>2015-07-20T15:01:04Z</time>
      </trkpt>
      <trkpt lat="47.737622195854783" lon="11.468144645914435">
        <ele>858.779999999999973</ele>
        <time>2015-07-20T15:01:07Z</time>
      </trkpt>
      <trkpt lat="47.73764356970787" lon="11.468142047524452">
        <ele>858.629999999999995</ele>
        <time>2015-07-20T15:01:10Z</time>
      </trkpt>
      <trkpt lat="47.737718252465129" lon="11.468196613714099">
        <ele>858.149999999999977</ele>
        <time>2015-07-20T15:01:32Z</time>
      </trkpt>
      <trkpt lat="47.73773149587214" lon="11.468210024759173">
        <ele>857.659999999999968</ele>
        <time>2015-07-20T15:01:35Z</time>
      </trkpt>
      <trkpt lat="47.737815733999014" lon="11.4682328235358">
        <ele>854.659999999999968</ele>
        <time>2015-07-20T15:01:53Z</time>
      </trkpt>
      <trkpt lat="47.737959986552596" lon="11.468139532953501">
        <ele>852.519999999999982</ele>
        <time>2015-07-20T15:02:11Z</time>
      </trkpt>
      <trkpt lat="47.738043135032058" lon="11.468021180480719">
        <ele>850.75</ele>
        <time>2015-07-20T15:02:25Z</time>
      </trkpt>
      <trkpt lat="47.738164253532887" lon="11.467956891283393">
        <ele>848.470000000000027</ele>
        <time>2015-07-20T15:02:36Z</time>
      </trkpt>
      <trkpt lat="47.738174730911851" lon="11.467891428619623">
        <ele>848.769999999999982</ele>
        <time>2015-07-20T15:02:59Z</time>
      </trkpt>
      <trkpt lat="47.738190572708845" lon="11.467851614579558">
        <ele>849.549999999999955</ele>
        <time>2015-07-20T15:03:31Z</time>
      </trkpt>
      <trkpt lat="47.738250503316522" lon="11.467835521325469">
        <ele>846.440000000000055</ele>
        <time>2015-07-20T15:03:57Z</time>
      </trkpt>
      <trkpt lat="47.738363491371274" lon="11.467713564634323">
        <ele>845.710000000000036</ele>
        <time>2015-07-20T15:04:14Z</time>
      </trkpt>
      <trkpt lat="47.738392408937216" lon="11.46754777058959">
        <ele>842.67999999999995</ele>
        <time>2015-07-20T15:04:33Z</time>
      </trkpt>
      <trkpt lat="47.738403389230371" lon="11.467420030385256">
        <ele>841.409999999999968</ele>
        <time>2015-07-20T15:04:58Z</time>
      </trkpt>
      <trkpt lat="47.738464744761586" lon="11.467475518584251">
        <ele>838.919999999999959</ele>
        <time>2015-07-20T15:05:17Z</time>
      </trkpt>
      <trkpt lat="47.738498691469431" lon="11.467423383146524">
        <ele>836.009999999999991</ele>
        <time>2015-07-20T15:05:41Z</time>
      </trkpt>
      <trkpt lat="47.738545713946223" lon="11.467427406460047">
        <ele>833.700000000000045</ele>
        <time>2015-07-20T15:06:04Z</time>
      </trkpt>
      <trkpt lat="47.738545294851065" lon="11.467406284064054">
        <ele>830.740000000000009</ele>
        <time>2015-07-20T15:06:25Z</time>
      </trkpt>
      <trkpt lat="47.738596675917506" lon="11.467354148626328">
        <ele>828.519999999999982</ele>
        <time>2015-07-20T15:06:54Z</time>
      </trkpt>
      <trkpt lat="47.738653589040041" lon="11.467339815571904">
        <ele>825.389999999999986</ele>
        <time>2015-07-20T15:07:14Z</time>
      </trkpt>
      <trkpt lat="47.738731037825346" lon="11.467320118099451">
        <ele>823.17999999999995</ele>
        <time>2015-07-20T15:07:32Z</time>
      </trkpt>
      <trkpt lat="47.738754339516163" lon="11.467317435890436">
        <ele>823.009999999999991</ele>
        <time>2015-07-20T15:07:56Z</time>
      </trkpt>
      <trkpt lat="47.738824412226677" lon="11.467294972389936">
        <ele>822.519999999999982</ele>
        <time>2015-07-20T15:08:16Z</time>
      </trkpt>
      <trkpt lat="47.738930443301797" lon="11.467271083965898">
        <ele>823.590000000000032</ele>
        <time>2015-07-20T15:08:37Z</time>
      </trkpt>
      <trkpt lat="47.738974364474416" lon="11.467265384271741">
        <ele>822.399999999999977</ele>
        <time>2015-07-20T15:08:54Z</time>
      </trkpt>
      <trkpt lat="47.739024069160223" lon="11.46726731210947">
        <ele>821.379999999999995</ele>
        <time>2015-07-20T15:09:20Z</time>
      </trkpt>
      <trkpt lat="47.739069247618318" lon="11.467161448672414">
        <ele>818.019999999999982</ele>
        <time>2015-07-20T15:09:37Z</time>
      </trkpt>
      <trkpt lat="47.739117024466395" lon="11.467059524729848">
        <ele>814.950000000000045</ele>
        <time>2015-07-20T15:09:54Z</time>
      </trkpt>
      <trkpt lat="47.739202855154872" lon="11.467070588842034">
        <ele>811.950000000000045</ele>
        <time>2015-07-20T15:10:13Z</time>
      </trkpt>
      <trkpt lat="47.739296481013298" lon="11.467047706246376">
        <ele>808.840000000000032</ele>
        <time>2015-07-20T15:10:29Z</time>
      </trkpt>
      <trkpt lat="47.739396896213293" lon="11.467049466446042">
        <ele>805.399999999999977</ele>
        <time>2015-07-20T15:10:45Z</time>
      </trkpt>
      <trkpt lat="47.739460682496428" lon="11.467110319063067">
        <ele>802.059999999999945</ele>
        <time>2015-07-20T15:10:59Z</time>
      </trkpt>
      <trkpt lat="47.739559002220631" lon="11.467168824747205">
        <ele>801.269999999999982</ele>
        <time>2015-07-20T15:11:23Z</time>
      </trkpt>
      <trkpt lat="47.739589428529143" lon="11.467304024845362">
        <ele>801.07000000000005</ele>
        <time>2015-07-20T15:11:46Z</time>
      </trkpt>
      <trkpt lat="47.739652544260025" lon="11.4673694036901">
        <ele>798.059999999999945</ele>
        <time>2015-07-20T15:12:00Z</time>
      </trkpt>
      <trkpt lat="47.739675929769874" lon="11.467386167496443">
        <ele>796.840000000000032</ele>
        <time>2015-07-20T15:12:03Z</time>
      </trkpt>
      <trkpt lat="47.739811465144157" lon="11.467491025105119">
        <ele>794.610000000000014</ele>
        <time>2015-07-20T15:12:24Z</time>
      </trkpt>
      <trkpt lat="47.739853961393237" lon="11.467395974323153">
        <ele>791.850000000000023</ele>
        <time>2015-07-20T15:12:38Z</time>
      </trkpt>
      <trkpt lat="47.739919172599912" lon="11.46730444394052">
        <ele>787.649999999999977</ele>
        <time>2015-07-20T15:12:46Z</time>
      </trkpt>
      <trkpt lat="47.739999638870358" lon="11.467147953808308">
        <ele>785.259999999999991</ele>
        <time>2015-07-20T15:12:51Z</time>
      </trkpt>
      <trkpt lat="47.740055462345481" lon="11.467077042907476">
        <ele>784</ele>
        <time>2015-07-20T15:12:55Z</time>
      </trkpt>
      <trkpt lat="47.740109777078032" lon="11.467044772580266">
        <ele>783.419999999999959</ele>
        <time>2015-07-20T15:12:57Z</time>
      </trkpt>
      <trkpt lat="47.740221591666341" lon="11.466975370422006">
        <ele>780.590000000000032</ele>
        <time>2015-07-20T15:13:01Z</time>
      </trkpt>
      <trkpt lat="47.740383530035615" lon="11.46678795106709">
        <ele>777.980000000000018</ele>
        <time>2015-07-20T15:13:11Z</time>
      </trkpt>
      <trkpt lat="47.740511437878013" lon="11.466695833951235">
        <ele>774.629999999999995</ele>
        <time>2015-07-20T15:13:21Z</time>
      </trkpt>
      <trkpt lat="47.740638172253966" lon="11.466546468436718">
        <ele>771.100000000000023</ele>
        <time>2015-07-20T15:13:26Z</time>
      </trkpt>
      <trkpt lat="47.74066180922091" lon="11.466535069048405">
        <ele>770.460000000000036</ele>
        <time>2015-07-20T15:13:27Z</time>
      </trkpt>
      <trkpt lat="47.740656193345785" lon="11.466446472331882">
        <ele>769.960000000000036</ele>
        <time>2015-07-20T15:13:28Z</time>
      </trkpt>
      <trkpt lat="47.740669436752796" lon="11.466412777081132">
        <ele>768.629999999999995</ele>
        <time>2015-07-20T15:13:29Z</time>
      </trkpt>
      <trkpt lat="47.740676058456302" lon="11.46636575460434">
        <ele>767.450000000000045</ele>
        <time>2015-07-20T15:13:30Z</time>
      </trkpt>
      <trkpt lat="47.740686954930425" lon="11.466348320245743">
        <ele>766.200000000000045</ele>
        <time>2015-07-20T15:13:31Z</time>
      </trkpt>
      <trkpt lat="47.740684105083346" lon="11.466293502599001">
        <ele>765.42999999999995</ele>
        <time>2015-07-20T15:13:32Z</time>
      </trkpt>
      <trkpt lat="47.74068184196949" lon="11.466253772377968">
        <ele>764.419999999999959</ele>
        <time>2015-07-20T15:13:33Z</time>
      </trkpt>
      <trkpt lat="47.740685697644949" lon="11.466235248371959">
        <ele>764.419999999999959</ele>
        <time>2015-07-20T15:13:34Z</time>
      </trkpt>
      <trkpt lat="47.740693828091025" lon="11.466228542849422">
        <ele>763.419999999999959</ele>
        <time>2015-07-20T15:13:35Z</time>
      </trkpt>
      <trkpt lat="47.740731714293361" lon="11.466233571991324">
        <ele>761.470000000000027</ele>
        <time>2015-07-20T15:13:38Z</time>
      </trkpt>
      <trkpt lat="47.740861717611551" lon="11.466224687173963">
        <ele>760.129999999999995</ele>
        <time>2015-07-20T15:13:46Z</time>
      </trkpt>
      <trkpt lat="47.740901196375489" lon="11.466236338019371">
        <ele>759.779999999999973</ele>
        <time>2015-07-20T15:13:48Z</time>
      </trkpt>
      <trkpt lat="47.741031618788838" lon="11.46627539768815">
        <ele>759.710000000000036</ele>
        <time>2015-07-20T15:14:14Z</time>
      </trkpt>
      <trkpt lat="47.741072606295347" lon="11.466316133737564">
        <ele>760.029999999999973</ele>
        <time>2015-07-20T15:14:45Z</time>
      </trkpt>
      <trkpt lat="47.741086184978485" lon="11.466339435428381">
        <ele>759.860000000000014</ele>
        <time>2015-07-20T15:14:49Z</time>
      </trkpt>
      <trkpt lat="47.741109151393175" lon="11.466452674940228">
        <ele>756.950000000000045</ele>
        <time>2015-07-20T15:14:53Z</time>
      </trkpt>
      <trkpt lat="47.741127088665962" lon="11.466479329392314">
        <ele>756.639999999999986</ele>
        <time>2015-07-20T15:14:54Z</time>
      </trkpt>
      <trkpt lat="47.741156090050936" lon="11.466505732387304">
        <ele>755.990000000000009</ele>
        <time>2015-07-20T15:14:56Z</time>
      </trkpt>
      <trkpt lat="47.741186767816544" lon="11.466516880318522">
        <ele>755.190000000000055</ele>
        <time>2015-07-20T15:15:00Z</time>
      </trkpt>
      <trkpt lat="47.741339234635234" lon="11.466519478708506">
        <ele>752.159999999999968</ele>
        <time>2015-07-20T15:15:12Z</time>
      </trkpt>
      <trkpt lat="47.741368319839239" lon="11.466513024643064">
        <ele>751.909999999999968</ele>
        <time>2015-07-20T15:15:13Z</time>
      </trkpt>
      <trkpt lat="47.74142456240952" lon="11.466504139825702">
        <ele>751.330000000000041</ele>
        <time>2015-07-20T15:15:15Z</time>
      </trkpt>
      <trkpt lat="47.741443170234561" lon="11.466508582234383">
        <ele>751.159999999999968</ele>
        <time>2015-07-20T15:15:16Z</time>
      </trkpt>
      <trkpt lat="47.741487510502338" lon="11.466541858389974">
        <ele>750.399999999999977</ele>
        <time>2015-07-20T15:15:19Z</time>
      </trkpt>
      <trkpt lat="47.741503771394491" lon="11.466558035463095">
        <ele>749.92999999999995</ele>
        <time>2015-07-20T15:15:20Z</time>
      </trkpt>
      <trkpt lat="47.741516008973122" lon="11.466571111232042">
        <ele>749.419999999999959</ele>
        <time>2015-07-20T15:15:21Z</time>
      </trkpt>
      <trkpt lat="47.741530258208513" lon="11.466591898351908">
        <ele>748.82000000000005</ele>
        <time>2015-07-20T15:15:23Z</time>
      </trkpt>
      <trkpt lat="47.741562444716692" lon="11.466610506176949">
        <ele>747.899999999999977</ele>
        <time>2015-07-20T15:15:26Z</time>
      </trkpt>
      <trkpt lat="47.741586752235889" lon="11.466654846444726">
        <ele>746.370000000000005</ele>
        <time>2015-07-20T15:15:29Z</time>
      </trkpt>
      <trkpt lat="47.741690268740058" lon="11.466703629121184">
        <ele>743.259999999999991</ele>
        <time>2015-07-20T15:15:34Z</time>
      </trkpt>
      <trkpt lat="47.741729579865932" lon="11.466714357957244">
        <ele>742.220000000000027</ele>
        <time>2015-07-20T15:15:35Z</time>
      </trkpt>
      <trkpt lat="47.741751288995147" lon="11.466720057651401">
        <ele>741.769999999999982</ele>
        <time>2015-07-20T15:15:36Z</time>
      </trkpt>
      <trkpt lat="47.741778027266264" lon="11.466728691011667">
        <ele>741.120000000000005</ele>
        <time>2015-07-20T15:15:37Z</time>
      </trkpt>
      <trkpt lat="47.741806777194142" lon="11.466730870306492">
        <ele>741.120000000000005</ele>
        <time>2015-07-20T15:15:38Z</time>
      </trkpt>
      <trkpt lat="47.741833599284291" lon="11.466728188097477">
        <ele>740.279999999999973</ele>
        <time>2015-07-20T15:15:39Z</time>
      </trkpt>
      <trkpt lat="47.74189411662519" lon="11.466712765395641">
        <ele>738.690000000000055</ele>
        <time>2015-07-20T15:15:41Z</time>
      </trkpt>
      <trkpt lat="47.741929572075605" lon="11.466706311330199">
        <ele>737.75</ele>
        <time>2015-07-20T15:15:42Z</time>
      </trkpt>
      <trkpt lat="47.741986904293299" lon="11.466693403199315">
        <ele>737.220000000000027</ele>
        <time>2015-07-20T15:15:43Z</time>
      </trkpt>
      <trkpt lat="47.742021521553397" lon="11.466684183105826">
        <ele>736.899999999999977</ele>
        <time>2015-07-20T15:15:44Z</time>
      </trkpt>
      <trkpt lat="47.742067202925682" lon="11.466682506725192">
        <ele>736.17999999999995</ele>
        <time>2015-07-20T15:15:45Z</time>
      </trkpt>
      <trkpt lat="47.742105340585113" lon="11.466681081801653">
        <ele>735.950000000000045</ele>
        <time>2015-07-20T15:15:46Z</time>
      </trkpt>
      <trkpt lat="47.742322096601129" lon="11.466616205871105">
        <ele>731.730000000000018</ele>
        <time>2015-07-20T15:15:51Z</time>
      </trkpt>
      <trkpt lat="47.742354031652212" lon="11.466608745977283">
        <ele>731.57000000000005</ele>
        <time>2015-07-20T15:15:52Z</time>
      </trkpt>
      <trkpt lat="47.742456542328" lon="11.466598687693477">
        <ele>730.460000000000036</ele>
        <time>2015-07-20T15:15:54Z</time>
      </trkpt>
      <trkpt lat="47.742589311674237" lon="11.466589216142893">
        <ele>729.460000000000036</ele>
        <time>2015-07-20T15:15:56Z</time>
      </trkpt>
      <trkpt lat="47.742822328582406" lon="11.466591311618686">
        <ele>726.139999999999986</ele>
        <time>2015-07-20T15:16:01Z</time>
      </trkpt>
      <trkpt lat="47.742883181199431" lon="11.466591060161591">
        <ele>726.159999999999968</ele>
        <time>2015-07-20T15:16:02Z</time>
      </trkpt>
      <trkpt lat="47.743016704916954" lon="11.466572536155581">
        <ele>725.460000000000036</ele>
        <time>2015-07-20T15:16:04Z</time>
      </trkpt>
      <trkpt lat="47.743103792890906" lon="11.466547977179289">
        <ele>724.409999999999968</ele>
        <time>2015-07-20T15:16:05Z</time>
      </trkpt>
      <trkpt lat="47.743197586387396" lon="11.466518640518188">
        <ele>723.740000000000009</ele>
        <time>2015-07-20T15:16:06Z</time>
      </trkpt>
      <trkpt lat="47.743251146748662" lon="11.466485280543566">
        <ele>722.539999999999964</ele>
        <time>2015-07-20T15:16:07Z</time>
      </trkpt>
      <trkpt lat="47.743328008800745" lon="11.466443873941898">
        <ele>722.009999999999991</ele>
        <time>2015-07-20T15:16:08Z</time>
      </trkpt>
      <trkpt lat="47.743377964943647" lon="11.466407664120197">
        <ele>721.690000000000055</ele>
        <time>2015-07-20T15:16:09Z</time>
      </trkpt>
      <trkpt lat="47.743671163916588" lon="11.466181101277471">
        <ele>718.419999999999959</ele>
        <time>2015-07-20T15:16:18Z</time>
      </trkpt>
      <trkpt lat="47.744042901322246" lon="11.465846160426736">
        <ele>715.200000000000045</ele>
        <time>2015-07-20T15:16:29Z</time>
      </trkpt>
      <trkpt lat="47.744289832189679" lon="11.465682880952954">
        <ele>711.940000000000055</ele>
        <time>2015-07-20T15:16:35Z</time>
      </trkpt>
      <trkpt lat="47.744335765019059" lon="11.465648431330919">
        <ele>711.639999999999986</ele>
        <time>2015-07-20T15:16:36Z</time>
      </trkpt>
      <trkpt lat="47.744433581829071" lon="11.465581208467484">
        <ele>710.460000000000036</ele>
        <time>2015-07-20T15:16:38Z</time>
      </trkpt>
      <trkpt lat="47.744485465809703" lon="11.465555727481842">
        <ele>710.029999999999973</ele>
        <time>2015-07-20T15:16:39Z</time>
      </trkpt>
      <trkpt lat="47.744636340066791" lon="11.465495964512229">
        <ele>709.580000000000041</ele>
        <time>2015-07-20T15:16:41Z</time>
      </trkpt>
      <trkpt lat="47.744697947055101" lon="11.46545791067183">
        <ele>709.009999999999991</ele>
        <time>2015-07-20T15:16:42Z</time>
      </trkpt>
      <trkpt lat="47.744749914854765" lon="11.465423377230763">
        <ele>708.57000000000005</ele>
        <time>2015-07-20T15:16:43Z</time>
      </trkpt>
      <trkpt lat="47.744798446074128" lon="11.465404937043786">
        <ele>708.690000000000055</ele>
        <time>2015-07-20T15:16:44Z</time>
      </trkpt>
      <trkpt lat="47.74484253488481" lon="11.465400494635105">
        <ele>708.519999999999982</ele>
        <time>2015-07-20T15:16:45Z</time>
      </trkpt>
      <trkpt lat="47.744890647009015" lon="11.465395549312234">
        <ele>707.809999999999945</ele>
        <time>2015-07-20T15:16:46Z</time>
      </trkpt>
      <trkpt lat="47.744933813810349" lon="11.465380042791367">
        <ele>707.370000000000005</ele>
        <time>2015-07-20T15:16:47Z</time>
      </trkpt>
      <trkpt lat="47.74498519487679" lon="11.465349113568664">
        <ele>706.950000000000045</ele>
        <time>2015-07-20T15:16:48Z</time>
      </trkpt>
      <trkpt lat="47.745039174333215" lon="11.465326817706227">
        <ele>706.450000000000045</ele>
        <time>2015-07-20T15:16:49Z</time>
      </trkpt>
      <trkpt lat="47.745093237608671" lon="11.465312484651804">
        <ele>705.649999999999977</ele>
        <time>2015-07-20T15:16:50Z</time>
      </trkpt>
      <trkpt lat="47.745143948122859" lon="11.46530301310122">
        <ele>705.490000000000009</ele>
        <time>2015-07-20T15:16:51Z</time>
      </trkpt>
      <trkpt lat="47.745198095217347" lon="11.465298403054476">
        <ele>704.870000000000005</ele>
        <time>2015-07-20T15:16:52Z</time>
      </trkpt>
      <trkpt lat="47.745250230655074" lon="11.465299744158983">
        <ele>704.269999999999982</ele>
        <time>2015-07-20T15:16:53Z</time>
      </trkpt>
      <trkpt lat="47.745296834036708" lon="11.465308126062155">
        <ele>703.960000000000036</ele>
        <time>2015-07-20T15:16:54Z</time>
      </trkpt>
      <trkpt lat="47.745403368026018" lon="11.465312065556645">
        <ele>701.92999999999995</ele>
        <time>2015-07-20T15:16:56Z</time>
      </trkpt>
      <trkpt lat="47.745453156530857" lon="11.465307790786028">
        <ele>701.629999999999995</ele>
        <time>2015-07-20T15:16:57Z</time>
      </trkpt>
      <trkpt lat="47.745551727712154" lon="11.465317262336612">
        <ele>702.299999999999955</ele>
        <time>2015-07-20T15:17:00Z</time>
      </trkpt>
      <trkpt lat="47.745572095736861" lon="11.465352633967996">
        <ele>702.039999999999964</ele>
        <time>2015-07-20T15:17:01Z</time>
      </trkpt>
      <trkpt lat="47.745610401034355" lon="11.465390352532268">
        <ele>701.710000000000036</ele>
        <time>2015-07-20T15:17:02Z</time>
      </trkpt>
      <trkpt lat="47.745643761008978" lon="11.465430166572332">
        <ele>701.710000000000036</ele>
        <time>2015-07-20T15:17:03Z</time>
      </trkpt>
      <trkpt lat="47.745660692453384" lon="11.465467717498541">
        <ele>702.210000000000036</ele>
        <time>2015-07-20T15:17:04Z</time>
      </trkpt>
      <trkpt lat="47.74591701105237" lon="11.466154782101512">
        <ele>702.07000000000005</ele>
        <time>2015-07-20T15:17:19Z</time>
      </trkpt>
      <trkpt lat="47.746056318283081" lon="11.466960031539202">
        <ele>699.879999999999995</ele>
        <time>2015-07-20T15:17:33Z</time>
      </trkpt>
      <trkpt lat="47.746121697127819" lon="11.467252392321825">
        <ele>699.860000000000014</ele>
        <time>2015-07-20T15:17:41Z</time>
      </trkpt>
      <trkpt lat="47.746141981333494" lon="11.467264797538519">
        <ele>700.169999999999959</ele>
        <time>2015-07-20T15:17:42Z</time>
      </trkpt>
      <trkpt lat="47.746214400976896" lon="11.467270078137517">
        <ele>700.009999999999991</ele>
        <time>2015-07-20T15:17:44Z</time>
      </trkpt>
      <trkpt lat="47.746242228895426" lon="11.467238729819655">
        <ele>699.960000000000036</ele>
        <time>2015-07-20T15:17:45Z</time>
      </trkpt>
      <trkpt lat="47.746270643547177" lon="11.467195814475417">
        <ele>700.330000000000041</ele>
        <time>2015-07-20T15:17:46Z</time>
      </trkpt>
      <trkpt lat="47.746300902217627" lon="11.467147031798959">
        <ele>700.32000000000005</ele>
        <time>2015-07-20T15:17:47Z</time>
      </trkpt>
      <trkpt lat="47.746324958279729" lon="11.467090956866741">
        <ele>700.230000000000018</ele>
        <time>2015-07-20T15:17:48Z</time>
      </trkpt>
      <trkpt lat="47.746342225000262" lon="11.46703127771616">
        <ele>700.139999999999986</ele>
        <time>2015-07-20T15:17:49Z</time>
      </trkpt>
      <trkpt lat="47.746355133131146" lon="11.466968078166246">
        <ele>699.669999999999959</ele>
        <time>2015-07-20T15:17:50Z</time>
      </trkpt>
      <trkpt lat="47.746367705985904" lon="11.466900603845716">
        <ele>699.590000000000032</ele>
        <time>2015-07-20T15:17:51Z</time>
      </trkpt>
      <trkpt lat="47.746386984363198" lon="11.466760458424687">
        <ele>698.889999999999986</ele>
        <time>2015-07-20T15:17:53Z</time>
      </trkpt>
      <trkpt lat="47.746492344886065" lon="11.465624962002039">
        <ele>698.870000000000005</ele>
        <time>2015-07-20T15:18:09Z</time>
      </trkpt>
      <trkpt lat="47.7465043310076" lon="11.46515985019505">
        <ele>697.950000000000045</ele>
        <time>2015-07-20T15:18:16Z</time>
      </trkpt>
      <trkpt lat="47.746534841135144" lon="11.465141912922263">
        <ele>696.960000000000036</ele>
        <time>2015-07-20T15:18:17Z</time>
      </trkpt>
      <trkpt lat="47.746572559699416" lon="11.465138895437121">
        <ele>696.230000000000018</ele>
        <time>2015-07-20T15:18:18Z</time>
      </trkpt>
      <trkpt lat="47.746612960472703" lon="11.465141410008073">
        <ele>695.659999999999968</ele>
        <time>2015-07-20T15:18:19Z</time>
      </trkpt>
      <trkpt lat="47.746659312397242" lon="11.465146606788039">
        <ele>695.659999999999968</ele>
        <time>2015-07-20T15:18:20Z</time>
      </trkpt>
      <trkpt lat="47.746708681806922" lon="11.465152474120259">
        <ele>695.350000000000023</ele>
        <time>2015-07-20T15:18:21Z</time>
      </trkpt>
      <trkpt lat="47.746759308502078" lon="11.465157503262162">
        <ele>694.600000000000023</ele>
        <time>2015-07-20T15:18:22Z</time>
      </trkpt>
      <trkpt lat="47.746877493336797" lon="11.465187594294548">
        <ele>693.960000000000036</ele>
        <time>2015-07-20T15:18:24Z</time>
      </trkpt>
      <trkpt lat="47.746936334297061" lon="11.465178374201059">
        <ele>693.090000000000032</ele>
        <time>2015-07-20T15:18:25Z</time>
      </trkpt>
      <trkpt lat="47.7469826862216" lon="11.465139565989375">
        <ele>693.269999999999982</ele>
        <time>2015-07-20T15:18:26Z</time>
      </trkpt>
      <trkpt lat="47.747018309310079" lon="11.465079467743635">
        <ele>692.809999999999945</ele>
        <time>2015-07-20T15:18:27Z</time>
      </trkpt>
      <trkpt lat="47.747042616829276" lon="11.465002438053489">
        <ele>692.960000000000036</ele>
        <time>2015-07-20T15:18:28Z</time>
      </trkpt>
      <trkpt lat="47.747064996510744" lon="11.464905962347984">
        <ele>692.279999999999973</ele>
        <time>2015-07-20T15:18:29Z</time>
      </trkpt>
      <trkpt lat="47.747181337326765" lon="11.463578520342708">
        <ele>689.090000000000032</ele>
        <time>2015-07-20T15:18:42Z</time>
      </trkpt>
      <trkpt lat="47.747171027585864" lon="11.462712585926056">
        <ele>689.409999999999968</ele>
        <time>2015-07-20T15:18:54Z</time>
      </trkpt>
      <trkpt lat="47.747177230194211" lon="11.462687691673636">
        <ele>689.360000000000014</ele>
        <time>2015-07-20T15:19:11Z</time>
      </trkpt>
      <trkpt lat="47.747175469994545" lon="11.462686769664288">
        <ele>689.309999999999945</ele>
        <time>2015-07-20T15:19:17Z</time>
      </trkpt>
    </trkseg>
  </trk>

</gpx>
